<?xml version="1.0" encoding="UTF-8" standalone="no" ?>
<gpx xmlns="http://www.topografix.com/GPX/1/1" xmlns:xsi="http://www.w3.org/2001/XMLSchema-instance" xsi:schemaLocation="http://www.topografix.com/GPX/1/1 http://www.topografix.com/GPX/1/1/gpx.xsd" version="1.1" creator="VisuGPX - https://www.visugpx.com">
  <metadata>
    <name>Loisirs &amp; Découvertes à Villetoureix (3)</name>
    <desc><![CDATA[Randonnée accessible à tous. Il existe pratiquement toujours des possibilités  pour raccourcir le circuit à environ  6km. ]]></desc>
  </metadata>
  <trk>
    <name><![CDATA[Tracé 24 juin 2016 14:35:42]]></name>
    <trkseg>
      <trkpt lat="45.26083" lon="0.35903">
        <ele>73</ele>
        <time>2016-06-24T12:35:42Z</time>
      </trkpt>
      <trkpt lat="45.26087" lon="0.35902">
        <ele>77</ele>
        <time>2016-06-24T12:36:36Z</time>
      </trkpt>
      <trkpt lat="45.2609" lon="0.35905">
        <ele>78</ele>
        <time>2016-06-24T12:36:42Z</time>
      </trkpt>
      <trkpt lat="45.26096" lon="0.35909">
        <ele>78</ele>
        <time>2016-06-24T12:36:46Z</time>
      </trkpt>
      <trkpt lat="45.26104" lon="0.3591">
        <ele>78</ele>
        <time>2016-06-24T12:36:50Z</time>
      </trkpt>
      <trkpt lat="45.26108" lon="0.35913">
        <ele>81</ele>
        <time>2016-06-24T12:36:55Z</time>
      </trkpt>
      <trkpt lat="45.26111" lon="0.35916">
        <ele>82</ele>
        <time>2016-06-24T12:36:59Z</time>
      </trkpt>
      <trkpt lat="45.26115" lon="0.35923">
        <ele>85</ele>
        <time>2016-06-24T12:37:04Z</time>
      </trkpt>
      <trkpt lat="45.26119" lon="0.35929">
        <ele>89</ele>
        <time>2016-06-24T12:37:09Z</time>
      </trkpt>
      <trkpt lat="45.26122" lon="0.35934">
        <ele>87</ele>
        <time>2016-06-24T12:37:13Z</time>
      </trkpt>
      <trkpt lat="45.26125" lon="0.35941">
        <ele>84</ele>
        <time>2016-06-24T12:37:17Z</time>
      </trkpt>
      <trkpt lat="45.26129" lon="0.35946">
        <ele>81</ele>
        <time>2016-06-24T12:37:22Z</time>
      </trkpt>
      <trkpt lat="45.26133" lon="0.35953">
        <ele>82</ele>
        <time>2016-06-24T12:37:26Z</time>
      </trkpt>
      <trkpt lat="45.26136" lon="0.35959">
        <ele>78</ele>
        <time>2016-06-24T12:37:30Z</time>
      </trkpt>
      <trkpt lat="45.2614" lon="0.35964">
        <ele>76</ele>
        <time>2016-06-24T12:37:34Z</time>
      </trkpt>
      <trkpt lat="45.26144" lon="0.35971">
        <ele>74</ele>
        <time>2016-06-24T12:37:39Z</time>
      </trkpt>
      <trkpt lat="45.26147" lon="0.35976">
        <ele>73</ele>
        <time>2016-06-24T12:37:43Z</time>
      </trkpt>
      <trkpt lat="45.26152" lon="0.35982">
        <ele>73</ele>
        <time>2016-06-24T12:37:47Z</time>
      </trkpt>
      <trkpt lat="45.26156" lon="0.3599">
        <ele>73</ele>
        <time>2016-06-24T12:37:52Z</time>
      </trkpt>
      <trkpt lat="45.26161" lon="0.35996">
        <ele>73</ele>
        <time>2016-06-24T12:37:56Z</time>
      </trkpt>
      <trkpt lat="45.26166" lon="0.36002">
        <ele>75</ele>
        <time>2016-06-24T12:38:01Z</time>
      </trkpt>
      <trkpt lat="45.26169" lon="0.36007">
        <ele>74</ele>
        <time>2016-06-24T12:38:06Z</time>
      </trkpt>
      <trkpt lat="45.26174" lon="0.36013">
        <ele>74</ele>
        <time>2016-06-24T12:38:11Z</time>
      </trkpt>
      <trkpt lat="45.26177" lon="0.36018">
        <ele>73</ele>
        <time>2016-06-24T12:38:16Z</time>
      </trkpt>
      <trkpt lat="45.26181" lon="0.3602">
        <ele>77</ele>
        <time>2016-06-24T12:38:21Z</time>
      </trkpt>
      <trkpt lat="45.26186" lon="0.36026">
        <ele>78</ele>
        <time>2016-06-24T12:38:26Z</time>
      </trkpt>
      <trkpt lat="45.2619" lon="0.36033">
        <ele>78</ele>
        <time>2016-06-24T12:38:30Z</time>
      </trkpt>
      <trkpt lat="45.26195" lon="0.36038">
        <ele>77</ele>
        <time>2016-06-24T12:38:34Z</time>
      </trkpt>
      <trkpt lat="45.26201" lon="0.36043">
        <ele>75</ele>
        <time>2016-06-24T12:38:39Z</time>
      </trkpt>
      <trkpt lat="45.26204" lon="0.36048">
        <ele>75</ele>
        <time>2016-06-24T12:38:43Z</time>
      </trkpt>
      <trkpt lat="45.26209" lon="0.36053">
        <ele>75</ele>
        <time>2016-06-24T12:38:48Z</time>
      </trkpt>
      <trkpt lat="45.26214" lon="0.36056">
        <ele>76</ele>
        <time>2016-06-24T12:38:52Z</time>
      </trkpt>
      <trkpt lat="45.26214" lon="0.36057">
        <ele>75</ele>
        <time>2016-06-24T12:39:04Z</time>
      </trkpt>
      <trkpt lat="45.26203" lon="0.36063">
        <ele>76</ele>
        <time>2016-06-24T12:39:08Z</time>
      </trkpt>
      <trkpt lat="45.26207" lon="0.36062">
        <ele>71</ele>
        <time>2016-06-24T12:39:23Z</time>
      </trkpt>
      <trkpt lat="45.26211" lon="0.36068">
        <ele>70</ele>
        <time>2016-06-24T12:39:27Z</time>
      </trkpt>
      <trkpt lat="45.26213" lon="0.36073">
        <ele>72</ele>
        <time>2016-06-24T12:39:32Z</time>
      </trkpt>
      <trkpt lat="45.26216" lon="0.3608">
        <ele>73</ele>
        <time>2016-06-24T12:39:36Z</time>
      </trkpt>
      <trkpt lat="45.2622" lon="0.36079">
        <ele>77</ele>
        <time>2016-06-24T12:39:43Z</time>
      </trkpt>
      <trkpt lat="45.2622" lon="0.36084">
        <ele>74</ele>
        <time>2016-06-24T12:39:53Z</time>
      </trkpt>
      <trkpt lat="45.26222" lon="0.36092">
        <ele>75</ele>
        <time>2016-06-24T12:39:57Z</time>
      </trkpt>
      <trkpt lat="45.26224" lon="0.36101">
        <ele>75</ele>
        <time>2016-06-24T12:40:01Z</time>
      </trkpt>
      <trkpt lat="45.26224" lon="0.36109">
        <ele>75</ele>
        <time>2016-06-24T12:40:05Z</time>
      </trkpt>
      <trkpt lat="45.26226" lon="0.36117">
        <ele>74</ele>
        <time>2016-06-24T12:40:09Z</time>
      </trkpt>
      <trkpt lat="45.26229" lon="0.36125">
        <ele>75</ele>
        <time>2016-06-24T12:40:14Z</time>
      </trkpt>
      <trkpt lat="45.26232" lon="0.36132">
        <ele>74</ele>
        <time>2016-06-24T12:40:18Z</time>
      </trkpt>
      <trkpt lat="45.26235" lon="0.36138">
        <ele>75</ele>
        <time>2016-06-24T12:40:23Z</time>
      </trkpt>
      <trkpt lat="45.26238" lon="0.36144">
        <ele>76</ele>
        <time>2016-06-24T12:40:27Z</time>
      </trkpt>
      <trkpt lat="45.26243" lon="0.36152">
        <ele>76</ele>
        <time>2016-06-24T12:40:32Z</time>
      </trkpt>
      <trkpt lat="45.26246" lon="0.36158">
        <ele>74</ele>
        <time>2016-06-24T12:40:36Z</time>
      </trkpt>
      <trkpt lat="45.2625" lon="0.36163">
        <ele>77</ele>
        <time>2016-06-24T12:40:40Z</time>
      </trkpt>
      <trkpt lat="45.26252" lon="0.36169">
        <ele>79</ele>
        <time>2016-06-24T12:40:44Z</time>
      </trkpt>
      <trkpt lat="45.26254" lon="0.36174">
        <ele>81</ele>
        <time>2016-06-24T12:40:50Z</time>
      </trkpt>
      <trkpt lat="45.26256" lon="0.36179">
        <ele>80</ele>
        <time>2016-06-24T12:40:54Z</time>
      </trkpt>
      <trkpt lat="45.26259" lon="0.36186">
        <ele>80</ele>
        <time>2016-06-24T12:40:58Z</time>
      </trkpt>
      <trkpt lat="45.26262" lon="0.36193">
        <ele>80</ele>
        <time>2016-06-24T12:41:02Z</time>
      </trkpt>
      <trkpt lat="45.26263" lon="0.36197">
        <ele>79</ele>
        <time>2016-06-24T12:41:10Z</time>
      </trkpt>
      <trkpt lat="45.26267" lon="0.36202">
        <ele>82</ele>
        <time>2016-06-24T12:41:14Z</time>
      </trkpt>
      <trkpt lat="45.2627" lon="0.36208">
        <ele>81</ele>
        <time>2016-06-24T12:41:18Z</time>
      </trkpt>
      <trkpt lat="45.26272" lon="0.36213">
        <ele>82</ele>
        <time>2016-06-24T12:41:22Z</time>
      </trkpt>
      <trkpt lat="45.26276" lon="0.36221">
        <ele>80</ele>
        <time>2016-06-24T12:41:26Z</time>
      </trkpt>
      <trkpt lat="45.26279" lon="0.36228">
        <ele>78</ele>
        <time>2016-06-24T12:41:31Z</time>
      </trkpt>
      <trkpt lat="45.26281" lon="0.36233">
        <ele>80</ele>
        <time>2016-06-24T12:41:35Z</time>
      </trkpt>
      <trkpt lat="45.26283" lon="0.36238">
        <ele>79</ele>
        <time>2016-06-24T12:41:42Z</time>
      </trkpt>
      <trkpt lat="45.26286" lon="0.36243">
        <ele>81</ele>
        <time>2016-06-24T12:41:46Z</time>
      </trkpt>
      <trkpt lat="45.26288" lon="0.36252">
        <ele>84</ele>
        <time>2016-06-24T12:41:51Z</time>
      </trkpt>
      <trkpt lat="45.2629" lon="0.36258">
        <ele>83</ele>
        <time>2016-06-24T12:41:55Z</time>
      </trkpt>
      <trkpt lat="45.26292" lon="0.36264">
        <ele>84</ele>
        <time>2016-06-24T12:41:59Z</time>
      </trkpt>
      <trkpt lat="45.26294" lon="0.36271">
        <ele>85</ele>
        <time>2016-06-24T12:42:04Z</time>
      </trkpt>
      <trkpt lat="45.26294" lon="0.36277">
        <ele>84</ele>
        <time>2016-06-24T12:42:15Z</time>
      </trkpt>
      <trkpt lat="45.26302" lon="0.36275">
        <ele>84</ele>
        <time>2016-06-24T12:42:20Z</time>
      </trkpt>
      <trkpt lat="45.26307" lon="0.36271">
        <ele>86</ele>
        <time>2016-06-24T12:42:24Z</time>
      </trkpt>
      <trkpt lat="45.2631" lon="0.36267">
        <ele>89</ele>
        <time>2016-06-24T12:42:29Z</time>
      </trkpt>
      <trkpt lat="45.26314" lon="0.36268">
        <ele>90</ele>
        <time>2016-06-24T12:42:36Z</time>
      </trkpt>
      <trkpt lat="45.26316" lon="0.36272">
        <ele>102</ele>
        <time>2016-06-24T12:43:17Z</time>
      </trkpt>
      <trkpt lat="45.26328" lon="0.36249">
        <ele>107</ele>
        <time>2016-06-24T12:43:22Z</time>
      </trkpt>
      <trkpt lat="45.2633" lon="0.36257">
        <ele>108</ele>
        <time>2016-06-24T12:43:27Z</time>
      </trkpt>
      <trkpt lat="45.26335" lon="0.36263">
        <ele>107</ele>
        <time>2016-06-24T12:43:31Z</time>
      </trkpt>
      <trkpt lat="45.2634" lon="0.36265">
        <ele>106</ele>
        <time>2016-06-24T12:43:35Z</time>
      </trkpt>
      <trkpt lat="45.26346" lon="0.36276">
        <ele>98</ele>
        <time>2016-06-24T12:43:40Z</time>
      </trkpt>
      <trkpt lat="45.26349" lon="0.36285">
        <ele>95</ele>
        <time>2016-06-24T12:43:44Z</time>
      </trkpt>
      <trkpt lat="45.26355" lon="0.3629">
        <ele>92</ele>
        <time>2016-06-24T12:43:49Z</time>
      </trkpt>
      <trkpt lat="45.26362" lon="0.36295">
        <ele>90</ele>
        <time>2016-06-24T12:43:54Z</time>
      </trkpt>
      <trkpt lat="45.26364" lon="0.36299">
        <ele>90</ele>
        <time>2016-06-24T12:43:59Z</time>
      </trkpt>
      <trkpt lat="45.26368" lon="0.36307">
        <ele>88</ele>
        <time>2016-06-24T12:44:03Z</time>
      </trkpt>
      <trkpt lat="45.26372" lon="0.36315">
        <ele>87</ele>
        <time>2016-06-24T12:44:08Z</time>
      </trkpt>
      <trkpt lat="45.26376" lon="0.36323">
        <ele>85</ele>
        <time>2016-06-24T12:44:13Z</time>
      </trkpt>
      <trkpt lat="45.26381" lon="0.36329">
        <ele>85</ele>
        <time>2016-06-24T12:44:17Z</time>
      </trkpt>
      <trkpt lat="45.26385" lon="0.36334">
        <ele>85</ele>
        <time>2016-06-24T12:44:21Z</time>
      </trkpt>
      <trkpt lat="45.26389" lon="0.36339">
        <ele>87</ele>
        <time>2016-06-24T12:44:25Z</time>
      </trkpt>
      <trkpt lat="45.26391" lon="0.36346">
        <ele>90</ele>
        <time>2016-06-24T12:44:30Z</time>
      </trkpt>
      <trkpt lat="45.26393" lon="0.36353">
        <ele>91</ele>
        <time>2016-06-24T12:44:34Z</time>
      </trkpt>
      <trkpt lat="45.26395" lon="0.36359">
        <ele>91</ele>
        <time>2016-06-24T12:44:38Z</time>
      </trkpt>
      <trkpt lat="45.26396" lon="0.36367">
        <ele>88</ele>
        <time>2016-06-24T12:44:42Z</time>
      </trkpt>
      <trkpt lat="45.26396" lon="0.36374">
        <ele>88</ele>
        <time>2016-06-24T12:44:46Z</time>
      </trkpt>
      <trkpt lat="45.26395" lon="0.36379">
        <ele>86</ele>
        <time>2016-06-24T12:44:50Z</time>
      </trkpt>
      <trkpt lat="45.26396" lon="0.36383">
        <ele>86</ele>
        <time>2016-06-24T12:44:54Z</time>
      </trkpt>
      <trkpt lat="45.26399" lon="0.36391">
        <ele>89</ele>
        <time>2016-06-24T12:44:59Z</time>
      </trkpt>
      <trkpt lat="45.264" lon="0.36398">
        <ele>92</ele>
        <time>2016-06-24T12:45:03Z</time>
      </trkpt>
      <trkpt lat="45.26404" lon="0.36409">
        <ele>89</ele>
        <time>2016-06-24T12:45:08Z</time>
      </trkpt>
      <trkpt lat="45.26404" lon="0.36415">
        <ele>88</ele>
        <time>2016-06-24T12:45:12Z</time>
      </trkpt>
      <trkpt lat="45.26405" lon="0.36424">
        <ele>90</ele>
        <time>2016-06-24T12:45:17Z</time>
      </trkpt>
      <trkpt lat="45.26406" lon="0.36432">
        <ele>89</ele>
        <time>2016-06-24T12:45:21Z</time>
      </trkpt>
      <trkpt lat="45.26409" lon="0.36438">
        <ele>89</ele>
        <time>2016-06-24T12:45:25Z</time>
      </trkpt>
      <trkpt lat="45.2641" lon="0.36445">
        <ele>87</ele>
        <time>2016-06-24T12:45:29Z</time>
      </trkpt>
      <trkpt lat="45.26412" lon="0.36457">
        <ele>86</ele>
        <time>2016-06-24T12:45:34Z</time>
      </trkpt>
      <trkpt lat="45.26413" lon="0.36463">
        <ele>88</ele>
        <time>2016-06-24T12:45:38Z</time>
      </trkpt>
      <trkpt lat="45.26414" lon="0.36471">
        <ele>92</ele>
        <time>2016-06-24T12:45:43Z</time>
      </trkpt>
      <trkpt lat="45.26414" lon="0.36476">
        <ele>94</ele>
        <time>2016-06-24T12:45:47Z</time>
      </trkpt>
      <trkpt lat="45.26417" lon="0.36484">
        <ele>93</ele>
        <time>2016-06-24T12:45:52Z</time>
      </trkpt>
      <trkpt lat="45.2642" lon="0.36491">
        <ele>94</ele>
        <time>2016-06-24T12:45:57Z</time>
      </trkpt>
      <trkpt lat="45.26424" lon="0.36494">
        <ele>94</ele>
        <time>2016-06-24T12:46:03Z</time>
      </trkpt>
      <trkpt lat="45.26425" lon="0.365">
        <ele>95</ele>
        <time>2016-06-24T12:46:12Z</time>
      </trkpt>
      <trkpt lat="45.26427" lon="0.36506">
        <ele>95</ele>
        <time>2016-06-24T12:46:16Z</time>
      </trkpt>
      <trkpt lat="45.26431" lon="0.36512">
        <ele>95</ele>
        <time>2016-06-24T12:46:21Z</time>
      </trkpt>
      <trkpt lat="45.26432" lon="0.36516">
        <ele>93</ele>
        <time>2016-06-24T12:46:25Z</time>
      </trkpt>
      <trkpt lat="45.26436" lon="0.3652">
        <ele>96</ele>
        <time>2016-06-24T12:46:30Z</time>
      </trkpt>
      <trkpt lat="45.26442" lon="0.3652">
        <ele>97</ele>
        <time>2016-06-24T12:46:34Z</time>
      </trkpt>
      <trkpt lat="45.26449" lon="0.36524">
        <ele>98</ele>
        <time>2016-06-24T12:46:39Z</time>
      </trkpt>
      <trkpt lat="45.26455" lon="0.36527">
        <ele>98</ele>
        <time>2016-06-24T12:46:43Z</time>
      </trkpt>
      <trkpt lat="45.26457" lon="0.36533">
        <ele>100</ele>
        <time>2016-06-24T12:46:48Z</time>
      </trkpt>
      <trkpt lat="45.26459" lon="0.36538">
        <ele>104</ele>
        <time>2016-06-24T12:46:53Z</time>
      </trkpt>
      <trkpt lat="45.26466" lon="0.36531">
        <ele>103</ele>
        <time>2016-06-24T12:46:58Z</time>
      </trkpt>
      <trkpt lat="45.26471" lon="0.36531">
        <ele>105</ele>
        <time>2016-06-24T12:47:03Z</time>
      </trkpt>
      <trkpt lat="45.26476" lon="0.36529">
        <ele>105</ele>
        <time>2016-06-24T12:47:07Z</time>
      </trkpt>
      <trkpt lat="45.26481" lon="0.36529">
        <ele>107</ele>
        <time>2016-06-24T12:47:11Z</time>
      </trkpt>
      <trkpt lat="45.26488" lon="0.36528">
        <ele>108</ele>
        <time>2016-06-24T12:47:16Z</time>
      </trkpt>
      <trkpt lat="45.26495" lon="0.36521">
        <ele>105</ele>
        <time>2016-06-24T12:47:20Z</time>
      </trkpt>
      <trkpt lat="45.26501" lon="0.36517">
        <ele>106</ele>
        <time>2016-06-24T12:47:25Z</time>
      </trkpt>
      <trkpt lat="45.26505" lon="0.36514">
        <ele>106</ele>
        <time>2016-06-24T12:47:29Z</time>
      </trkpt>
      <trkpt lat="45.26512" lon="0.3651">
        <ele>107</ele>
        <time>2016-06-24T12:47:34Z</time>
      </trkpt>
      <trkpt lat="45.26518" lon="0.36507">
        <ele>108</ele>
        <time>2016-06-24T12:47:38Z</time>
      </trkpt>
      <trkpt lat="45.26524" lon="0.36504">
        <ele>108</ele>
        <time>2016-06-24T12:47:43Z</time>
      </trkpt>
      <trkpt lat="45.26529" lon="0.36499">
        <ele>108</ele>
        <time>2016-06-24T12:47:47Z</time>
      </trkpt>
      <trkpt lat="45.26537" lon="0.36492">
        <ele>107</ele>
        <time>2016-06-24T12:47:52Z</time>
      </trkpt>
      <trkpt lat="45.2654" lon="0.36491">
        <ele>108</ele>
        <time>2016-06-24T12:47:56Z</time>
      </trkpt>
      <trkpt lat="45.26546" lon="0.36484">
        <ele>107</ele>
        <time>2016-06-24T12:48:01Z</time>
      </trkpt>
      <trkpt lat="45.2655" lon="0.36481">
        <ele>107</ele>
        <time>2016-06-24T12:48:05Z</time>
      </trkpt>
      <trkpt lat="45.26555" lon="0.36479">
        <ele>108</ele>
        <time>2016-06-24T12:48:10Z</time>
      </trkpt>
      <trkpt lat="45.26562" lon="0.36472">
        <ele>108</ele>
        <time>2016-06-24T12:48:15Z</time>
      </trkpt>
      <trkpt lat="45.26566" lon="0.36469">
        <ele>109</ele>
        <time>2016-06-24T12:48:19Z</time>
      </trkpt>
      <trkpt lat="45.26569" lon="0.36468">
        <ele>112</ele>
        <time>2016-06-24T12:48:26Z</time>
      </trkpt>
      <trkpt lat="45.26575" lon="0.36462">
        <ele>112</ele>
        <time>2016-06-24T12:48:31Z</time>
      </trkpt>
      <trkpt lat="45.26579" lon="0.36463">
        <ele>113</ele>
        <time>2016-06-24T12:48:36Z</time>
      </trkpt>
      <trkpt lat="45.26586" lon="0.36458">
        <ele>112</ele>
        <time>2016-06-24T12:48:41Z</time>
      </trkpt>
      <trkpt lat="45.26592" lon="0.36454">
        <ele>113</ele>
        <time>2016-06-24T12:48:46Z</time>
      </trkpt>
      <trkpt lat="45.26596" lon="0.36454">
        <ele>115</ele>
        <time>2016-06-24T12:48:51Z</time>
      </trkpt>
      <trkpt lat="45.266" lon="0.36451">
        <ele>116</ele>
        <time>2016-06-24T12:48:55Z</time>
      </trkpt>
      <trkpt lat="45.26605" lon="0.3645">
        <ele>117</ele>
        <time>2016-06-24T12:48:59Z</time>
      </trkpt>
      <trkpt lat="45.26609" lon="0.36449">
        <ele>118</ele>
        <time>2016-06-24T12:49:04Z</time>
      </trkpt>
      <trkpt lat="45.26612" lon="0.3645">
        <ele>120</ele>
        <time>2016-06-24T12:49:08Z</time>
      </trkpt>
      <trkpt lat="45.26619" lon="0.36448">
        <ele>119</ele>
        <time>2016-06-24T12:49:13Z</time>
      </trkpt>
      <trkpt lat="45.26625" lon="0.3644">
        <ele>114</ele>
        <time>2016-06-24T12:49:17Z</time>
      </trkpt>
      <trkpt lat="45.26634" lon="0.36438">
        <ele>113</ele>
        <time>2016-06-24T12:49:22Z</time>
      </trkpt>
      <trkpt lat="45.26637" lon="0.36436">
        <ele>114</ele>
        <time>2016-06-24T12:49:26Z</time>
      </trkpt>
      <trkpt lat="45.26641" lon="0.36435">
        <ele>111</ele>
        <time>2016-06-24T12:49:31Z</time>
      </trkpt>
      <trkpt lat="45.26647" lon="0.36436">
        <ele>111</ele>
        <time>2016-06-24T12:49:36Z</time>
      </trkpt>
      <trkpt lat="45.26651" lon="0.36436">
        <ele>111</ele>
        <time>2016-06-24T12:49:40Z</time>
      </trkpt>
      <trkpt lat="45.26657" lon="0.36438">
        <ele>113</ele>
        <time>2016-06-24T12:49:44Z</time>
      </trkpt>
      <trkpt lat="45.26664" lon="0.36439">
        <ele>113</ele>
        <time>2016-06-24T12:49:49Z</time>
      </trkpt>
      <trkpt lat="45.26668" lon="0.3644">
        <ele>115</ele>
        <time>2016-06-24T12:49:53Z</time>
      </trkpt>
      <trkpt lat="45.26674" lon="0.36442">
        <ele>115</ele>
        <time>2016-06-24T12:49:58Z</time>
      </trkpt>
      <trkpt lat="45.2668" lon="0.36442">
        <ele>115</ele>
        <time>2016-06-24T12:50:02Z</time>
      </trkpt>
      <trkpt lat="45.26685" lon="0.36439">
        <ele>114</ele>
        <time>2016-06-24T12:50:07Z</time>
      </trkpt>
      <trkpt lat="45.26694" lon="0.36441">
        <ele>115</ele>
        <time>2016-06-24T12:50:12Z</time>
      </trkpt>
      <trkpt lat="45.26697" lon="0.3644">
        <ele>115</ele>
        <time>2016-06-24T12:50:16Z</time>
      </trkpt>
      <trkpt lat="45.26704" lon="0.36439">
        <ele>117</ele>
        <time>2016-06-24T12:50:21Z</time>
      </trkpt>
      <trkpt lat="45.26711" lon="0.36436">
        <ele>118</ele>
        <time>2016-06-24T12:50:25Z</time>
      </trkpt>
      <trkpt lat="45.26716" lon="0.36436">
        <ele>117</ele>
        <time>2016-06-24T12:50:29Z</time>
      </trkpt>
      <trkpt lat="45.26721" lon="0.36433">
        <ele>115</ele>
        <time>2016-06-24T12:50:33Z</time>
      </trkpt>
      <trkpt lat="45.26727" lon="0.36434">
        <ele>119</ele>
        <time>2016-06-24T12:50:38Z</time>
      </trkpt>
      <trkpt lat="45.26731" lon="0.36437">
        <ele>122</ele>
        <time>2016-06-24T12:50:43Z</time>
      </trkpt>
      <trkpt lat="45.26732" lon="0.36442">
        <ele>123</ele>
        <time>2016-06-24T12:50:47Z</time>
      </trkpt>
      <trkpt lat="45.26737" lon="0.36447">
        <ele>120</ele>
        <time>2016-06-24T12:50:51Z</time>
      </trkpt>
      <trkpt lat="45.26742" lon="0.36442">
        <ele>120</ele>
        <time>2016-06-24T12:50:55Z</time>
      </trkpt>
      <trkpt lat="45.26747" lon="0.36443">
        <ele>119</ele>
        <time>2016-06-24T12:51:00Z</time>
      </trkpt>
      <trkpt lat="45.26752" lon="0.36444">
        <ele>119</ele>
        <time>2016-06-24T12:51:04Z</time>
      </trkpt>
      <trkpt lat="45.26755" lon="0.36448">
        <ele>124</ele>
        <time>2016-06-24T12:51:16Z</time>
      </trkpt>
      <trkpt lat="45.26754" lon="0.36451">
        <ele>124</ele>
        <time>2016-06-24T12:51:24Z</time>
      </trkpt>
      <trkpt lat="45.26758" lon="0.36454">
        <ele>125</ele>
        <time>2016-06-24T12:51:32Z</time>
      </trkpt>
      <trkpt lat="45.26759" lon="0.36448">
        <ele>122</ele>
        <time>2016-06-24T12:51:37Z</time>
      </trkpt>
      <trkpt lat="45.2676" lon="0.36442">
        <ele>120</ele>
        <time>2016-06-24T12:51:41Z</time>
      </trkpt>
      <trkpt lat="45.26763" lon="0.36434">
        <ele>120</ele>
        <time>2016-06-24T12:51:45Z</time>
      </trkpt>
      <trkpt lat="45.26765" lon="0.36418">
        <ele>117</ele>
        <time>2016-06-24T12:51:50Z</time>
      </trkpt>
      <trkpt lat="45.26766" lon="0.3641">
        <ele>116</ele>
        <time>2016-06-24T12:51:54Z</time>
      </trkpt>
      <trkpt lat="45.26771" lon="0.36403">
        <ele>116</ele>
        <time>2016-06-24T12:51:59Z</time>
      </trkpt>
      <trkpt lat="45.2677" lon="0.36398">
        <ele>116</ele>
        <time>2016-06-24T12:52:03Z</time>
      </trkpt>
      <trkpt lat="45.26769" lon="0.36386">
        <ele>114</ele>
        <time>2016-06-24T12:52:07Z</time>
      </trkpt>
      <trkpt lat="45.26771" lon="0.36381">
        <ele>114</ele>
        <time>2016-06-24T12:52:11Z</time>
      </trkpt>
      <trkpt lat="45.26779" lon="0.36382">
        <ele>115</ele>
        <time>2016-06-24T12:52:16Z</time>
      </trkpt>
      <trkpt lat="45.26783" lon="0.36381">
        <ele>115</ele>
        <time>2016-06-24T12:52:21Z</time>
      </trkpt>
      <trkpt lat="45.2679" lon="0.3638">
        <ele>114</ele>
        <time>2016-06-24T12:52:26Z</time>
      </trkpt>
      <trkpt lat="45.26793" lon="0.36376">
        <ele>115</ele>
        <time>2016-06-24T12:52:30Z</time>
      </trkpt>
      <trkpt lat="45.26798" lon="0.36377">
        <ele>115</ele>
        <time>2016-06-24T12:52:34Z</time>
      </trkpt>
      <trkpt lat="45.26804" lon="0.36377">
        <ele>114</ele>
        <time>2016-06-24T12:52:39Z</time>
      </trkpt>
      <trkpt lat="45.26809" lon="0.36378">
        <ele>112</ele>
        <time>2016-06-24T12:52:43Z</time>
      </trkpt>
      <trkpt lat="45.26814" lon="0.36378">
        <ele>113</ele>
        <time>2016-06-24T12:52:48Z</time>
      </trkpt>
      <trkpt lat="45.2682" lon="0.36376">
        <ele>113</ele>
        <time>2016-06-24T12:52:52Z</time>
      </trkpt>
      <trkpt lat="45.26825" lon="0.36376">
        <ele>114</ele>
        <time>2016-06-24T12:52:57Z</time>
      </trkpt>
      <trkpt lat="45.26829" lon="0.36374">
        <ele>115</ele>
        <time>2016-06-24T12:53:03Z</time>
      </trkpt>
      <trkpt lat="45.26835" lon="0.36373">
        <ele>115</ele>
        <time>2016-06-24T12:53:08Z</time>
      </trkpt>
      <trkpt lat="45.2684" lon="0.36373">
        <ele>115</ele>
        <time>2016-06-24T12:53:12Z</time>
      </trkpt>
      <trkpt lat="45.26846" lon="0.36369">
        <ele>116</ele>
        <time>2016-06-24T12:53:16Z</time>
      </trkpt>
      <trkpt lat="45.26848" lon="0.3636">
        <ele>114</ele>
        <time>2016-06-24T12:53:20Z</time>
      </trkpt>
      <trkpt lat="45.26848" lon="0.36354">
        <ele>114</ele>
        <time>2016-06-24T12:53:24Z</time>
      </trkpt>
      <trkpt lat="45.26848" lon="0.36346">
        <ele>114</ele>
        <time>2016-06-24T12:53:28Z</time>
      </trkpt>
      <trkpt lat="45.26849" lon="0.36338">
        <ele>114</ele>
        <time>2016-06-24T12:53:32Z</time>
      </trkpt>
      <trkpt lat="45.26849" lon="0.3633">
        <ele>114</ele>
        <time>2016-06-24T12:53:36Z</time>
      </trkpt>
      <trkpt lat="45.2685" lon="0.36323">
        <ele>113</ele>
        <time>2016-06-24T12:53:40Z</time>
      </trkpt>
      <trkpt lat="45.26851" lon="0.36316">
        <ele>113</ele>
        <time>2016-06-24T12:53:44Z</time>
      </trkpt>
      <trkpt lat="45.26852" lon="0.36309">
        <ele>112</ele>
        <time>2016-06-24T12:53:48Z</time>
      </trkpt>
      <trkpt lat="45.26854" lon="0.36306">
        <ele>114</ele>
        <time>2016-06-24T12:53:55Z</time>
      </trkpt>
      <trkpt lat="45.26854" lon="0.36295">
        <ele>113</ele>
        <time>2016-06-24T12:54:00Z</time>
      </trkpt>
      <trkpt lat="45.26851" lon="0.36291">
        <ele>111</ele>
        <time>2016-06-24T12:54:10Z</time>
      </trkpt>
      <trkpt lat="45.2685" lon="0.36287">
        <ele>113</ele>
        <time>2016-06-24T12:54:16Z</time>
      </trkpt>
      <trkpt lat="45.2684" lon="0.36283">
        <ele>108</ele>
        <time>2016-06-24T12:54:21Z</time>
      </trkpt>
      <trkpt lat="45.26836" lon="0.36279">
        <ele>108</ele>
        <time>2016-06-24T12:54:25Z</time>
      </trkpt>
      <trkpt lat="45.26836" lon="0.36273">
        <ele>107</ele>
        <time>2016-06-24T12:54:29Z</time>
      </trkpt>
      <trkpt lat="45.26837" lon="0.36267">
        <ele>107</ele>
        <time>2016-06-24T12:54:33Z</time>
      </trkpt>
      <trkpt lat="45.26842" lon="0.36263">
        <ele>107</ele>
        <time>2016-06-24T12:54:38Z</time>
      </trkpt>
      <trkpt lat="45.26844" lon="0.36254">
        <ele>109</ele>
        <time>2016-06-24T12:54:43Z</time>
      </trkpt>
      <trkpt lat="45.26843" lon="0.36245">
        <ele>108</ele>
        <time>2016-06-24T12:54:47Z</time>
      </trkpt>
      <trkpt lat="45.26835" lon="0.36242">
        <ele>109</ele>
        <time>2016-06-24T12:54:51Z</time>
      </trkpt>
      <trkpt lat="45.26833" lon="0.36237">
        <ele>108</ele>
        <time>2016-06-24T12:54:55Z</time>
      </trkpt>
      <trkpt lat="45.26829" lon="0.36236">
        <ele>106</ele>
        <time>2016-06-24T12:55:00Z</time>
      </trkpt>
      <trkpt lat="45.26819" lon="0.36229">
        <ele>103</ele>
        <time>2016-06-24T12:55:05Z</time>
      </trkpt>
      <trkpt lat="45.26811" lon="0.36224">
        <ele>101</ele>
        <time>2016-06-24T12:55:09Z</time>
      </trkpt>
      <trkpt lat="45.26806" lon="0.3622">
        <ele>103</ele>
        <time>2016-06-24T12:55:13Z</time>
      </trkpt>
      <trkpt lat="45.26802" lon="0.36221">
        <ele>103</ele>
        <time>2016-06-24T12:55:24Z</time>
      </trkpt>
      <trkpt lat="45.26795" lon="0.36218">
        <ele>102</ele>
        <time>2016-06-24T12:55:28Z</time>
      </trkpt>
      <trkpt lat="45.26788" lon="0.36212">
        <ele>104</ele>
        <time>2016-06-24T12:55:33Z</time>
      </trkpt>
      <trkpt lat="45.26783" lon="0.36211">
        <ele>103</ele>
        <time>2016-06-24T12:55:37Z</time>
      </trkpt>
      <trkpt lat="45.26776" lon="0.36208">
        <ele>104</ele>
        <time>2016-06-24T12:55:42Z</time>
      </trkpt>
      <trkpt lat="45.26771" lon="0.36208">
        <ele>104</ele>
        <time>2016-06-24T12:55:46Z</time>
      </trkpt>
      <trkpt lat="45.26765" lon="0.36204">
        <ele>106</ele>
        <time>2016-06-24T12:55:50Z</time>
      </trkpt>
      <trkpt lat="45.26759" lon="0.36203">
        <ele>105</ele>
        <time>2016-06-24T12:55:54Z</time>
      </trkpt>
      <trkpt lat="45.26754" lon="0.36202">
        <ele>105</ele>
        <time>2016-06-24T12:55:58Z</time>
      </trkpt>
      <trkpt lat="45.26748" lon="0.36205">
        <ele>104</ele>
        <time>2016-06-24T12:56:03Z</time>
      </trkpt>
      <trkpt lat="45.26742" lon="0.36207">
        <ele>104</ele>
        <time>2016-06-24T12:56:08Z</time>
      </trkpt>
      <trkpt lat="45.26737" lon="0.362">
        <ele>103</ele>
        <time>2016-06-24T12:56:12Z</time>
      </trkpt>
      <trkpt lat="45.26732" lon="0.36203">
        <ele>101</ele>
        <time>2016-06-24T12:56:17Z</time>
      </trkpt>
      <trkpt lat="45.26727" lon="0.36205">
        <ele>101</ele>
        <time>2016-06-24T12:56:22Z</time>
      </trkpt>
      <trkpt lat="45.26719" lon="0.36199">
        <ele>103</ele>
        <time>2016-06-24T12:56:27Z</time>
      </trkpt>
      <trkpt lat="45.26715" lon="0.362">
        <ele>101</ele>
        <time>2016-06-24T12:56:31Z</time>
      </trkpt>
      <trkpt lat="45.2671" lon="0.36201">
        <ele>99</ele>
        <time>2016-06-24T12:56:35Z</time>
      </trkpt>
      <trkpt lat="45.26706" lon="0.36199">
        <ele>96</ele>
        <time>2016-06-24T12:57:09Z</time>
      </trkpt>
      <trkpt lat="45.26702" lon="0.36197">
        <ele>99</ele>
        <time>2016-06-24T12:57:18Z</time>
      </trkpt>
      <trkpt lat="45.26699" lon="0.36194">
        <ele>101</ele>
        <time>2016-06-24T12:57:24Z</time>
      </trkpt>
      <trkpt lat="45.26687" lon="0.36194">
        <ele>96</ele>
        <time>2016-06-24T12:57:29Z</time>
      </trkpt>
      <trkpt lat="45.26683" lon="0.36194">
        <ele>96</ele>
        <time>2016-06-24T12:57:33Z</time>
      </trkpt>
      <trkpt lat="45.26676" lon="0.36187">
        <ele>95</ele>
        <time>2016-06-24T12:57:37Z</time>
      </trkpt>
      <trkpt lat="45.26672" lon="0.36183">
        <ele>97</ele>
        <time>2016-06-24T12:57:41Z</time>
      </trkpt>
      <trkpt lat="45.26667" lon="0.36182">
        <ele>95</ele>
        <time>2016-06-24T12:57:45Z</time>
      </trkpt>
      <trkpt lat="45.26662" lon="0.3618">
        <ele>94</ele>
        <time>2016-06-24T12:57:50Z</time>
      </trkpt>
      <trkpt lat="45.26654" lon="0.36177">
        <ele>94</ele>
        <time>2016-06-24T12:57:55Z</time>
      </trkpt>
      <trkpt lat="45.26649" lon="0.36173">
        <ele>95</ele>
        <time>2016-06-24T12:57:59Z</time>
      </trkpt>
      <trkpt lat="45.26644" lon="0.36172">
        <ele>94</ele>
        <time>2016-06-24T12:58:03Z</time>
      </trkpt>
      <trkpt lat="45.26637" lon="0.36173">
        <ele>92</ele>
        <time>2016-06-24T12:58:07Z</time>
      </trkpt>
      <trkpt lat="45.26632" lon="0.3617">
        <ele>93</ele>
        <time>2016-06-24T12:58:11Z</time>
      </trkpt>
      <trkpt lat="45.26628" lon="0.36164">
        <ele>93</ele>
        <time>2016-06-24T12:58:15Z</time>
      </trkpt>
      <trkpt lat="45.26623" lon="0.36161">
        <ele>93</ele>
        <time>2016-06-24T12:58:19Z</time>
      </trkpt>
      <trkpt lat="45.2662" lon="0.3616">
        <ele>94</ele>
        <time>2016-06-24T12:58:23Z</time>
      </trkpt>
      <trkpt lat="45.26613" lon="0.36154">
        <ele>94</ele>
        <time>2016-06-24T12:58:28Z</time>
      </trkpt>
      <trkpt lat="45.26608" lon="0.36151">
        <ele>95</ele>
        <time>2016-06-24T12:58:32Z</time>
      </trkpt>
      <trkpt lat="45.26604" lon="0.36156">
        <ele>93</ele>
        <time>2016-06-24T12:58:36Z</time>
      </trkpt>
      <trkpt lat="45.26599" lon="0.36157">
        <ele>93</ele>
        <time>2016-06-24T12:58:40Z</time>
      </trkpt>
      <trkpt lat="45.26591" lon="0.36156">
        <ele>92</ele>
        <time>2016-06-24T12:58:45Z</time>
      </trkpt>
      <trkpt lat="45.26583" lon="0.36154">
        <ele>90</ele>
        <time>2016-06-24T12:58:49Z</time>
      </trkpt>
      <trkpt lat="45.26579" lon="0.36157">
        <ele>90</ele>
        <time>2016-06-24T12:58:53Z</time>
      </trkpt>
      <trkpt lat="45.26574" lon="0.36158">
        <ele>90</ele>
        <time>2016-06-24T12:58:57Z</time>
      </trkpt>
      <trkpt lat="45.26567" lon="0.36157">
        <ele>91</ele>
        <time>2016-06-24T12:59:02Z</time>
      </trkpt>
      <trkpt lat="45.2656" lon="0.36157">
        <ele>93</ele>
        <time>2016-06-24T12:59:07Z</time>
      </trkpt>
      <trkpt lat="45.26555" lon="0.36158">
        <ele>93</ele>
        <time>2016-06-24T12:59:11Z</time>
      </trkpt>
      <trkpt lat="45.26548" lon="0.36157">
        <ele>94</ele>
        <time>2016-06-24T12:59:16Z</time>
      </trkpt>
      <trkpt lat="45.26543" lon="0.36156">
        <ele>94</ele>
        <time>2016-06-24T12:59:20Z</time>
      </trkpt>
      <trkpt lat="45.2654" lon="0.36163">
        <ele>91</ele>
        <time>2016-06-24T12:59:24Z</time>
      </trkpt>
      <trkpt lat="45.26535" lon="0.36165">
        <ele>90</ele>
        <time>2016-06-24T12:59:28Z</time>
      </trkpt>
      <trkpt lat="45.26528" lon="0.36165">
        <ele>89</ele>
        <time>2016-06-24T12:59:33Z</time>
      </trkpt>
      <trkpt lat="45.26522" lon="0.36163">
        <ele>92</ele>
        <time>2016-06-24T12:59:37Z</time>
      </trkpt>
      <trkpt lat="45.26515" lon="0.36161">
        <ele>92</ele>
        <time>2016-06-24T12:59:42Z</time>
      </trkpt>
      <trkpt lat="45.2651" lon="0.36159">
        <ele>91</ele>
        <time>2016-06-24T12:59:46Z</time>
      </trkpt>
      <trkpt lat="45.26505" lon="0.36156">
        <ele>91</ele>
        <time>2016-06-24T12:59:50Z</time>
      </trkpt>
      <trkpt lat="45.26499" lon="0.36155">
        <ele>90</ele>
        <time>2016-06-24T12:59:54Z</time>
      </trkpt>
      <trkpt lat="45.26494" lon="0.36164">
        <ele>87</ele>
        <time>2016-06-24T12:59:59Z</time>
      </trkpt>
      <trkpt lat="45.26488" lon="0.36161">
        <ele>87</ele>
        <time>2016-06-24T13:00:04Z</time>
      </trkpt>
      <trkpt lat="45.26485" lon="0.36159">
        <ele>83</ele>
        <time>2016-06-24T13:00:09Z</time>
      </trkpt>
      <trkpt lat="45.26484" lon="0.36155">
        <ele>82</ele>
        <time>2016-06-24T13:00:14Z</time>
      </trkpt>
      <trkpt lat="45.26486" lon="0.36149">
        <ele>81</ele>
        <time>2016-06-24T13:00:21Z</time>
      </trkpt>
      <trkpt lat="45.2649" lon="0.36146">
        <ele>84</ele>
        <time>2016-06-24T13:00:26Z</time>
      </trkpt>
      <trkpt lat="45.26495" lon="0.36143">
        <ele>83</ele>
        <time>2016-06-24T13:00:31Z</time>
      </trkpt>
      <trkpt lat="45.265" lon="0.36141">
        <ele>82</ele>
        <time>2016-06-24T13:00:35Z</time>
      </trkpt>
      <trkpt lat="45.26505" lon="0.36138">
        <ele>81</ele>
        <time>2016-06-24T13:00:39Z</time>
      </trkpt>
      <trkpt lat="45.26509" lon="0.36135">
        <ele>84</ele>
        <time>2016-06-24T13:00:44Z</time>
      </trkpt>
      <trkpt lat="45.26513" lon="0.36133">
        <ele>86</ele>
        <time>2016-06-24T13:00:48Z</time>
      </trkpt>
      <trkpt lat="45.26517" lon="0.36122">
        <ele>81</ele>
        <time>2016-06-24T13:00:53Z</time>
      </trkpt>
      <trkpt lat="45.26516" lon="0.36112">
        <ele>81</ele>
        <time>2016-06-24T13:00:58Z</time>
      </trkpt>
      <trkpt lat="45.26514" lon="0.36103">
        <ele>79</ele>
        <time>2016-06-24T13:01:02Z</time>
      </trkpt>
      <trkpt lat="45.26513" lon="0.36095">
        <ele>77</ele>
        <time>2016-06-24T13:01:07Z</time>
      </trkpt>
      <trkpt lat="45.26516" lon="0.36089">
        <ele>79</ele>
        <time>2016-06-24T13:01:11Z</time>
      </trkpt>
      <trkpt lat="45.26513" lon="0.36083">
        <ele>79</ele>
        <time>2016-06-24T13:01:16Z</time>
      </trkpt>
      <trkpt lat="45.26513" lon="0.36076">
        <ele>79</ele>
        <time>2016-06-24T13:01:20Z</time>
      </trkpt>
      <trkpt lat="45.26511" lon="0.3607">
        <ele>76</ele>
        <time>2016-06-24T13:01:27Z</time>
      </trkpt>
      <trkpt lat="45.26509" lon="0.36064">
        <ele>77</ele>
        <time>2016-06-24T13:01:31Z</time>
      </trkpt>
      <trkpt lat="45.26504" lon="0.36055">
        <ele>81</ele>
        <time>2016-06-24T13:01:36Z</time>
      </trkpt>
      <trkpt lat="45.26502" lon="0.36051">
        <ele>83</ele>
        <time>2016-06-24T13:01:44Z</time>
      </trkpt>
      <trkpt lat="45.26498" lon="0.36041">
        <ele>83</ele>
        <time>2016-06-24T13:01:48Z</time>
      </trkpt>
      <trkpt lat="45.26498" lon="0.36034">
        <ele>82</ele>
        <time>2016-06-24T13:01:53Z</time>
      </trkpt>
      <trkpt lat="45.26496" lon="0.36027">
        <ele>79</ele>
        <time>2016-06-24T13:01:57Z</time>
      </trkpt>
      <trkpt lat="45.26495" lon="0.36022">
        <ele>80</ele>
        <time>2016-06-24T13:02:02Z</time>
      </trkpt>
      <trkpt lat="45.26492" lon="0.36013">
        <ele>79</ele>
        <time>2016-06-24T13:02:06Z</time>
      </trkpt>
      <trkpt lat="45.2649" lon="0.36009">
        <ele>75</ele>
        <time>2016-06-24T13:02:10Z</time>
      </trkpt>
      <trkpt lat="45.26488" lon="0.36002">
        <ele>75</ele>
        <time>2016-06-24T13:02:15Z</time>
      </trkpt>
      <trkpt lat="45.26487" lon="0.35998">
        <ele>76</ele>
        <time>2016-06-24T13:02:27Z</time>
      </trkpt>
      <trkpt lat="45.26484" lon="0.35985">
        <ele>77</ele>
        <time>2016-06-24T13:02:32Z</time>
      </trkpt>
      <trkpt lat="45.26482" lon="0.35973">
        <ele>79</ele>
        <time>2016-06-24T13:02:37Z</time>
      </trkpt>
      <trkpt lat="45.26483" lon="0.35967">
        <ele>80</ele>
        <time>2016-06-24T13:02:41Z</time>
      </trkpt>
      <trkpt lat="45.26481" lon="0.35958">
        <ele>81</ele>
        <time>2016-06-24T13:02:46Z</time>
      </trkpt>
      <trkpt lat="45.26481" lon="0.35953">
        <ele>81</ele>
        <time>2016-06-24T13:02:50Z</time>
      </trkpt>
      <trkpt lat="45.26476" lon="0.35943">
        <ele>80</ele>
        <time>2016-06-24T13:02:54Z</time>
      </trkpt>
      <trkpt lat="45.26473" lon="0.35935">
        <ele>79</ele>
        <time>2016-06-24T13:02:59Z</time>
      </trkpt>
      <trkpt lat="45.26474" lon="0.3593">
        <ele>80</ele>
        <time>2016-06-24T13:03:12Z</time>
      </trkpt>
      <trkpt lat="45.26474" lon="0.35922">
        <ele>80</ele>
        <time>2016-06-24T13:03:16Z</time>
      </trkpt>
      <trkpt lat="45.26471" lon="0.35915">
        <ele>84</ele>
        <time>2016-06-24T13:03:21Z</time>
      </trkpt>
      <trkpt lat="45.26472" lon="0.35908">
        <ele>85</ele>
        <time>2016-06-24T13:03:26Z</time>
      </trkpt>
      <trkpt lat="45.26471" lon="0.35899">
        <ele>86</ele>
        <time>2016-06-24T13:03:30Z</time>
      </trkpt>
      <trkpt lat="45.26468" lon="0.35892">
        <ele>84</ele>
        <time>2016-06-24T13:03:35Z</time>
      </trkpt>
      <trkpt lat="45.26465" lon="0.35887">
        <ele>83</ele>
        <time>2016-06-24T13:03:39Z</time>
      </trkpt>
      <trkpt lat="45.26464" lon="0.3588">
        <ele>83</ele>
        <time>2016-06-24T13:03:44Z</time>
      </trkpt>
      <trkpt lat="45.26465" lon="0.35874">
        <ele>86</ele>
        <time>2016-06-24T13:03:49Z</time>
      </trkpt>
      <trkpt lat="45.26466" lon="0.35863">
        <ele>85</ele>
        <time>2016-06-24T13:03:53Z</time>
      </trkpt>
      <trkpt lat="45.2647" lon="0.35862">
        <ele>86</ele>
        <time>2016-06-24T13:04:04Z</time>
      </trkpt>
      <trkpt lat="45.26473" lon="0.35859">
        <ele>86</ele>
        <time>2016-06-24T13:04:09Z</time>
      </trkpt>
      <trkpt lat="45.26477" lon="0.35856">
        <ele>87</ele>
        <time>2016-06-24T13:04:13Z</time>
      </trkpt>
      <trkpt lat="45.26486" lon="0.35852">
        <ele>86</ele>
        <time>2016-06-24T13:04:17Z</time>
      </trkpt>
      <trkpt lat="45.26489" lon="0.35852">
        <ele>87</ele>
        <time>2016-06-24T13:04:23Z</time>
      </trkpt>
      <trkpt lat="45.26495" lon="0.35853">
        <ele>87</ele>
        <time>2016-06-24T13:04:27Z</time>
      </trkpt>
      <trkpt lat="45.265" lon="0.35846">
        <ele>86</ele>
        <time>2016-06-24T13:04:32Z</time>
      </trkpt>
      <trkpt lat="45.26503" lon="0.35836">
        <ele>86</ele>
        <time>2016-06-24T13:04:37Z</time>
      </trkpt>
      <trkpt lat="45.26503" lon="0.3583">
        <ele>87</ele>
        <time>2016-06-24T13:04:41Z</time>
      </trkpt>
      <trkpt lat="45.26505" lon="0.35825">
        <ele>87</ele>
        <time>2016-06-24T13:04:45Z</time>
      </trkpt>
      <trkpt lat="45.26506" lon="0.35821">
        <ele>88</ele>
        <time>2016-06-24T13:04:50Z</time>
      </trkpt>
      <trkpt lat="45.26505" lon="0.35813">
        <ele>87</ele>
        <time>2016-06-24T13:04:54Z</time>
      </trkpt>
      <trkpt lat="45.26506" lon="0.35804">
        <ele>88</ele>
        <time>2016-06-24T13:04:59Z</time>
      </trkpt>
      <trkpt lat="45.26504" lon="0.35794">
        <ele>86</ele>
        <time>2016-06-24T13:05:03Z</time>
      </trkpt>
      <trkpt lat="45.26505" lon="0.35788">
        <ele>87</ele>
        <time>2016-06-24T13:05:08Z</time>
      </trkpt>
      <trkpt lat="45.26506" lon="0.35782">
        <ele>89</ele>
        <time>2016-06-24T13:05:13Z</time>
      </trkpt>
      <trkpt lat="45.26505" lon="0.35775">
        <ele>89</ele>
        <time>2016-06-24T13:05:17Z</time>
      </trkpt>
      <trkpt lat="45.26506" lon="0.3576">
        <ele>89</ele>
        <time>2016-06-24T13:05:22Z</time>
      </trkpt>
      <trkpt lat="45.26506" lon="0.35754">
        <ele>89</ele>
        <time>2016-06-24T13:05:26Z</time>
      </trkpt>
      <trkpt lat="45.26505" lon="0.35749">
        <ele>92</ele>
        <time>2016-06-24T13:05:33Z</time>
      </trkpt>
      <trkpt lat="45.26506" lon="0.3574">
        <ele>95</ele>
        <time>2016-06-24T13:05:38Z</time>
      </trkpt>
      <trkpt lat="45.26506" lon="0.35734">
        <ele>97</ele>
        <time>2016-06-24T13:05:42Z</time>
      </trkpt>
      <trkpt lat="45.26504" lon="0.35725">
        <ele>94</ele>
        <time>2016-06-24T13:05:46Z</time>
      </trkpt>
      <trkpt lat="45.26505" lon="0.35721">
        <ele>96</ele>
        <time>2016-06-24T13:05:53Z</time>
      </trkpt>
      <trkpt lat="45.26505" lon="0.35708">
        <ele>97</ele>
        <time>2016-06-24T13:05:57Z</time>
      </trkpt>
      <trkpt lat="45.26505" lon="0.35701">
        <ele>96</ele>
        <time>2016-06-24T13:06:01Z</time>
      </trkpt>
      <trkpt lat="45.26503" lon="0.35696">
        <ele>96</ele>
        <time>2016-06-24T13:06:05Z</time>
      </trkpt>
      <trkpt lat="45.26503" lon="0.35689">
        <ele>98</ele>
        <time>2016-06-24T13:06:12Z</time>
      </trkpt>
      <trkpt lat="45.26503" lon="0.35683">
        <ele>97</ele>
        <time>2016-06-24T13:06:17Z</time>
      </trkpt>
      <trkpt lat="45.26507" lon="0.35677">
        <ele>98</ele>
        <time>2016-06-24T13:06:21Z</time>
      </trkpt>
      <trkpt lat="45.26509" lon="0.35673">
        <ele>100</ele>
        <time>2016-06-24T13:06:26Z</time>
      </trkpt>
      <trkpt lat="45.26509" lon="0.35664">
        <ele>98</ele>
        <time>2016-06-24T13:06:30Z</time>
      </trkpt>
      <trkpt lat="45.26508" lon="0.35657">
        <ele>97</ele>
        <time>2016-06-24T13:06:34Z</time>
      </trkpt>
      <trkpt lat="45.2651" lon="0.35651">
        <ele>99</ele>
        <time>2016-06-24T13:06:40Z</time>
      </trkpt>
      <trkpt lat="45.2651" lon="0.35648">
        <ele>101</ele>
        <time>2016-06-24T13:06:45Z</time>
      </trkpt>
      <trkpt lat="45.26509" lon="0.35635">
        <ele>100</ele>
        <time>2016-06-24T13:06:50Z</time>
      </trkpt>
      <trkpt lat="45.26507" lon="0.35625">
        <ele>98</ele>
        <time>2016-06-24T13:06:54Z</time>
      </trkpt>
      <trkpt lat="45.26508" lon="0.35618">
        <ele>100</ele>
        <time>2016-06-24T13:06:59Z</time>
      </trkpt>
      <trkpt lat="45.26509" lon="0.35611">
        <ele>102</ele>
        <time>2016-06-24T13:07:05Z</time>
      </trkpt>
      <trkpt lat="45.26508" lon="0.35607">
        <ele>103</ele>
        <time>2016-06-24T13:07:14Z</time>
      </trkpt>
      <trkpt lat="45.26506" lon="0.35594">
        <ele>104</ele>
        <time>2016-06-24T13:07:19Z</time>
      </trkpt>
      <trkpt lat="45.26506" lon="0.35582">
        <ele>103</ele>
        <time>2016-06-24T13:07:23Z</time>
      </trkpt>
      <trkpt lat="45.26505" lon="0.35573">
        <ele>103</ele>
        <time>2016-06-24T13:07:28Z</time>
      </trkpt>
      <trkpt lat="45.26505" lon="0.35563">
        <ele>102</ele>
        <time>2016-06-24T13:07:32Z</time>
      </trkpt>
      <trkpt lat="45.26503" lon="0.35556">
        <ele>101</ele>
        <time>2016-06-24T13:07:37Z</time>
      </trkpt>
      <trkpt lat="45.26502" lon="0.35551">
        <ele>100</ele>
        <time>2016-06-24T13:07:43Z</time>
      </trkpt>
      <trkpt lat="45.26503" lon="0.35544">
        <ele>102</ele>
        <time>2016-06-24T13:07:47Z</time>
      </trkpt>
      <trkpt lat="45.26505" lon="0.3554">
        <ele>106</ele>
        <time>2016-06-24T13:07:52Z</time>
      </trkpt>
      <trkpt lat="45.26509" lon="0.35538">
        <ele>107</ele>
        <time>2016-06-24T13:07:57Z</time>
      </trkpt>
      <trkpt lat="45.26513" lon="0.35538">
        <ele>107</ele>
        <time>2016-06-24T13:08:01Z</time>
      </trkpt>
      <trkpt lat="45.26519" lon="0.35536">
        <ele>108</ele>
        <time>2016-06-24T13:08:06Z</time>
      </trkpt>
      <trkpt lat="45.26528" lon="0.35534">
        <ele>108</ele>
        <time>2016-06-24T13:08:11Z</time>
      </trkpt>
      <trkpt lat="45.26532" lon="0.35534">
        <ele>110</ele>
        <time>2016-06-24T13:08:16Z</time>
      </trkpt>
      <trkpt lat="45.26535" lon="0.35532">
        <ele>113</ele>
        <time>2016-06-24T13:08:20Z</time>
      </trkpt>
      <trkpt lat="45.26539" lon="0.35529">
        <ele>113</ele>
        <time>2016-06-24T13:08:24Z</time>
      </trkpt>
      <trkpt lat="45.26545" lon="0.35525">
        <ele>112</ele>
        <time>2016-06-24T13:08:28Z</time>
      </trkpt>
      <trkpt lat="45.2655" lon="0.35523">
        <ele>111</ele>
        <time>2016-06-24T13:08:32Z</time>
      </trkpt>
      <trkpt lat="45.26552" lon="0.35521">
        <ele>112</ele>
        <time>2016-06-24T13:08:36Z</time>
      </trkpt>
      <trkpt lat="45.26556" lon="0.35514">
        <ele>115</ele>
        <time>2016-06-24T13:08:41Z</time>
      </trkpt>
      <trkpt lat="45.26561" lon="0.35514">
        <ele>116</ele>
        <time>2016-06-24T13:08:45Z</time>
      </trkpt>
      <trkpt lat="45.26565" lon="0.35512">
        <ele>117</ele>
        <time>2016-06-24T13:08:49Z</time>
      </trkpt>
      <trkpt lat="45.2657" lon="0.3551">
        <ele>116</ele>
        <time>2016-06-24T13:08:53Z</time>
      </trkpt>
      <trkpt lat="45.26575" lon="0.35508">
        <ele>112</ele>
        <time>2016-06-24T13:08:58Z</time>
      </trkpt>
      <trkpt lat="45.26579" lon="0.35502">
        <ele>111</ele>
        <time>2016-06-24T13:09:02Z</time>
      </trkpt>
      <trkpt lat="45.26584" lon="0.35496">
        <ele>110</ele>
        <time>2016-06-24T13:09:07Z</time>
      </trkpt>
      <trkpt lat="45.26587" lon="0.35493">
        <ele>112</ele>
        <time>2016-06-24T13:09:12Z</time>
      </trkpt>
      <trkpt lat="45.26594" lon="0.3549">
        <ele>112</ele>
        <time>2016-06-24T13:09:17Z</time>
      </trkpt>
      <trkpt lat="45.26598" lon="0.35485">
        <ele>114</ele>
        <time>2016-06-24T13:09:21Z</time>
      </trkpt>
      <trkpt lat="45.26601" lon="0.35482">
        <ele>115</ele>
        <time>2016-06-24T13:09:25Z</time>
      </trkpt>
      <trkpt lat="45.26605" lon="0.35476">
        <ele>117</ele>
        <time>2016-06-24T13:09:30Z</time>
      </trkpt>
      <trkpt lat="45.26609" lon="0.35471">
        <ele>118</ele>
        <time>2016-06-24T13:09:34Z</time>
      </trkpt>
      <trkpt lat="45.26613" lon="0.35468">
        <ele>118</ele>
        <time>2016-06-24T13:09:38Z</time>
      </trkpt>
      <trkpt lat="45.26617" lon="0.35459">
        <ele>118</ele>
        <time>2016-06-24T13:09:43Z</time>
      </trkpt>
      <trkpt lat="45.26622" lon="0.35457">
        <ele>118</ele>
        <time>2016-06-24T13:09:47Z</time>
      </trkpt>
      <trkpt lat="45.26626" lon="0.35452">
        <ele>118</ele>
        <time>2016-06-24T13:09:51Z</time>
      </trkpt>
      <trkpt lat="45.2663" lon="0.35446">
        <ele>114</ele>
        <time>2016-06-24T13:09:55Z</time>
      </trkpt>
      <trkpt lat="45.26638" lon="0.3544">
        <ele>111</ele>
        <time>2016-06-24T13:10:00Z</time>
      </trkpt>
      <trkpt lat="45.26641" lon="0.35437">
        <ele>111</ele>
        <time>2016-06-24T13:10:04Z</time>
      </trkpt>
      <trkpt lat="45.26646" lon="0.35431">
        <ele>112</ele>
        <time>2016-06-24T13:10:09Z</time>
      </trkpt>
      <trkpt lat="45.2665" lon="0.35425">
        <ele>111</ele>
        <time>2016-06-24T13:10:13Z</time>
      </trkpt>
      <trkpt lat="45.26653" lon="0.35419">
        <ele>112</ele>
        <time>2016-06-24T13:10:17Z</time>
      </trkpt>
      <trkpt lat="45.26658" lon="0.35415">
        <ele>111</ele>
        <time>2016-06-24T13:10:22Z</time>
      </trkpt>
      <trkpt lat="45.26663" lon="0.3541">
        <ele>111</ele>
        <time>2016-06-24T13:10:26Z</time>
      </trkpt>
      <trkpt lat="45.26667" lon="0.35406">
        <ele>113</ele>
        <time>2016-06-24T13:10:31Z</time>
      </trkpt>
      <trkpt lat="45.26672" lon="0.35399">
        <ele>113</ele>
        <time>2016-06-24T13:10:36Z</time>
      </trkpt>
      <trkpt lat="45.26676" lon="0.35395">
        <ele>114</ele>
        <time>2016-06-24T13:10:40Z</time>
      </trkpt>
      <trkpt lat="45.2668" lon="0.35394">
        <ele>115</ele>
        <time>2016-06-24T13:10:44Z</time>
      </trkpt>
      <trkpt lat="45.26684" lon="0.35395">
        <ele>116</ele>
        <time>2016-06-24T13:10:51Z</time>
      </trkpt>
      <trkpt lat="45.26689" lon="0.35394">
        <ele>117</ele>
        <time>2016-06-24T13:10:55Z</time>
      </trkpt>
      <trkpt lat="45.26693" lon="0.35392">
        <ele>121</ele>
        <time>2016-06-24T13:10:59Z</time>
      </trkpt>
      <trkpt lat="45.26699" lon="0.35392">
        <ele>123</ele>
        <time>2016-06-24T13:11:04Z</time>
      </trkpt>
      <trkpt lat="45.26704" lon="0.35392">
        <ele>121</ele>
        <time>2016-06-24T13:11:08Z</time>
      </trkpt>
      <trkpt lat="45.26708" lon="0.35395">
        <ele>121</ele>
        <time>2016-06-24T13:11:13Z</time>
      </trkpt>
      <trkpt lat="45.26713" lon="0.35395">
        <ele>120</ele>
        <time>2016-06-24T13:11:18Z</time>
      </trkpt>
      <trkpt lat="45.26719" lon="0.35394">
        <ele>117</ele>
        <time>2016-06-24T13:11:23Z</time>
      </trkpt>
      <trkpt lat="45.26725" lon="0.35394">
        <ele>116</ele>
        <time>2016-06-24T13:11:27Z</time>
      </trkpt>
      <trkpt lat="45.26731" lon="0.35395">
        <ele>115</ele>
        <time>2016-06-24T13:11:32Z</time>
      </trkpt>
      <trkpt lat="45.26734" lon="0.35395">
        <ele>117</ele>
        <time>2016-06-24T13:11:36Z</time>
      </trkpt>
      <trkpt lat="45.26739" lon="0.35395">
        <ele>119</ele>
        <time>2016-06-24T13:11:41Z</time>
      </trkpt>
      <trkpt lat="45.26746" lon="0.35396">
        <ele>119</ele>
        <time>2016-06-24T13:11:46Z</time>
      </trkpt>
      <trkpt lat="45.26751" lon="0.35393">
        <ele>121</ele>
        <time>2016-06-24T13:11:50Z</time>
      </trkpt>
      <trkpt lat="45.26754" lon="0.35393">
        <ele>121</ele>
        <time>2016-06-24T13:11:56Z</time>
      </trkpt>
      <trkpt lat="45.26761" lon="0.35395">
        <ele>120</ele>
        <time>2016-06-24T13:12:00Z</time>
      </trkpt>
      <trkpt lat="45.26764" lon="0.35397">
        <ele>120</ele>
        <time>2016-06-24T13:12:05Z</time>
      </trkpt>
      <trkpt lat="45.2677" lon="0.35395">
        <ele>120</ele>
        <time>2016-06-24T13:12:09Z</time>
      </trkpt>
      <trkpt lat="45.26777" lon="0.354">
        <ele>121</ele>
        <time>2016-06-24T13:12:13Z</time>
      </trkpt>
      <trkpt lat="45.26781" lon="0.35403">
        <ele>117</ele>
        <time>2016-06-24T13:12:17Z</time>
      </trkpt>
      <trkpt lat="45.26784" lon="0.35406">
        <ele>119</ele>
        <time>2016-06-24T13:12:22Z</time>
      </trkpt>
      <trkpt lat="45.26791" lon="0.35407">
        <ele>118</ele>
        <time>2016-06-24T13:12:27Z</time>
      </trkpt>
      <trkpt lat="45.26797" lon="0.35412">
        <ele>120</ele>
        <time>2016-06-24T13:12:31Z</time>
      </trkpt>
      <trkpt lat="45.26804" lon="0.35417">
        <ele>121</ele>
        <time>2016-06-24T13:12:36Z</time>
      </trkpt>
      <trkpt lat="45.26811" lon="0.35425">
        <ele>117</ele>
        <time>2016-06-24T13:12:41Z</time>
      </trkpt>
      <trkpt lat="45.26817" lon="0.35427">
        <ele>114</ele>
        <time>2016-06-24T13:12:45Z</time>
      </trkpt>
      <trkpt lat="45.26824" lon="0.35432">
        <ele>113</ele>
        <time>2016-06-24T13:12:50Z</time>
      </trkpt>
      <trkpt lat="45.26832" lon="0.35436">
        <ele>109</ele>
        <time>2016-06-24T13:12:55Z</time>
      </trkpt>
      <trkpt lat="45.26837" lon="0.35442">
        <ele>108</ele>
        <time>2016-06-24T13:13:00Z</time>
      </trkpt>
      <trkpt lat="45.26843" lon="0.35444">
        <ele>107</ele>
        <time>2016-06-24T13:13:04Z</time>
      </trkpt>
      <trkpt lat="45.26851" lon="0.35444">
        <ele>103</ele>
        <time>2016-06-24T13:13:09Z</time>
      </trkpt>
      <trkpt lat="45.26859" lon="0.35447">
        <ele>100</ele>
        <time>2016-06-24T13:13:14Z</time>
      </trkpt>
      <trkpt lat="45.26862" lon="0.35451">
        <ele>103</ele>
        <time>2016-06-24T13:13:18Z</time>
      </trkpt>
      <trkpt lat="45.26863" lon="0.35457">
        <ele>101</ele>
        <time>2016-06-24T13:13:23Z</time>
      </trkpt>
      <trkpt lat="45.26862" lon="0.35462">
        <ele>101</ele>
        <time>2016-06-24T13:13:28Z</time>
      </trkpt>
      <trkpt lat="45.2686" lon="0.35468">
        <ele>102</ele>
        <time>2016-06-24T13:13:32Z</time>
      </trkpt>
      <trkpt lat="45.26862" lon="0.35476">
        <ele>101</ele>
        <time>2016-06-24T13:13:37Z</time>
      </trkpt>
      <trkpt lat="45.26857" lon="0.35481">
        <ele>103</ele>
        <time>2016-06-24T13:13:41Z</time>
      </trkpt>
      <trkpt lat="45.26854" lon="0.35487">
        <ele>102</ele>
        <time>2016-06-24T13:13:46Z</time>
      </trkpt>
      <trkpt lat="45.26855" lon="0.35499">
        <ele>104</ele>
        <time>2016-06-24T13:13:50Z</time>
      </trkpt>
      <trkpt lat="45.26856" lon="0.35511">
        <ele>104</ele>
        <time>2016-06-24T13:13:55Z</time>
      </trkpt>
      <trkpt lat="45.26858" lon="0.3552">
        <ele>105</ele>
        <time>2016-06-24T13:13:59Z</time>
      </trkpt>
      <trkpt lat="45.2686" lon="0.3553">
        <ele>106</ele>
        <time>2016-06-24T13:14:04Z</time>
      </trkpt>
      <trkpt lat="45.26865" lon="0.35538">
        <ele>103</ele>
        <time>2016-06-24T13:14:09Z</time>
      </trkpt>
      <trkpt lat="45.26871" lon="0.35541">
        <ele>102</ele>
        <time>2016-06-24T13:14:13Z</time>
      </trkpt>
      <trkpt lat="45.26878" lon="0.35542">
        <ele>103</ele>
        <time>2016-06-24T13:14:18Z</time>
      </trkpt>
      <trkpt lat="45.26883" lon="0.35541">
        <ele>104</ele>
        <time>2016-06-24T13:14:22Z</time>
      </trkpt>
      <trkpt lat="45.26887" lon="0.35535">
        <ele>105</ele>
        <time>2016-06-24T13:14:26Z</time>
      </trkpt>
      <trkpt lat="45.26891" lon="0.35534">
        <ele>107</ele>
        <time>2016-06-24T13:14:32Z</time>
      </trkpt>
      <trkpt lat="45.26886" lon="0.35518">
        <ele>108</ele>
        <time>2016-06-24T13:14:37Z</time>
      </trkpt>
      <trkpt lat="45.26892" lon="0.35519">
        <ele>105</ele>
        <time>2016-06-24T13:14:41Z</time>
      </trkpt>
      <trkpt lat="45.2689" lon="0.35502">
        <ele>102</ele>
        <time>2016-06-24T13:14:46Z</time>
      </trkpt>
      <trkpt lat="45.2689" lon="0.35496">
        <ele>103</ele>
        <time>2016-06-24T13:14:50Z</time>
      </trkpt>
      <trkpt lat="45.26892" lon="0.35489">
        <ele>102</ele>
        <time>2016-06-24T13:14:54Z</time>
      </trkpt>
      <trkpt lat="45.26894" lon="0.35477">
        <ele>101</ele>
        <time>2016-06-24T13:14:59Z</time>
      </trkpt>
      <trkpt lat="45.26897" lon="0.35472">
        <ele>101</ele>
        <time>2016-06-24T13:15:03Z</time>
      </trkpt>
      <trkpt lat="45.26901" lon="0.35467">
        <ele>103</ele>
        <time>2016-06-24T13:15:08Z</time>
      </trkpt>
      <trkpt lat="45.26905" lon="0.35465">
        <ele>102</ele>
        <time>2016-06-24T13:15:12Z</time>
      </trkpt>
      <trkpt lat="45.26911" lon="0.35463">
        <ele>106</ele>
        <time>2016-06-24T13:15:16Z</time>
      </trkpt>
      <trkpt lat="45.26917" lon="0.35458">
        <ele>107</ele>
        <time>2016-06-24T13:15:21Z</time>
      </trkpt>
      <trkpt lat="45.26923" lon="0.35457">
        <ele>108</ele>
        <time>2016-06-24T13:15:25Z</time>
      </trkpt>
      <trkpt lat="45.26927" lon="0.35455">
        <ele>106</ele>
        <time>2016-06-24T13:15:29Z</time>
      </trkpt>
      <trkpt lat="45.26933" lon="0.35456">
        <ele>106</ele>
        <time>2016-06-24T13:15:34Z</time>
      </trkpt>
      <trkpt lat="45.26939" lon="0.3546">
        <ele>106</ele>
        <time>2016-06-24T13:15:39Z</time>
      </trkpt>
      <trkpt lat="45.26941" lon="0.35463">
        <ele>106</ele>
        <time>2016-06-24T13:15:44Z</time>
      </trkpt>
      <trkpt lat="45.26947" lon="0.35469">
        <ele>111</ele>
        <time>2016-06-24T13:15:49Z</time>
      </trkpt>
      <trkpt lat="45.26951" lon="0.3547">
        <ele>113</ele>
        <time>2016-06-24T13:15:54Z</time>
      </trkpt>
      <trkpt lat="45.26955" lon="0.35471">
        <ele>112</ele>
        <time>2016-06-24T13:15:59Z</time>
      </trkpt>
      <trkpt lat="45.26959" lon="0.35476">
        <ele>113</ele>
        <time>2016-06-24T13:16:04Z</time>
      </trkpt>
      <trkpt lat="45.26963" lon="0.35477">
        <ele>113</ele>
        <time>2016-06-24T13:16:12Z</time>
      </trkpt>
      <trkpt lat="45.26967" lon="0.35478">
        <ele>116</ele>
        <time>2016-06-24T13:16:16Z</time>
      </trkpt>
      <trkpt lat="45.26973" lon="0.35479">
        <ele>116</ele>
        <time>2016-06-24T13:16:21Z</time>
      </trkpt>
      <trkpt lat="45.26977" lon="0.35478">
        <ele>114</ele>
        <time>2016-06-24T13:16:29Z</time>
      </trkpt>
      <trkpt lat="45.26983" lon="0.35478">
        <ele>114</ele>
        <time>2016-06-24T13:16:33Z</time>
      </trkpt>
      <trkpt lat="45.26989" lon="0.35481">
        <ele>113</ele>
        <time>2016-06-24T13:16:38Z</time>
      </trkpt>
      <trkpt lat="45.26994" lon="0.35481">
        <ele>114</ele>
        <time>2016-06-24T13:16:43Z</time>
      </trkpt>
      <trkpt lat="45.26999" lon="0.35482">
        <ele>113</ele>
        <time>2016-06-24T13:16:47Z</time>
      </trkpt>
      <trkpt lat="45.27004" lon="0.35484">
        <ele>113</ele>
        <time>2016-06-24T13:16:52Z</time>
      </trkpt>
      <trkpt lat="45.27009" lon="0.35488">
        <ele>114</ele>
        <time>2016-06-24T13:16:56Z</time>
      </trkpt>
      <trkpt lat="45.27015" lon="0.35492">
        <ele>113</ele>
        <time>2016-06-24T13:17:01Z</time>
      </trkpt>
      <trkpt lat="45.2702" lon="0.35494">
        <ele>112</ele>
        <time>2016-06-24T13:17:05Z</time>
      </trkpt>
      <trkpt lat="45.27024" lon="0.35497">
        <ele>112</ele>
        <time>2016-06-24T13:17:09Z</time>
      </trkpt>
      <trkpt lat="45.2703" lon="0.35499">
        <ele>111</ele>
        <time>2016-06-24T13:17:14Z</time>
      </trkpt>
      <trkpt lat="45.27036" lon="0.35501">
        <ele>111</ele>
        <time>2016-06-24T13:17:19Z</time>
      </trkpt>
      <trkpt lat="45.27041" lon="0.35503">
        <ele>111</ele>
        <time>2016-06-24T13:17:23Z</time>
      </trkpt>
      <trkpt lat="45.27048" lon="0.35505">
        <ele>111</ele>
        <time>2016-06-24T13:17:28Z</time>
      </trkpt>
      <trkpt lat="45.27053" lon="0.35505">
        <ele>110</ele>
        <time>2016-06-24T13:17:32Z</time>
      </trkpt>
      <trkpt lat="45.2706" lon="0.35508">
        <ele>110</ele>
        <time>2016-06-24T13:17:37Z</time>
      </trkpt>
      <trkpt lat="45.27065" lon="0.3551">
        <ele>111</ele>
        <time>2016-06-24T13:17:41Z</time>
      </trkpt>
      <trkpt lat="45.2707" lon="0.35512">
        <ele>111</ele>
        <time>2016-06-24T13:17:45Z</time>
      </trkpt>
      <trkpt lat="45.27075" lon="0.35514">
        <ele>111</ele>
        <time>2016-06-24T13:17:50Z</time>
      </trkpt>
      <trkpt lat="45.27081" lon="0.35516">
        <ele>112</ele>
        <time>2016-06-24T13:17:54Z</time>
      </trkpt>
      <trkpt lat="45.27087" lon="0.35518">
        <ele>112</ele>
        <time>2016-06-24T13:17:58Z</time>
      </trkpt>
      <trkpt lat="45.27093" lon="0.3552">
        <ele>112</ele>
        <time>2016-06-24T13:18:03Z</time>
      </trkpt>
      <trkpt lat="45.27099" lon="0.3552">
        <ele>111</ele>
        <time>2016-06-24T13:18:07Z</time>
      </trkpt>
      <trkpt lat="45.27102" lon="0.35523">
        <ele>112</ele>
        <time>2016-06-24T13:18:11Z</time>
      </trkpt>
      <trkpt lat="45.27108" lon="0.35523">
        <ele>111</ele>
        <time>2016-06-24T13:18:16Z</time>
      </trkpt>
      <trkpt lat="45.27115" lon="0.35525">
        <ele>111</ele>
        <time>2016-06-24T13:18:21Z</time>
      </trkpt>
      <trkpt lat="45.27121" lon="0.35526">
        <ele>111</ele>
        <time>2016-06-24T13:18:25Z</time>
      </trkpt>
      <trkpt lat="45.27126" lon="0.35525">
        <ele>109</ele>
        <time>2016-06-24T13:18:29Z</time>
      </trkpt>
      <trkpt lat="45.27132" lon="0.35528">
        <ele>111</ele>
        <time>2016-06-24T13:18:34Z</time>
      </trkpt>
      <trkpt lat="45.27139" lon="0.35529">
        <ele>111</ele>
        <time>2016-06-24T13:18:38Z</time>
      </trkpt>
      <trkpt lat="45.27145" lon="0.35532">
        <ele>111</ele>
        <time>2016-06-24T13:18:42Z</time>
      </trkpt>
      <trkpt lat="45.27151" lon="0.35532">
        <ele>111</ele>
        <time>2016-06-24T13:18:46Z</time>
      </trkpt>
      <trkpt lat="45.27157" lon="0.35532">
        <ele>111</ele>
        <time>2016-06-24T13:18:50Z</time>
      </trkpt>
      <trkpt lat="45.27163" lon="0.35531">
        <ele>112</ele>
        <time>2016-06-24T13:18:55Z</time>
      </trkpt>
      <trkpt lat="45.27169" lon="0.3553">
        <ele>113</ele>
        <time>2016-06-24T13:19:00Z</time>
      </trkpt>
      <trkpt lat="45.27173" lon="0.3553">
        <ele>112</ele>
        <time>2016-06-24T13:19:04Z</time>
      </trkpt>
      <trkpt lat="45.27177" lon="0.35529">
        <ele>112</ele>
        <time>2016-06-24T13:19:08Z</time>
      </trkpt>
      <trkpt lat="45.27183" lon="0.35528">
        <ele>112</ele>
        <time>2016-06-24T13:19:13Z</time>
      </trkpt>
      <trkpt lat="45.27191" lon="0.35528">
        <ele>112</ele>
        <time>2016-06-24T13:19:18Z</time>
      </trkpt>
      <trkpt lat="45.27196" lon="0.35527">
        <ele>110</ele>
        <time>2016-06-24T13:19:22Z</time>
      </trkpt>
      <trkpt lat="45.27202" lon="0.35527">
        <ele>111</ele>
        <time>2016-06-24T13:19:27Z</time>
      </trkpt>
      <trkpt lat="45.27207" lon="0.35527">
        <ele>109</ele>
        <time>2016-06-24T13:19:31Z</time>
      </trkpt>
      <trkpt lat="45.27211" lon="0.35528">
        <ele>109</ele>
        <time>2016-06-24T13:19:36Z</time>
      </trkpt>
      <trkpt lat="45.27215" lon="0.35528">
        <ele>109</ele>
        <time>2016-06-24T13:19:41Z</time>
      </trkpt>
      <trkpt lat="45.27222" lon="0.35529">
        <ele>105</ele>
        <time>2016-06-24T13:19:46Z</time>
      </trkpt>
      <trkpt lat="45.27225" lon="0.35531">
        <ele>105</ele>
        <time>2016-06-24T13:19:50Z</time>
      </trkpt>
      <trkpt lat="45.27229" lon="0.35529">
        <ele>105</ele>
        <time>2016-06-24T13:19:56Z</time>
      </trkpt>
      <trkpt lat="45.27235" lon="0.35531">
        <ele>109</ele>
        <time>2016-06-24T13:20:01Z</time>
      </trkpt>
      <trkpt lat="45.2724" lon="0.35531">
        <ele>110</ele>
        <time>2016-06-24T13:20:06Z</time>
      </trkpt>
      <trkpt lat="45.27244" lon="0.35531">
        <ele>108</ele>
        <time>2016-06-24T13:20:11Z</time>
      </trkpt>
      <trkpt lat="45.2725" lon="0.35531">
        <ele>109</ele>
        <time>2016-06-24T13:20:16Z</time>
      </trkpt>
      <trkpt lat="45.27254" lon="0.35537">
        <ele>113</ele>
        <time>2016-06-24T13:20:20Z</time>
      </trkpt>
      <trkpt lat="45.27256" lon="0.35534">
        <ele>111</ele>
        <time>2016-06-24T13:20:36Z</time>
      </trkpt>
      <trkpt lat="45.27262" lon="0.35539">
        <ele>112</ele>
        <time>2016-06-24T13:20:40Z</time>
      </trkpt>
      <trkpt lat="45.27267" lon="0.3554">
        <ele>106</ele>
        <time>2016-06-24T13:20:44Z</time>
      </trkpt>
      <trkpt lat="45.27276" lon="0.35541">
        <ele>105</ele>
        <time>2016-06-24T13:20:49Z</time>
      </trkpt>
      <trkpt lat="45.2728" lon="0.35542">
        <ele>100</ele>
        <time>2016-06-24T13:20:53Z</time>
      </trkpt>
      <trkpt lat="45.27288" lon="0.35544">
        <ele>103</ele>
        <time>2016-06-24T13:20:58Z</time>
      </trkpt>
      <trkpt lat="45.27291" lon="0.35545">
        <ele>102</ele>
        <time>2016-06-24T13:21:03Z</time>
      </trkpt>
      <trkpt lat="45.27297" lon="0.35547">
        <ele>100</ele>
        <time>2016-06-24T13:21:07Z</time>
      </trkpt>
      <trkpt lat="45.27304" lon="0.35548">
        <ele>102</ele>
        <time>2016-06-24T13:21:11Z</time>
      </trkpt>
      <trkpt lat="45.27309" lon="0.35553">
        <ele>103</ele>
        <time>2016-06-24T13:21:15Z</time>
      </trkpt>
      <trkpt lat="45.27314" lon="0.35554">
        <ele>101</ele>
        <time>2016-06-24T13:21:19Z</time>
      </trkpt>
      <trkpt lat="45.27317" lon="0.35557">
        <ele>97</ele>
        <time>2016-06-24T13:21:24Z</time>
      </trkpt>
      <trkpt lat="45.27319" lon="0.35563">
        <ele>96</ele>
        <time>2016-06-24T13:21:29Z</time>
      </trkpt>
      <trkpt lat="45.27317" lon="0.3557">
        <ele>95</ele>
        <time>2016-06-24T13:21:33Z</time>
      </trkpt>
      <trkpt lat="45.27316" lon="0.35575">
        <ele>94</ele>
        <time>2016-06-24T13:21:37Z</time>
      </trkpt>
      <trkpt lat="45.27315" lon="0.35583">
        <ele>94</ele>
        <time>2016-06-24T13:21:42Z</time>
      </trkpt>
      <trkpt lat="45.27313" lon="0.35589">
        <ele>93</ele>
        <time>2016-06-24T13:21:46Z</time>
      </trkpt>
      <trkpt lat="45.27312" lon="0.35595">
        <ele>93</ele>
        <time>2016-06-24T13:21:50Z</time>
      </trkpt>
      <trkpt lat="45.27311" lon="0.35601">
        <ele>92</ele>
        <time>2016-06-24T13:21:56Z</time>
      </trkpt>
      <trkpt lat="45.27315" lon="0.35609">
        <ele>89</ele>
        <time>2016-06-24T13:22:00Z</time>
      </trkpt>
      <trkpt lat="45.27319" lon="0.35616">
        <ele>89</ele>
        <time>2016-06-24T13:22:05Z</time>
      </trkpt>
      <trkpt lat="45.27326" lon="0.35617">
        <ele>91</ele>
        <time>2016-06-24T13:22:09Z</time>
      </trkpt>
      <trkpt lat="45.2733" lon="0.35623">
        <ele>94</ele>
        <time>2016-06-24T13:22:13Z</time>
      </trkpt>
      <trkpt lat="45.27335" lon="0.35624">
        <ele>94</ele>
        <time>2016-06-24T13:22:18Z</time>
      </trkpt>
      <trkpt lat="45.2734" lon="0.3562">
        <ele>94</ele>
        <time>2016-06-24T13:22:22Z</time>
      </trkpt>
      <trkpt lat="45.27345" lon="0.35627">
        <ele>97</ele>
        <time>2016-06-24T13:22:27Z</time>
      </trkpt>
      <trkpt lat="45.27348" lon="0.35633">
        <ele>101</ele>
        <time>2016-06-24T13:22:31Z</time>
      </trkpt>
      <trkpt lat="45.27351" lon="0.35637">
        <ele>102</ele>
        <time>2016-06-24T13:22:35Z</time>
      </trkpt>
      <trkpt lat="45.27351" lon="0.35643">
        <ele>100</ele>
        <time>2016-06-24T13:22:40Z</time>
      </trkpt>
      <trkpt lat="45.27355" lon="0.35649">
        <ele>96</ele>
        <time>2016-06-24T13:22:44Z</time>
      </trkpt>
      <trkpt lat="45.27358" lon="0.35653">
        <ele>91</ele>
        <time>2016-06-24T13:22:55Z</time>
      </trkpt>
      <trkpt lat="45.2736" lon="0.35658">
        <ele>92</ele>
        <time>2016-06-24T13:23:01Z</time>
      </trkpt>
      <trkpt lat="45.27361" lon="0.35664">
        <ele>94</ele>
        <time>2016-06-24T13:23:05Z</time>
      </trkpt>
      <trkpt lat="45.27365" lon="0.35672">
        <ele>95</ele>
        <time>2016-06-24T13:23:09Z</time>
      </trkpt>
      <trkpt lat="45.27368" lon="0.35677">
        <ele>91</ele>
        <time>2016-06-24T13:23:15Z</time>
      </trkpt>
      <trkpt lat="45.27372" lon="0.35678">
        <ele>96</ele>
        <time>2016-06-24T13:23:25Z</time>
      </trkpt>
      <trkpt lat="45.27378" lon="0.35675">
        <ele>98</ele>
        <time>2016-06-24T13:23:30Z</time>
      </trkpt>
      <trkpt lat="45.27383" lon="0.35672">
        <ele>99</ele>
        <time>2016-06-24T13:23:34Z</time>
      </trkpt>
      <trkpt lat="45.27387" lon="0.35662">
        <ele>100</ele>
        <time>2016-06-24T13:23:39Z</time>
      </trkpt>
      <trkpt lat="45.2739" lon="0.35659">
        <ele>101</ele>
        <time>2016-06-24T13:23:43Z</time>
      </trkpt>
      <trkpt lat="45.27397" lon="0.35661">
        <ele>101</ele>
        <time>2016-06-24T13:23:48Z</time>
      </trkpt>
      <trkpt lat="45.27401" lon="0.3566">
        <ele>103</ele>
        <time>2016-06-24T13:23:55Z</time>
      </trkpt>
      <trkpt lat="45.27407" lon="0.35658">
        <ele>103</ele>
        <time>2016-06-24T13:24:00Z</time>
      </trkpt>
      <trkpt lat="45.27411" lon="0.35659">
        <ele>103</ele>
        <time>2016-06-24T13:24:04Z</time>
      </trkpt>
      <trkpt lat="45.27417" lon="0.35661">
        <ele>103</ele>
        <time>2016-06-24T13:24:09Z</time>
      </trkpt>
      <trkpt lat="45.27422" lon="0.35662">
        <ele>103</ele>
        <time>2016-06-24T13:24:13Z</time>
      </trkpt>
      <trkpt lat="45.27428" lon="0.35664">
        <ele>103</ele>
        <time>2016-06-24T13:24:18Z</time>
      </trkpt>
      <trkpt lat="45.27433" lon="0.35667">
        <ele>105</ele>
        <time>2016-06-24T13:24:22Z</time>
      </trkpt>
      <trkpt lat="45.27438" lon="0.35669">
        <ele>105</ele>
        <time>2016-06-24T13:24:27Z</time>
      </trkpt>
      <trkpt lat="45.27443" lon="0.3567">
        <ele>104</ele>
        <time>2016-06-24T13:24:31Z</time>
      </trkpt>
      <trkpt lat="45.27447" lon="0.35672">
        <ele>104</ele>
        <time>2016-06-24T13:24:35Z</time>
      </trkpt>
      <trkpt lat="45.27454" lon="0.35676">
        <ele>104</ele>
        <time>2016-06-24T13:24:40Z</time>
      </trkpt>
      <trkpt lat="45.27459" lon="0.35677">
        <ele>104</ele>
        <time>2016-06-24T13:24:44Z</time>
      </trkpt>
      <trkpt lat="45.27465" lon="0.3568">
        <ele>105</ele>
        <time>2016-06-24T13:24:49Z</time>
      </trkpt>
      <trkpt lat="45.27469" lon="0.35679">
        <ele>106</ele>
        <time>2016-06-24T13:24:53Z</time>
      </trkpt>
      <trkpt lat="45.27474" lon="0.35679">
        <ele>108</ele>
        <time>2016-06-24T13:24:57Z</time>
      </trkpt>
      <trkpt lat="45.27482" lon="0.35682">
        <ele>109</ele>
        <time>2016-06-24T13:25:02Z</time>
      </trkpt>
      <trkpt lat="45.27487" lon="0.35684">
        <ele>110</ele>
        <time>2016-06-24T13:25:06Z</time>
      </trkpt>
      <trkpt lat="45.27492" lon="0.35684">
        <ele>110</ele>
        <time>2016-06-24T13:25:10Z</time>
      </trkpt>
      <trkpt lat="45.27498" lon="0.35682">
        <ele>110</ele>
        <time>2016-06-24T13:25:14Z</time>
      </trkpt>
      <trkpt lat="45.27504" lon="0.35679">
        <ele>108</ele>
        <time>2016-06-24T13:25:19Z</time>
      </trkpt>
      <trkpt lat="45.2751" lon="0.35679">
        <ele>108</ele>
        <time>2016-06-24T13:25:24Z</time>
      </trkpt>
      <trkpt lat="45.27514" lon="0.35679">
        <ele>110</ele>
        <time>2016-06-24T13:25:34Z</time>
      </trkpt>
      <trkpt lat="45.27518" lon="0.35677">
        <ele>110</ele>
        <time>2016-06-24T13:25:38Z</time>
      </trkpt>
      <trkpt lat="45.27523" lon="0.35675">
        <ele>108</ele>
        <time>2016-06-24T13:25:42Z</time>
      </trkpt>
      <trkpt lat="45.27529" lon="0.35675">
        <ele>110</ele>
        <time>2016-06-24T13:25:46Z</time>
      </trkpt>
      <trkpt lat="45.27534" lon="0.35679">
        <ele>112</ele>
        <time>2016-06-24T13:25:51Z</time>
      </trkpt>
      <trkpt lat="45.27538" lon="0.35676">
        <ele>111</ele>
        <time>2016-06-24T13:25:55Z</time>
      </trkpt>
      <trkpt lat="45.27545" lon="0.35675">
        <ele>112</ele>
        <time>2016-06-24T13:26:00Z</time>
      </trkpt>
      <trkpt lat="45.27548" lon="0.3567">
        <ele>109</ele>
        <time>2016-06-24T13:26:04Z</time>
      </trkpt>
      <trkpt lat="45.27555" lon="0.35668">
        <ele>110</ele>
        <time>2016-06-24T13:26:09Z</time>
      </trkpt>
      <trkpt lat="45.2756" lon="0.35669">
        <ele>111</ele>
        <time>2016-06-24T13:26:13Z</time>
      </trkpt>
      <trkpt lat="45.27562" lon="0.35662">
        <ele>109</ele>
        <time>2016-06-24T13:26:17Z</time>
      </trkpt>
      <trkpt lat="45.27571" lon="0.35662">
        <ele>108</ele>
        <time>2016-06-24T13:26:21Z</time>
      </trkpt>
      <trkpt lat="45.27578" lon="0.35657">
        <ele>109</ele>
        <time>2016-06-24T13:26:26Z</time>
      </trkpt>
      <trkpt lat="45.27584" lon="0.35657">
        <ele>108</ele>
        <time>2016-06-24T13:26:30Z</time>
      </trkpt>
      <trkpt lat="45.27591" lon="0.35658">
        <ele>108</ele>
        <time>2016-06-24T13:26:35Z</time>
      </trkpt>
      <trkpt lat="45.27596" lon="0.35659">
        <ele>111</ele>
        <time>2016-06-24T13:26:39Z</time>
      </trkpt>
      <trkpt lat="45.27602" lon="0.3566">
        <ele>110</ele>
        <time>2016-06-24T13:26:44Z</time>
      </trkpt>
      <trkpt lat="45.27607" lon="0.35664">
        <ele>113</ele>
        <time>2016-06-24T13:26:49Z</time>
      </trkpt>
      <trkpt lat="45.27613" lon="0.35668">
        <ele>113</ele>
        <time>2016-06-24T13:26:54Z</time>
      </trkpt>
      <trkpt lat="45.27618" lon="0.35673">
        <ele>116</ele>
        <time>2016-06-24T13:26:59Z</time>
      </trkpt>
      <trkpt lat="45.27625" lon="0.35677">
        <ele>116</ele>
        <time>2016-06-24T13:27:04Z</time>
      </trkpt>
      <trkpt lat="45.27629" lon="0.35678">
        <ele>118</ele>
        <time>2016-06-24T13:27:08Z</time>
      </trkpt>
      <trkpt lat="45.27633" lon="0.35674">
        <ele>117</ele>
        <time>2016-06-24T13:27:12Z</time>
      </trkpt>
      <trkpt lat="45.27636" lon="0.35661">
        <ele>116</ele>
        <time>2016-06-24T13:27:17Z</time>
      </trkpt>
      <trkpt lat="45.27637" lon="0.35653">
        <ele>116</ele>
        <time>2016-06-24T13:27:22Z</time>
      </trkpt>
      <trkpt lat="45.27638" lon="0.35644">
        <ele>116</ele>
        <time>2016-06-24T13:27:26Z</time>
      </trkpt>
      <trkpt lat="45.27638" lon="0.35626">
        <ele>114</ele>
        <time>2016-06-24T13:27:30Z</time>
      </trkpt>
      <trkpt lat="45.2764" lon="0.35617">
        <ele>113</ele>
        <time>2016-06-24T13:27:35Z</time>
      </trkpt>
      <trkpt lat="45.27642" lon="0.35609">
        <ele>114</ele>
        <time>2016-06-24T13:27:40Z</time>
      </trkpt>
      <trkpt lat="45.27645" lon="0.35604">
        <ele>113</ele>
        <time>2016-06-24T13:27:46Z</time>
      </trkpt>
      <trkpt lat="45.27649" lon="0.35603">
        <ele>110</ele>
        <time>2016-06-24T13:28:01Z</time>
      </trkpt>
      <trkpt lat="45.27654" lon="0.35605">
        <ele>109</ele>
        <time>2016-06-24T13:28:06Z</time>
      </trkpt>
      <trkpt lat="45.27662" lon="0.35608">
        <ele>110</ele>
        <time>2016-06-24T13:28:11Z</time>
      </trkpt>
      <trkpt lat="45.27667" lon="0.35612">
        <ele>110</ele>
        <time>2016-06-24T13:28:15Z</time>
      </trkpt>
      <trkpt lat="45.27672" lon="0.35614">
        <ele>110</ele>
        <time>2016-06-24T13:28:19Z</time>
      </trkpt>
      <trkpt lat="45.27678" lon="0.35618">
        <ele>111</ele>
        <time>2016-06-24T13:28:24Z</time>
      </trkpt>
      <trkpt lat="45.27684" lon="0.35617">
        <ele>110</ele>
        <time>2016-06-24T13:28:29Z</time>
      </trkpt>
      <trkpt lat="45.27687" lon="0.35618">
        <ele>112</ele>
        <time>2016-06-24T13:28:34Z</time>
      </trkpt>
      <trkpt lat="45.27693" lon="0.35616">
        <ele>109</ele>
        <time>2016-06-24T13:28:38Z</time>
      </trkpt>
      <trkpt lat="45.277" lon="0.35618">
        <ele>111</ele>
        <time>2016-06-24T13:28:43Z</time>
      </trkpt>
      <trkpt lat="45.27706" lon="0.35618">
        <ele>111</ele>
        <time>2016-06-24T13:28:47Z</time>
      </trkpt>
      <trkpt lat="45.27711" lon="0.35618">
        <ele>110</ele>
        <time>2016-06-24T13:28:52Z</time>
      </trkpt>
      <trkpt lat="45.27716" lon="0.3562">
        <ele>109</ele>
        <time>2016-06-24T13:28:57Z</time>
      </trkpt>
      <trkpt lat="45.27721" lon="0.35616">
        <ele>106</ele>
        <time>2016-06-24T13:29:01Z</time>
      </trkpt>
      <trkpt lat="45.27721" lon="0.35611">
        <ele>107</ele>
        <time>2016-06-24T13:29:12Z</time>
      </trkpt>
      <trkpt lat="45.27718" lon="0.35606">
        <ele>106</ele>
        <time>2016-06-24T13:29:16Z</time>
      </trkpt>
      <trkpt lat="45.27714" lon="0.35603">
        <ele>107</ele>
        <time>2016-06-24T13:29:26Z</time>
      </trkpt>
      <trkpt lat="45.2771" lon="0.35602">
        <ele>107</ele>
        <time>2016-06-24T13:29:31Z</time>
      </trkpt>
      <trkpt lat="45.27707" lon="0.35599">
        <ele>106</ele>
        <time>2016-06-24T13:29:36Z</time>
      </trkpt>
      <trkpt lat="45.27701" lon="0.35598">
        <ele>106</ele>
        <time>2016-06-24T13:29:41Z</time>
      </trkpt>
      <trkpt lat="45.27697" lon="0.35599">
        <ele>108</ele>
        <time>2016-06-24T13:29:46Z</time>
      </trkpt>
      <trkpt lat="45.27688" lon="0.35599">
        <ele>108</ele>
        <time>2016-06-24T13:29:51Z</time>
      </trkpt>
      <trkpt lat="45.27684" lon="0.35597">
        <ele>108</ele>
        <time>2016-06-24T13:29:57Z</time>
      </trkpt>
      <trkpt lat="45.27677" lon="0.35597">
        <ele>109</ele>
        <time>2016-06-24T13:30:01Z</time>
      </trkpt>
      <trkpt lat="45.27672" lon="0.35597">
        <ele>113</ele>
        <time>2016-06-24T13:30:06Z</time>
      </trkpt>
      <trkpt lat="45.27666" lon="0.35595">
        <ele>113</ele>
        <time>2016-06-24T13:30:11Z</time>
      </trkpt>
      <trkpt lat="45.2766" lon="0.35594">
        <ele>112</ele>
        <time>2016-06-24T13:30:16Z</time>
      </trkpt>
      <trkpt lat="45.27654" lon="0.35593">
        <ele>111</ele>
        <time>2016-06-24T13:30:20Z</time>
      </trkpt>
      <trkpt lat="45.2765" lon="0.35593">
        <ele>110</ele>
        <time>2016-06-24T13:30:29Z</time>
      </trkpt>
      <trkpt lat="45.27647" lon="0.35597">
        <ele>110</ele>
        <time>2016-06-24T13:30:39Z</time>
      </trkpt>
      <trkpt lat="45.27642" lon="0.35603">
        <ele>108</ele>
        <time>2016-06-24T13:30:43Z</time>
      </trkpt>
      <trkpt lat="45.27641" lon="0.35612">
        <ele>108</ele>
        <time>2016-06-24T13:30:48Z</time>
      </trkpt>
      <trkpt lat="45.27638" lon="0.3562">
        <ele>107</ele>
        <time>2016-06-24T13:30:53Z</time>
      </trkpt>
      <trkpt lat="45.27633" lon="0.35628">
        <ele>104</ele>
        <time>2016-06-24T13:30:58Z</time>
      </trkpt>
      <trkpt lat="45.27631" lon="0.35634">
        <ele>102</ele>
        <time>2016-06-24T13:31:02Z</time>
      </trkpt>
      <trkpt lat="45.2763" lon="0.3564">
        <ele>100</ele>
        <time>2016-06-24T13:31:06Z</time>
      </trkpt>
      <trkpt lat="45.27629" lon="0.35647">
        <ele>100</ele>
        <time>2016-06-24T13:31:10Z</time>
      </trkpt>
      <trkpt lat="45.27626" lon="0.35654">
        <ele>98</ele>
        <time>2016-06-24T13:31:15Z</time>
      </trkpt>
      <trkpt lat="45.27624" lon="0.35662">
        <ele>96</ele>
        <time>2016-06-24T13:31:19Z</time>
      </trkpt>
      <trkpt lat="45.2762" lon="0.35668">
        <ele>95</ele>
        <time>2016-06-24T13:31:24Z</time>
      </trkpt>
      <trkpt lat="45.27619" lon="0.35675">
        <ele>95</ele>
        <time>2016-06-24T13:31:29Z</time>
      </trkpt>
      <trkpt lat="45.27619" lon="0.35683">
        <ele>96</ele>
        <time>2016-06-24T13:31:33Z</time>
      </trkpt>
      <trkpt lat="45.27618" lon="0.35692">
        <ele>96</ele>
        <time>2016-06-24T13:31:38Z</time>
      </trkpt>
      <trkpt lat="45.27616" lon="0.35702">
        <ele>94</ele>
        <time>2016-06-24T13:31:43Z</time>
      </trkpt>
      <trkpt lat="45.27614" lon="0.35709">
        <ele>93</ele>
        <time>2016-06-24T13:31:47Z</time>
      </trkpt>
      <trkpt lat="45.27613" lon="0.35719">
        <ele>92</ele>
        <time>2016-06-24T13:31:52Z</time>
      </trkpt>
      <trkpt lat="45.27614" lon="0.35728">
        <ele>92</ele>
        <time>2016-06-24T13:31:57Z</time>
      </trkpt>
      <trkpt lat="45.27614" lon="0.35734">
        <ele>92</ele>
        <time>2016-06-24T13:32:01Z</time>
      </trkpt>
      <trkpt lat="45.27611" lon="0.35745">
        <ele>91</ele>
        <time>2016-06-24T13:32:06Z</time>
      </trkpt>
      <trkpt lat="45.27612" lon="0.35753">
        <ele>92</ele>
        <time>2016-06-24T13:32:10Z</time>
      </trkpt>
      <trkpt lat="45.27617" lon="0.35761">
        <ele>93</ele>
        <time>2016-06-24T13:32:15Z</time>
      </trkpt>
      <trkpt lat="45.2762" lon="0.35768">
        <ele>93</ele>
        <time>2016-06-24T13:32:19Z</time>
      </trkpt>
      <trkpt lat="45.27622" lon="0.35775">
        <ele>92</ele>
        <time>2016-06-24T13:32:23Z</time>
      </trkpt>
      <trkpt lat="45.27625" lon="0.35781">
        <ele>91</ele>
        <time>2016-06-24T13:32:28Z</time>
      </trkpt>
      <trkpt lat="45.27627" lon="0.35786">
        <ele>92</ele>
        <time>2016-06-24T13:32:47Z</time>
      </trkpt>
      <trkpt lat="45.27632" lon="0.35792">
        <ele>91</ele>
        <time>2016-06-24T13:32:52Z</time>
      </trkpt>
      <trkpt lat="45.27637" lon="0.35794">
        <ele>91</ele>
        <time>2016-06-24T13:32:56Z</time>
      </trkpt>
      <trkpt lat="45.27643" lon="0.35796">
        <ele>91</ele>
        <time>2016-06-24T13:33:01Z</time>
      </trkpt>
      <trkpt lat="45.27648" lon="0.35798">
        <ele>90</ele>
        <time>2016-06-24T13:33:05Z</time>
      </trkpt>
      <trkpt lat="45.27652" lon="0.35802">
        <ele>89</ele>
        <time>2016-06-24T13:33:10Z</time>
      </trkpt>
      <trkpt lat="45.27657" lon="0.35802">
        <ele>88</ele>
        <time>2016-06-24T13:33:14Z</time>
      </trkpt>
      <trkpt lat="45.27659" lon="0.35804">
        <ele>88</ele>
        <time>2016-06-24T13:33:20Z</time>
      </trkpt>
      <trkpt lat="45.27667" lon="0.35809">
        <ele>90</ele>
        <time>2016-06-24T13:33:24Z</time>
      </trkpt>
      <trkpt lat="45.27674" lon="0.35809">
        <ele>91</ele>
        <time>2016-06-24T13:33:28Z</time>
      </trkpt>
      <trkpt lat="45.27682" lon="0.35806">
        <ele>91</ele>
        <time>2016-06-24T13:33:33Z</time>
      </trkpt>
      <trkpt lat="45.27686" lon="0.35801">
        <ele>91</ele>
        <time>2016-06-24T13:33:37Z</time>
      </trkpt>
      <trkpt lat="45.27691" lon="0.35798">
        <ele>92</ele>
        <time>2016-06-24T13:33:41Z</time>
      </trkpt>
      <trkpt lat="45.27696" lon="0.35791">
        <ele>94</ele>
        <time>2016-06-24T13:33:46Z</time>
      </trkpt>
      <trkpt lat="45.27698" lon="0.35785">
        <ele>95</ele>
        <time>2016-06-24T13:33:51Z</time>
      </trkpt>
      <trkpt lat="45.27699" lon="0.35777">
        <ele>93</ele>
        <time>2016-06-24T13:33:55Z</time>
      </trkpt>
      <trkpt lat="45.27701" lon="0.35773">
        <ele>95</ele>
        <time>2016-06-24T13:34:00Z</time>
      </trkpt>
      <trkpt lat="45.27704" lon="0.35771">
        <ele>97</ele>
        <time>2016-06-24T13:34:13Z</time>
      </trkpt>
      <trkpt lat="45.27708" lon="0.35771">
        <ele>99</ele>
        <time>2016-06-24T13:34:20Z</time>
      </trkpt>
      <trkpt lat="45.27712" lon="0.35772">
        <ele>100</ele>
        <time>2016-06-24T13:34:24Z</time>
      </trkpt>
      <trkpt lat="45.27716" lon="0.35773">
        <ele>99</ele>
        <time>2016-06-24T13:34:28Z</time>
      </trkpt>
      <trkpt lat="45.27721" lon="0.35774">
        <ele>99</ele>
        <time>2016-06-24T13:34:32Z</time>
      </trkpt>
      <trkpt lat="45.27726" lon="0.35778">
        <ele>100</ele>
        <time>2016-06-24T13:34:37Z</time>
      </trkpt>
      <trkpt lat="45.2773" lon="0.35781">
        <ele>100</ele>
        <time>2016-06-24T13:34:41Z</time>
      </trkpt>
      <trkpt lat="45.27733" lon="0.35785">
        <ele>98</ele>
        <time>2016-06-24T13:34:45Z</time>
      </trkpt>
      <trkpt lat="45.27735" lon="0.3579">
        <ele>97</ele>
        <time>2016-06-24T13:34:49Z</time>
      </trkpt>
      <trkpt lat="45.27736" lon="0.35795">
        <ele>97</ele>
        <time>2016-06-24T13:35:30Z</time>
      </trkpt>
      <trkpt lat="45.27735" lon="0.358">
        <ele>93</ele>
        <time>2016-06-24T13:35:54Z</time>
      </trkpt>
      <trkpt lat="45.27736" lon="0.35806">
        <ele>92</ele>
        <time>2016-06-24T13:35:58Z</time>
      </trkpt>
      <trkpt lat="45.27738" lon="0.35812">
        <ele>88</ele>
        <time>2016-06-24T13:36:21Z</time>
      </trkpt>
      <trkpt lat="45.27739" lon="0.35817">
        <ele>87</ele>
        <time>2016-06-24T13:36:25Z</time>
      </trkpt>
      <trkpt lat="45.27741" lon="0.35825">
        <ele>86</ele>
        <time>2016-06-24T13:36:30Z</time>
      </trkpt>
      <trkpt lat="45.27743" lon="0.35831">
        <ele>87</ele>
        <time>2016-06-24T13:36:35Z</time>
      </trkpt>
      <trkpt lat="45.27746" lon="0.35834">
        <ele>89</ele>
        <time>2016-06-24T13:37:20Z</time>
      </trkpt>
      <trkpt lat="45.27747" lon="0.3584">
        <ele>89</ele>
        <time>2016-06-24T13:37:41Z</time>
      </trkpt>
      <trkpt lat="45.27751" lon="0.35853">
        <ele>91</ele>
        <time>2016-06-24T13:37:46Z</time>
      </trkpt>
      <trkpt lat="45.27754" lon="0.35862">
        <ele>92</ele>
        <time>2016-06-24T13:37:50Z</time>
      </trkpt>
      <trkpt lat="45.27759" lon="0.35869">
        <ele>90</ele>
        <time>2016-06-24T13:37:55Z</time>
      </trkpt>
      <trkpt lat="45.27764" lon="0.35874">
        <ele>90</ele>
        <time>2016-06-24T13:37:59Z</time>
      </trkpt>
      <trkpt lat="45.27771" lon="0.35881">
        <ele>89</ele>
        <time>2016-06-24T13:38:04Z</time>
      </trkpt>
      <trkpt lat="45.27773" lon="0.35886">
        <ele>88</ele>
        <time>2016-06-24T13:38:08Z</time>
      </trkpt>
      <trkpt lat="45.27777" lon="0.35888">
        <ele>90</ele>
        <time>2016-06-24T13:38:12Z</time>
      </trkpt>
      <trkpt lat="45.27781" lon="0.35892">
        <ele>93</ele>
        <time>2016-06-24T13:38:17Z</time>
      </trkpt>
      <trkpt lat="45.27785" lon="0.35893">
        <ele>93</ele>
        <time>2016-06-24T13:38:21Z</time>
      </trkpt>
      <trkpt lat="45.27794" lon="0.35894">
        <ele>92</ele>
        <time>2016-06-24T13:38:26Z</time>
      </trkpt>
      <trkpt lat="45.27799" lon="0.35897">
        <ele>90</ele>
        <time>2016-06-24T13:38:30Z</time>
      </trkpt>
      <trkpt lat="45.27807" lon="0.35899">
        <ele>91</ele>
        <time>2016-06-24T13:38:34Z</time>
      </trkpt>
      <trkpt lat="45.27813" lon="0.35902">
        <ele>93</ele>
        <time>2016-06-24T13:38:38Z</time>
      </trkpt>
      <trkpt lat="45.27818" lon="0.35901">
        <ele>93</ele>
        <time>2016-06-24T13:38:42Z</time>
      </trkpt>
      <trkpt lat="45.27822" lon="0.35905">
        <ele>96</ele>
        <time>2016-06-24T13:38:48Z</time>
      </trkpt>
      <trkpt lat="45.27826" lon="0.35907">
        <ele>95</ele>
        <time>2016-06-24T13:38:53Z</time>
      </trkpt>
      <trkpt lat="45.2783" lon="0.35911">
        <ele>96</ele>
        <time>2016-06-24T13:38:57Z</time>
      </trkpt>
      <trkpt lat="45.27834" lon="0.3591">
        <ele>95</ele>
        <time>2016-06-24T13:39:09Z</time>
      </trkpt>
      <trkpt lat="45.27838" lon="0.35911">
        <ele>94</ele>
        <time>2016-06-24T13:39:24Z</time>
      </trkpt>
      <trkpt lat="45.27849" lon="0.35913">
        <ele>88</ele>
        <time>2016-06-24T13:39:28Z</time>
      </trkpt>
      <trkpt lat="45.27859" lon="0.35917">
        <ele>87</ele>
        <time>2016-06-24T13:39:32Z</time>
      </trkpt>
      <trkpt lat="45.27869" lon="0.35922">
        <ele>90</ele>
        <time>2016-06-24T13:39:36Z</time>
      </trkpt>
      <trkpt lat="45.27877" lon="0.35926">
        <ele>95</ele>
        <time>2016-06-24T13:39:40Z</time>
      </trkpt>
      <trkpt lat="45.27881" lon="0.35928">
        <ele>97</ele>
        <time>2016-06-24T13:39:44Z</time>
      </trkpt>
      <trkpt lat="45.27889" lon="0.35931">
        <ele>102</ele>
        <time>2016-06-24T13:39:49Z</time>
      </trkpt>
      <trkpt lat="45.27895" lon="0.35931">
        <ele>102</ele>
        <time>2016-06-24T13:39:53Z</time>
      </trkpt>
      <trkpt lat="45.27903" lon="0.3593">
        <ele>101</ele>
        <time>2016-06-24T13:39:58Z</time>
      </trkpt>
      <trkpt lat="45.27909" lon="0.35929">
        <ele>102</ele>
        <time>2016-06-24T13:40:02Z</time>
      </trkpt>
      <trkpt lat="45.27914" lon="0.35932">
        <ele>104</ele>
        <time>2016-06-24T13:40:06Z</time>
      </trkpt>
      <trkpt lat="45.27918" lon="0.35931">
        <ele>102</ele>
        <time>2016-06-24T13:40:10Z</time>
      </trkpt>
      <trkpt lat="45.27923" lon="0.35928">
        <ele>98</ele>
        <time>2016-06-24T13:40:14Z</time>
      </trkpt>
      <trkpt lat="45.27928" lon="0.35926">
        <ele>100</ele>
        <time>2016-06-24T13:40:19Z</time>
      </trkpt>
      <trkpt lat="45.27932" lon="0.35925">
        <ele>102</ele>
        <time>2016-06-24T13:40:23Z</time>
      </trkpt>
      <trkpt lat="45.27939" lon="0.35925">
        <ele>105</ele>
        <time>2016-06-24T13:40:27Z</time>
      </trkpt>
      <trkpt lat="45.27946" lon="0.35923">
        <ele>105</ele>
        <time>2016-06-24T13:40:31Z</time>
      </trkpt>
      <trkpt lat="45.27951" lon="0.35925">
        <ele>108</ele>
        <time>2016-06-24T13:40:35Z</time>
      </trkpt>
      <trkpt lat="45.27958" lon="0.35919">
        <ele>106</ele>
        <time>2016-06-24T13:40:40Z</time>
      </trkpt>
      <trkpt lat="45.27961" lon="0.35913">
        <ele>102</ele>
        <time>2016-06-24T13:40:45Z</time>
      </trkpt>
      <trkpt lat="45.27966" lon="0.35912">
        <ele>102</ele>
        <time>2016-06-24T13:40:49Z</time>
      </trkpt>
      <trkpt lat="45.27964" lon="0.35916">
        <ele>95</ele>
        <time>2016-06-24T13:41:03Z</time>
      </trkpt>
      <trkpt lat="45.27962" lon="0.35923">
        <ele>96</ele>
        <time>2016-06-24T13:41:08Z</time>
      </trkpt>
      <trkpt lat="45.27964" lon="0.35928">
        <ele>99</ele>
        <time>2016-06-24T13:41:12Z</time>
      </trkpt>
      <trkpt lat="45.27966" lon="0.35936">
        <ele>101</ele>
        <time>2016-06-24T13:41:17Z</time>
      </trkpt>
      <trkpt lat="45.27966" lon="0.35942">
        <ele>100</ele>
        <time>2016-06-24T13:41:21Z</time>
      </trkpt>
      <trkpt lat="45.27967" lon="0.35944">
        <ele>99</ele>
        <time>2016-06-24T13:41:29Z</time>
      </trkpt>
      <trkpt lat="45.27981" lon="0.35951">
        <ele>100</ele>
        <time>2016-06-24T13:41:34Z</time>
      </trkpt>
      <trkpt lat="45.27989" lon="0.35951">
        <ele>98</ele>
        <time>2016-06-24T13:41:39Z</time>
      </trkpt>
      <trkpt lat="45.27996" lon="0.35952">
        <ele>99</ele>
        <time>2016-06-24T13:41:43Z</time>
      </trkpt>
      <trkpt lat="45.28001" lon="0.35953">
        <ele>99</ele>
        <time>2016-06-24T13:41:48Z</time>
      </trkpt>
      <trkpt lat="45.28006" lon="0.35949">
        <ele>99</ele>
        <time>2016-06-24T13:41:52Z</time>
      </trkpt>
      <trkpt lat="45.28014" lon="0.35944">
        <ele>98</ele>
        <time>2016-06-24T13:41:57Z</time>
      </trkpt>
      <trkpt lat="45.28021" lon="0.35943">
        <ele>103</ele>
        <time>2016-06-24T13:42:01Z</time>
      </trkpt>
      <trkpt lat="45.28025" lon="0.3594">
        <ele>105</ele>
        <time>2016-06-24T13:42:06Z</time>
      </trkpt>
      <trkpt lat="45.28032" lon="0.35936">
        <ele>103</ele>
        <time>2016-06-24T13:42:11Z</time>
      </trkpt>
      <trkpt lat="45.28035" lon="0.35936">
        <ele>106</ele>
        <time>2016-06-24T13:42:15Z</time>
      </trkpt>
      <trkpt lat="45.2804" lon="0.35933">
        <ele>106</ele>
        <time>2016-06-24T13:42:19Z</time>
      </trkpt>
      <trkpt lat="45.28043" lon="0.35929">
        <ele>103</ele>
        <time>2016-06-24T13:42:24Z</time>
      </trkpt>
      <trkpt lat="45.28049" lon="0.35923">
        <ele>100</ele>
        <time>2016-06-24T13:42:29Z</time>
      </trkpt>
      <trkpt lat="45.28053" lon="0.35923">
        <ele>103</ele>
        <time>2016-06-24T13:42:33Z</time>
      </trkpt>
      <trkpt lat="45.28061" lon="0.35922">
        <ele>104</ele>
        <time>2016-06-24T13:42:38Z</time>
      </trkpt>
      <trkpt lat="45.28066" lon="0.35919">
        <ele>104</ele>
        <time>2016-06-24T13:42:43Z</time>
      </trkpt>
      <trkpt lat="45.28071" lon="0.35915">
        <ele>104</ele>
        <time>2016-06-24T13:42:47Z</time>
      </trkpt>
      <trkpt lat="45.28078" lon="0.35912">
        <ele>104</ele>
        <time>2016-06-24T13:42:52Z</time>
      </trkpt>
      <trkpt lat="45.28083" lon="0.35911">
        <ele>105</ele>
        <time>2016-06-24T13:42:56Z</time>
      </trkpt>
      <trkpt lat="45.28087" lon="0.35906">
        <ele>105</ele>
        <time>2016-06-24T13:43:01Z</time>
      </trkpt>
      <trkpt lat="45.28093" lon="0.35903">
        <ele>108</ele>
        <time>2016-06-24T13:43:05Z</time>
      </trkpt>
      <trkpt lat="45.28098" lon="0.359">
        <ele>104</ele>
        <time>2016-06-24T13:43:09Z</time>
      </trkpt>
      <trkpt lat="45.28103" lon="0.35897">
        <ele>106</ele>
        <time>2016-06-24T13:43:14Z</time>
      </trkpt>
      <trkpt lat="45.28109" lon="0.35897">
        <ele>108</ele>
        <time>2016-06-24T13:43:18Z</time>
      </trkpt>
      <trkpt lat="45.28115" lon="0.35892">
        <ele>109</ele>
        <time>2016-06-24T13:43:23Z</time>
      </trkpt>
      <trkpt lat="45.2812" lon="0.35887">
        <ele>109</ele>
        <time>2016-06-24T13:43:27Z</time>
      </trkpt>
      <trkpt lat="45.28125" lon="0.35884">
        <ele>111</ele>
        <time>2016-06-24T13:43:32Z</time>
      </trkpt>
      <trkpt lat="45.28131" lon="0.35881">
        <ele>113</ele>
        <time>2016-06-24T13:43:37Z</time>
      </trkpt>
      <trkpt lat="45.28136" lon="0.3588">
        <ele>115</ele>
        <time>2016-06-24T13:43:41Z</time>
      </trkpt>
      <trkpt lat="45.28141" lon="0.35874">
        <ele>116</ele>
        <time>2016-06-24T13:43:46Z</time>
      </trkpt>
      <trkpt lat="45.28145" lon="0.3587">
        <ele>116</ele>
        <time>2016-06-24T13:43:50Z</time>
      </trkpt>
      <trkpt lat="45.28152" lon="0.35862">
        <ele>114</ele>
        <time>2016-06-24T13:43:55Z</time>
      </trkpt>
      <trkpt lat="45.28156" lon="0.3586">
        <ele>119</ele>
        <time>2016-06-24T13:43:59Z</time>
      </trkpt>
      <trkpt lat="45.28161" lon="0.35855">
        <ele>120</ele>
        <time>2016-06-24T13:44:03Z</time>
      </trkpt>
      <trkpt lat="45.28166" lon="0.35849">
        <ele>118</ele>
        <time>2016-06-24T13:44:08Z</time>
      </trkpt>
      <trkpt lat="45.28172" lon="0.35844">
        <ele>117</ele>
        <time>2016-06-24T13:44:13Z</time>
      </trkpt>
      <trkpt lat="45.28174" lon="0.35836">
        <ele>117</ele>
        <time>2016-06-24T13:44:17Z</time>
      </trkpt>
      <trkpt lat="45.28179" lon="0.35835">
        <ele>120</ele>
        <time>2016-06-24T13:44:22Z</time>
      </trkpt>
      <trkpt lat="45.28182" lon="0.35828">
        <ele>117</ele>
        <time>2016-06-24T13:44:26Z</time>
      </trkpt>
      <trkpt lat="45.28191" lon="0.3582">
        <ele>116</ele>
        <time>2016-06-24T13:44:31Z</time>
      </trkpt>
      <trkpt lat="45.28196" lon="0.35816">
        <ele>115</ele>
        <time>2016-06-24T13:44:35Z</time>
      </trkpt>
      <trkpt lat="45.282" lon="0.35811">
        <ele>111</ele>
        <time>2016-06-24T13:44:39Z</time>
      </trkpt>
      <trkpt lat="45.28203" lon="0.3581">
        <ele>114</ele>
        <time>2016-06-24T13:44:44Z</time>
      </trkpt>
      <trkpt lat="45.28209" lon="0.35806">
        <ele>113</ele>
        <time>2016-06-24T13:44:48Z</time>
      </trkpt>
      <trkpt lat="45.28213" lon="0.35804">
        <ele>114</ele>
        <time>2016-06-24T13:44:54Z</time>
      </trkpt>
      <trkpt lat="45.28219" lon="0.35801">
        <ele>113</ele>
        <time>2016-06-24T13:44:58Z</time>
      </trkpt>
      <trkpt lat="45.28226" lon="0.35803">
        <ele>117</ele>
        <time>2016-06-24T13:45:03Z</time>
      </trkpt>
      <trkpt lat="45.28232" lon="0.35803">
        <ele>118</ele>
        <time>2016-06-24T13:45:07Z</time>
      </trkpt>
      <trkpt lat="45.28239" lon="0.35797">
        <ele>115</ele>
        <time>2016-06-24T13:45:12Z</time>
      </trkpt>
      <trkpt lat="45.28243" lon="0.35796">
        <ele>117</ele>
        <time>2016-06-24T13:45:17Z</time>
      </trkpt>
      <trkpt lat="45.28248" lon="0.35792">
        <ele>117</ele>
        <time>2016-06-24T13:45:21Z</time>
      </trkpt>
      <trkpt lat="45.28254" lon="0.35791">
        <ele>116</ele>
        <time>2016-06-24T13:45:25Z</time>
      </trkpt>
      <trkpt lat="45.2826" lon="0.35789">
        <ele>116</ele>
        <time>2016-06-24T13:45:29Z</time>
      </trkpt>
      <trkpt lat="45.28265" lon="0.35792">
        <ele>117</ele>
        <time>2016-06-24T13:45:34Z</time>
      </trkpt>
      <trkpt lat="45.2827" lon="0.35793">
        <ele>118</ele>
        <time>2016-06-24T13:45:38Z</time>
      </trkpt>
      <trkpt lat="45.28275" lon="0.35791">
        <ele>119</ele>
        <time>2016-06-24T13:45:42Z</time>
      </trkpt>
      <trkpt lat="45.2828" lon="0.35786">
        <ele>115</ele>
        <time>2016-06-24T13:45:47Z</time>
      </trkpt>
      <trkpt lat="45.28284" lon="0.35785">
        <ele>116</ele>
        <time>2016-06-24T13:45:52Z</time>
      </trkpt>
      <trkpt lat="45.28293" lon="0.35784">
        <ele>115</ele>
        <time>2016-06-24T13:45:56Z</time>
      </trkpt>
      <trkpt lat="45.28298" lon="0.35784">
        <ele>117</ele>
        <time>2016-06-24T13:46:00Z</time>
      </trkpt>
      <trkpt lat="45.28306" lon="0.35781">
        <ele>115</ele>
        <time>2016-06-24T13:46:05Z</time>
      </trkpt>
      <trkpt lat="45.28311" lon="0.35777">
        <ele>115</ele>
        <time>2016-06-24T13:46:09Z</time>
      </trkpt>
      <trkpt lat="45.28315" lon="0.35773">
        <ele>111</ele>
        <time>2016-06-24T13:46:13Z</time>
      </trkpt>
      <trkpt lat="45.2832" lon="0.3577">
        <ele>109</ele>
        <time>2016-06-24T13:46:18Z</time>
      </trkpt>
      <trkpt lat="45.28326" lon="0.3577">
        <ele>110</ele>
        <time>2016-06-24T13:46:22Z</time>
      </trkpt>
      <trkpt lat="45.28333" lon="0.35766">
        <ele>111</ele>
        <time>2016-06-24T13:46:27Z</time>
      </trkpt>
      <trkpt lat="45.28335" lon="0.35765">
        <ele>111</ele>
        <time>2016-06-24T13:46:31Z</time>
      </trkpt>
      <trkpt lat="45.2834" lon="0.35761">
        <ele>113</ele>
        <time>2016-06-24T13:46:35Z</time>
      </trkpt>
      <trkpt lat="45.28346" lon="0.35752">
        <ele>108</ele>
        <time>2016-06-24T13:46:39Z</time>
      </trkpt>
      <trkpt lat="45.28349" lon="0.35745">
        <ele>109</ele>
        <time>2016-06-24T13:46:43Z</time>
      </trkpt>
      <trkpt lat="45.28353" lon="0.35742">
        <ele>107</ele>
        <time>2016-06-24T13:46:47Z</time>
      </trkpt>
      <trkpt lat="45.28357" lon="0.35734">
        <ele>110</ele>
        <time>2016-06-24T13:46:51Z</time>
      </trkpt>
      <trkpt lat="45.28359" lon="0.3573">
        <ele>111</ele>
        <time>2016-06-24T13:46:55Z</time>
      </trkpt>
      <trkpt lat="45.28362" lon="0.35726">
        <ele>112</ele>
        <time>2016-06-24T13:46:59Z</time>
      </trkpt>
      <trkpt lat="45.28365" lon="0.35723">
        <ele>115</ele>
        <time>2016-06-24T13:47:04Z</time>
      </trkpt>
      <trkpt lat="45.28366" lon="0.35707">
        <ele>114</ele>
        <time>2016-06-24T13:47:09Z</time>
      </trkpt>
      <trkpt lat="45.28367" lon="0.35698">
        <ele>116</ele>
        <time>2016-06-24T13:47:13Z</time>
      </trkpt>
      <trkpt lat="45.2837" lon="0.35692">
        <ele>117</ele>
        <time>2016-06-24T13:47:17Z</time>
      </trkpt>
      <trkpt lat="45.28372" lon="0.35682">
        <ele>116</ele>
        <time>2016-06-24T13:47:21Z</time>
      </trkpt>
      <trkpt lat="45.28376" lon="0.35675">
        <ele>119</ele>
        <time>2016-06-24T13:47:26Z</time>
      </trkpt>
      <trkpt lat="45.2838" lon="0.3567">
        <ele>121</ele>
        <time>2016-06-24T13:47:31Z</time>
      </trkpt>
      <trkpt lat="45.28382" lon="0.35666">
        <ele>123</ele>
        <time>2016-06-24T13:47:35Z</time>
      </trkpt>
      <trkpt lat="45.28386" lon="0.3566">
        <ele>125</ele>
        <time>2016-06-24T13:47:40Z</time>
      </trkpt>
      <trkpt lat="45.28389" lon="0.35651">
        <ele>122</ele>
        <time>2016-06-24T13:47:44Z</time>
      </trkpt>
      <trkpt lat="45.28391" lon="0.3564">
        <ele>120</ele>
        <time>2016-06-24T13:47:49Z</time>
      </trkpt>
      <trkpt lat="45.28393" lon="0.35629">
        <ele>119</ele>
        <time>2016-06-24T13:47:54Z</time>
      </trkpt>
      <trkpt lat="45.28395" lon="0.35622">
        <ele>118</ele>
        <time>2016-06-24T13:47:58Z</time>
      </trkpt>
      <trkpt lat="45.28397" lon="0.35613">
        <ele>116</ele>
        <time>2016-06-24T13:48:02Z</time>
      </trkpt>
      <trkpt lat="45.28399" lon="0.35605">
        <ele>116</ele>
        <time>2016-06-24T13:48:07Z</time>
      </trkpt>
      <trkpt lat="45.284" lon="0.35599">
        <ele>119</ele>
        <time>2016-06-24T13:48:12Z</time>
      </trkpt>
      <trkpt lat="45.28402" lon="0.35592">
        <ele>118</ele>
        <time>2016-06-24T13:48:16Z</time>
      </trkpt>
      <trkpt lat="45.28404" lon="0.35587">
        <ele>120</ele>
        <time>2016-06-24T13:48:20Z</time>
      </trkpt>
      <trkpt lat="45.28407" lon="0.35582">
        <ele>120</ele>
        <time>2016-06-24T13:48:24Z</time>
      </trkpt>
      <trkpt lat="45.28411" lon="0.35576">
        <ele>120</ele>
        <time>2016-06-24T13:48:29Z</time>
      </trkpt>
      <trkpt lat="45.28416" lon="0.3557">
        <ele>120</ele>
        <time>2016-06-24T13:48:34Z</time>
      </trkpt>
      <trkpt lat="45.28418" lon="0.35566">
        <ele>122</ele>
        <time>2016-06-24T13:48:38Z</time>
      </trkpt>
      <trkpt lat="45.28423" lon="0.35554">
        <ele>119</ele>
        <time>2016-06-24T13:48:43Z</time>
      </trkpt>
      <trkpt lat="45.28426" lon="0.35548">
        <ele>119</ele>
        <time>2016-06-24T13:48:47Z</time>
      </trkpt>
      <trkpt lat="45.28429" lon="0.35541">
        <ele>118</ele>
        <time>2016-06-24T13:48:52Z</time>
      </trkpt>
      <trkpt lat="45.28434" lon="0.3554">
        <ele>122</ele>
        <time>2016-06-24T13:48:58Z</time>
      </trkpt>
      <trkpt lat="45.28438" lon="0.35532">
        <ele>124</ele>
        <time>2016-06-24T13:49:03Z</time>
      </trkpt>
      <trkpt lat="45.28442" lon="0.35525">
        <ele>122</ele>
        <time>2016-06-24T13:49:07Z</time>
      </trkpt>
      <trkpt lat="45.28445" lon="0.35518">
        <ele>120</ele>
        <time>2016-06-24T13:49:11Z</time>
      </trkpt>
      <trkpt lat="45.28449" lon="0.35514">
        <ele>124</ele>
        <time>2016-06-24T13:49:16Z</time>
      </trkpt>
      <trkpt lat="45.28452" lon="0.35509">
        <ele>120</ele>
        <time>2016-06-24T13:49:20Z</time>
      </trkpt>
      <trkpt lat="45.28454" lon="0.35498">
        <ele>120</ele>
        <time>2016-06-24T13:49:24Z</time>
      </trkpt>
      <trkpt lat="45.28455" lon="0.35489">
        <ele>118</ele>
        <time>2016-06-24T13:49:28Z</time>
      </trkpt>
      <trkpt lat="45.28455" lon="0.35485">
        <ele>122</ele>
        <time>2016-06-24T13:49:32Z</time>
      </trkpt>
      <trkpt lat="45.28456" lon="0.35478">
        <ele>123</ele>
        <time>2016-06-24T13:49:36Z</time>
      </trkpt>
      <trkpt lat="45.28458" lon="0.35473">
        <ele>126</ele>
        <time>2016-06-24T13:49:40Z</time>
      </trkpt>
      <trkpt lat="45.28459" lon="0.35465">
        <ele>127</ele>
        <time>2016-06-24T13:49:45Z</time>
      </trkpt>
      <trkpt lat="45.28461" lon="0.35455">
        <ele>127</ele>
        <time>2016-06-24T13:49:50Z</time>
      </trkpt>
      <trkpt lat="45.28462" lon="0.35451">
        <ele>128</ele>
        <time>2016-06-24T13:49:54Z</time>
      </trkpt>
      <trkpt lat="45.28466" lon="0.35442">
        <ele>126</ele>
        <time>2016-06-24T13:49:59Z</time>
      </trkpt>
      <trkpt lat="45.28469" lon="0.35436">
        <ele>124</ele>
        <time>2016-06-24T13:50:03Z</time>
      </trkpt>
      <trkpt lat="45.28473" lon="0.35433">
        <ele>124</ele>
        <time>2016-06-24T13:50:08Z</time>
      </trkpt>
      <trkpt lat="45.28478" lon="0.35431">
        <ele>124</ele>
        <time>2016-06-24T13:50:12Z</time>
      </trkpt>
      <trkpt lat="45.28482" lon="0.35431">
        <ele>125</ele>
        <time>2016-06-24T13:50:16Z</time>
      </trkpt>
      <trkpt lat="45.28486" lon="0.35428">
        <ele>124</ele>
        <time>2016-06-24T13:50:21Z</time>
      </trkpt>
      <trkpt lat="45.28491" lon="0.35429">
        <ele>126</ele>
        <time>2016-06-24T13:50:26Z</time>
      </trkpt>
      <trkpt lat="45.28495" lon="0.35428">
        <ele>128</ele>
        <time>2016-06-24T13:50:31Z</time>
      </trkpt>
      <trkpt lat="45.28501" lon="0.35428">
        <ele>131</ele>
        <time>2016-06-24T13:50:35Z</time>
      </trkpt>
      <trkpt lat="45.28507" lon="0.35424">
        <ele>131</ele>
        <time>2016-06-24T13:50:40Z</time>
      </trkpt>
      <trkpt lat="45.28512" lon="0.35424">
        <ele>133</ele>
        <time>2016-06-24T13:50:44Z</time>
      </trkpt>
      <trkpt lat="45.28517" lon="0.35424">
        <ele>131</ele>
        <time>2016-06-24T13:50:48Z</time>
      </trkpt>
      <trkpt lat="45.28522" lon="0.35423">
        <ele>132</ele>
        <time>2016-06-24T13:50:52Z</time>
      </trkpt>
      <trkpt lat="45.28526" lon="0.35421">
        <ele>132</ele>
        <time>2016-06-24T13:50:56Z</time>
      </trkpt>
      <trkpt lat="45.28532" lon="0.35417">
        <ele>131</ele>
        <time>2016-06-24T13:51:01Z</time>
      </trkpt>
      <trkpt lat="45.28536" lon="0.35412">
        <ele>131</ele>
        <time>2016-06-24T13:51:05Z</time>
      </trkpt>
      <trkpt lat="45.2854" lon="0.35407">
        <ele>132</ele>
        <time>2016-06-24T13:51:09Z</time>
      </trkpt>
      <trkpt lat="45.28543" lon="0.35402">
        <ele>132</ele>
        <time>2016-06-24T13:51:13Z</time>
      </trkpt>
      <trkpt lat="45.28547" lon="0.35395">
        <ele>132</ele>
        <time>2016-06-24T13:51:18Z</time>
      </trkpt>
      <trkpt lat="45.2855" lon="0.35389">
        <ele>133</ele>
        <time>2016-06-24T13:51:22Z</time>
      </trkpt>
      <trkpt lat="45.28553" lon="0.35384">
        <ele>134</ele>
        <time>2016-06-24T13:51:26Z</time>
      </trkpt>
      <trkpt lat="45.28556" lon="0.35374">
        <ele>134</ele>
        <time>2016-06-24T13:51:31Z</time>
      </trkpt>
      <trkpt lat="45.28558" lon="0.35366">
        <ele>133</ele>
        <time>2016-06-24T13:51:35Z</time>
      </trkpt>
      <trkpt lat="45.28561" lon="0.35362">
        <ele>132</ele>
        <time>2016-06-24T13:51:39Z</time>
      </trkpt>
      <trkpt lat="45.28564" lon="0.35357">
        <ele>130</ele>
        <time>2016-06-24T13:51:45Z</time>
      </trkpt>
      <trkpt lat="45.28566" lon="0.35351">
        <ele>131</ele>
        <time>2016-06-24T13:51:50Z</time>
      </trkpt>
      <trkpt lat="45.28568" lon="0.35345">
        <ele>130</ele>
        <time>2016-06-24T13:51:54Z</time>
      </trkpt>
      <trkpt lat="45.2857" lon="0.35337">
        <ele>131</ele>
        <time>2016-06-24T13:51:59Z</time>
      </trkpt>
      <trkpt lat="45.28572" lon="0.3533">
        <ele>131</ele>
        <time>2016-06-24T13:52:03Z</time>
      </trkpt>
      <trkpt lat="45.2857" lon="0.35335">
        <ele>127</ele>
        <time>2016-06-24T13:52:26Z</time>
      </trkpt>
      <trkpt lat="45.28567" lon="0.35339">
        <ele>129</ele>
        <time>2016-06-24T13:52:31Z</time>
      </trkpt>
      <trkpt lat="45.28564" lon="0.35346">
        <ele>129</ele>
        <time>2016-06-24T13:52:35Z</time>
      </trkpt>
      <trkpt lat="45.28561" lon="0.35354">
        <ele>130</ele>
        <time>2016-06-24T13:52:40Z</time>
      </trkpt>
      <trkpt lat="45.28559" lon="0.35358">
        <ele>130</ele>
        <time>2016-06-24T13:52:44Z</time>
      </trkpt>
      <trkpt lat="45.28554" lon="0.35364">
        <ele>130</ele>
        <time>2016-06-24T13:52:49Z</time>
      </trkpt>
      <trkpt lat="45.2855" lon="0.35372">
        <ele>130</ele>
        <time>2016-06-24T13:52:54Z</time>
      </trkpt>
      <trkpt lat="45.28547" lon="0.3538">
        <ele>129</ele>
        <time>2016-06-24T13:52:58Z</time>
      </trkpt>
      <trkpt lat="45.28544" lon="0.35386">
        <ele>129</ele>
        <time>2016-06-24T13:53:02Z</time>
      </trkpt>
      <trkpt lat="45.28541" lon="0.35393">
        <ele>128</ele>
        <time>2016-06-24T13:53:06Z</time>
      </trkpt>
      <trkpt lat="45.28536" lon="0.35398">
        <ele>129</ele>
        <time>2016-06-24T13:53:10Z</time>
      </trkpt>
      <trkpt lat="45.28531" lon="0.35404">
        <ele>129</ele>
        <time>2016-06-24T13:53:15Z</time>
      </trkpt>
      <trkpt lat="45.28526" lon="0.35404">
        <ele>129</ele>
        <time>2016-06-24T13:53:19Z</time>
      </trkpt>
      <trkpt lat="45.2852" lon="0.35409">
        <ele>129</ele>
        <time>2016-06-24T13:53:24Z</time>
      </trkpt>
      <trkpt lat="45.28514" lon="0.35413">
        <ele>127</ele>
        <time>2016-06-24T13:53:28Z</time>
      </trkpt>
      <trkpt lat="45.28507" lon="0.35415">
        <ele>126</ele>
        <time>2016-06-24T13:53:33Z</time>
      </trkpt>
      <trkpt lat="45.28503" lon="0.35416">
        <ele>126</ele>
        <time>2016-06-24T13:53:37Z</time>
      </trkpt>
      <trkpt lat="45.28498" lon="0.35418">
        <ele>124</ele>
        <time>2016-06-24T13:53:41Z</time>
      </trkpt>
      <trkpt lat="45.28495" lon="0.35422">
        <ele>125</ele>
        <time>2016-06-24T13:53:45Z</time>
      </trkpt>
      <trkpt lat="45.28492" lon="0.3543">
        <ele>121</ele>
        <time>2016-06-24T13:53:49Z</time>
      </trkpt>
      <trkpt lat="45.28491" lon="0.35437">
        <ele>122</ele>
        <time>2016-06-24T13:53:54Z</time>
      </trkpt>
      <trkpt lat="45.28493" lon="0.35446">
        <ele>124</ele>
        <time>2016-06-24T13:53:58Z</time>
      </trkpt>
      <trkpt lat="45.28498" lon="0.35451">
        <ele>124</ele>
        <time>2016-06-24T13:54:03Z</time>
      </trkpt>
      <trkpt lat="45.285" lon="0.35455">
        <ele>127</ele>
        <time>2016-06-24T13:54:19Z</time>
      </trkpt>
      <trkpt lat="45.28505" lon="0.35463">
        <ele>124</ele>
        <time>2016-06-24T13:54:24Z</time>
      </trkpt>
      <trkpt lat="45.28508" lon="0.35467">
        <ele>124</ele>
        <time>2016-06-24T13:54:29Z</time>
      </trkpt>
      <trkpt lat="45.28512" lon="0.35474">
        <ele>125</ele>
        <time>2016-06-24T13:54:34Z</time>
      </trkpt>
      <trkpt lat="45.28516" lon="0.35478">
        <ele>126</ele>
        <time>2016-06-24T13:54:38Z</time>
      </trkpt>
      <trkpt lat="45.2852" lon="0.35482">
        <ele>125</ele>
        <time>2016-06-24T13:54:42Z</time>
      </trkpt>
      <trkpt lat="45.28524" lon="0.35489">
        <ele>123</ele>
        <time>2016-06-24T13:54:47Z</time>
      </trkpt>
      <trkpt lat="45.28528" lon="0.35495">
        <ele>122</ele>
        <time>2016-06-24T13:54:52Z</time>
      </trkpt>
      <trkpt lat="45.28531" lon="0.35497">
        <ele>121</ele>
        <time>2016-06-24T13:54:56Z</time>
      </trkpt>
      <trkpt lat="45.28535" lon="0.35505">
        <ele>121</ele>
        <time>2016-06-24T13:55:01Z</time>
      </trkpt>
      <trkpt lat="45.2854" lon="0.3551">
        <ele>122</ele>
        <time>2016-06-24T13:55:05Z</time>
      </trkpt>
      <trkpt lat="45.28544" lon="0.35514">
        <ele>121</ele>
        <time>2016-06-24T13:55:09Z</time>
      </trkpt>
      <trkpt lat="45.28547" lon="0.3552">
        <ele>121</ele>
        <time>2016-06-24T13:55:13Z</time>
      </trkpt>
      <trkpt lat="45.2855" lon="0.35527">
        <ele>118</ele>
        <time>2016-06-24T13:55:18Z</time>
      </trkpt>
      <trkpt lat="45.28552" lon="0.35532">
        <ele>117</ele>
        <time>2016-06-24T13:55:22Z</time>
      </trkpt>
      <trkpt lat="45.28556" lon="0.3554">
        <ele>116</ele>
        <time>2016-06-24T13:55:27Z</time>
      </trkpt>
      <trkpt lat="45.2856" lon="0.35548">
        <ele>114</ele>
        <time>2016-06-24T13:55:31Z</time>
      </trkpt>
      <trkpt lat="45.28563" lon="0.35555">
        <ele>115</ele>
        <time>2016-06-24T13:55:36Z</time>
      </trkpt>
      <trkpt lat="45.28566" lon="0.35562">
        <ele>117</ele>
        <time>2016-06-24T13:55:41Z</time>
      </trkpt>
      <trkpt lat="45.2857" lon="0.35569">
        <ele>116</ele>
        <time>2016-06-24T13:55:45Z</time>
      </trkpt>
      <trkpt lat="45.28572" lon="0.35577">
        <ele>115</ele>
        <time>2016-06-24T13:55:49Z</time>
      </trkpt>
      <trkpt lat="45.28573" lon="0.35584">
        <ele>117</ele>
        <time>2016-06-24T13:55:53Z</time>
      </trkpt>
      <trkpt lat="45.28575" lon="0.35591">
        <ele>118</ele>
        <time>2016-06-24T13:55:57Z</time>
      </trkpt>
      <trkpt lat="45.28577" lon="0.35598">
        <ele>116</ele>
        <time>2016-06-24T13:56:01Z</time>
      </trkpt>
      <trkpt lat="45.28576" lon="0.35607">
        <ele>116</ele>
        <time>2016-06-24T13:56:05Z</time>
      </trkpt>
      <trkpt lat="45.28576" lon="0.35614">
        <ele>116</ele>
        <time>2016-06-24T13:56:09Z</time>
      </trkpt>
      <trkpt lat="45.28574" lon="0.35621">
        <ele>115</ele>
        <time>2016-06-24T13:56:14Z</time>
      </trkpt>
      <trkpt lat="45.28573" lon="0.35627">
        <ele>113</ele>
        <time>2016-06-24T13:56:19Z</time>
      </trkpt>
      <trkpt lat="45.28572" lon="0.35634">
        <ele>115</ele>
        <time>2016-06-24T13:56:24Z</time>
      </trkpt>
      <trkpt lat="45.28572" lon="0.35646">
        <ele>112</ele>
        <time>2016-06-24T13:56:28Z</time>
      </trkpt>
      <trkpt lat="45.2857" lon="0.35656">
        <ele>114</ele>
        <time>2016-06-24T13:56:33Z</time>
      </trkpt>
      <trkpt lat="45.2857" lon="0.35662">
        <ele>116</ele>
        <time>2016-06-24T13:56:37Z</time>
      </trkpt>
      <trkpt lat="45.28569" lon="0.35674">
        <ele>113</ele>
        <time>2016-06-24T13:56:41Z</time>
      </trkpt>
      <trkpt lat="45.28568" lon="0.3568">
        <ele>113</ele>
        <time>2016-06-24T13:56:46Z</time>
      </trkpt>
      <trkpt lat="45.28568" lon="0.35687">
        <ele>113</ele>
        <time>2016-06-24T13:56:50Z</time>
      </trkpt>
      <trkpt lat="45.28567" lon="0.35695">
        <ele>114</ele>
        <time>2016-06-24T13:56:54Z</time>
      </trkpt>
      <trkpt lat="45.28568" lon="0.357">
        <ele>116</ele>
        <time>2016-06-24T13:56:58Z</time>
      </trkpt>
      <trkpt lat="45.2857" lon="0.35708">
        <ele>115</ele>
        <time>2016-06-24T13:57:02Z</time>
      </trkpt>
      <trkpt lat="45.28571" lon="0.35714">
        <ele>116</ele>
        <time>2016-06-24T13:57:06Z</time>
      </trkpt>
      <trkpt lat="45.28576" lon="0.35723">
        <ele>116</ele>
        <time>2016-06-24T13:57:11Z</time>
      </trkpt>
      <trkpt lat="45.28576" lon="0.3573">
        <ele>116</ele>
        <time>2016-06-24T13:57:16Z</time>
      </trkpt>
      <trkpt lat="45.28575" lon="0.35737">
        <ele>112</ele>
        <time>2016-06-24T13:57:20Z</time>
      </trkpt>
      <trkpt lat="45.28579" lon="0.35743">
        <ele>112</ele>
        <time>2016-06-24T13:57:25Z</time>
      </trkpt>
      <trkpt lat="45.28583" lon="0.35747">
        <ele>112</ele>
        <time>2016-06-24T13:57:29Z</time>
      </trkpt>
      <trkpt lat="45.28585" lon="0.3575">
        <ele>112</ele>
        <time>2016-06-24T13:57:41Z</time>
      </trkpt>
      <trkpt lat="45.28593" lon="0.35758">
        <ele>111</ele>
        <time>2016-06-24T13:57:46Z</time>
      </trkpt>
      <trkpt lat="45.28601" lon="0.35764">
        <ele>112</ele>
        <time>2016-06-24T13:57:51Z</time>
      </trkpt>
      <trkpt lat="45.28605" lon="0.35768">
        <ele>113</ele>
        <time>2016-06-24T13:57:55Z</time>
      </trkpt>
      <trkpt lat="45.28612" lon="0.35774">
        <ele>114</ele>
        <time>2016-06-24T13:58:00Z</time>
      </trkpt>
      <trkpt lat="45.28613" lon="0.35781">
        <ele>114</ele>
        <time>2016-06-24T13:58:04Z</time>
      </trkpt>
      <trkpt lat="45.28612" lon="0.35786">
        <ele>115</ele>
        <time>2016-06-24T13:58:10Z</time>
      </trkpt>
      <trkpt lat="45.28617" lon="0.35791">
        <ele>115</ele>
        <time>2016-06-24T13:58:15Z</time>
      </trkpt>
      <trkpt lat="45.28621" lon="0.35794">
        <ele>116</ele>
        <time>2016-06-24T13:58:19Z</time>
      </trkpt>
      <trkpt lat="45.28627" lon="0.35796">
        <ele>117</ele>
        <time>2016-06-24T13:58:24Z</time>
      </trkpt>
      <trkpt lat="45.28632" lon="0.35796">
        <ele>118</ele>
        <time>2016-06-24T13:58:28Z</time>
      </trkpt>
      <trkpt lat="45.28638" lon="0.35797">
        <ele>118</ele>
        <time>2016-06-24T13:58:32Z</time>
      </trkpt>
      <trkpt lat="45.28643" lon="0.35797">
        <ele>116</ele>
        <time>2016-06-24T13:58:36Z</time>
      </trkpt>
      <trkpt lat="45.28647" lon="0.35799">
        <ele>117</ele>
        <time>2016-06-24T13:58:41Z</time>
      </trkpt>
      <trkpt lat="45.28651" lon="0.35801">
        <ele>119</ele>
        <time>2016-06-24T13:58:46Z</time>
      </trkpt>
      <trkpt lat="45.28655" lon="0.35802">
        <ele>121</ele>
        <time>2016-06-24T13:58:50Z</time>
      </trkpt>
      <trkpt lat="45.28659" lon="0.35804">
        <ele>122</ele>
        <time>2016-06-24T13:58:55Z</time>
      </trkpt>
      <trkpt lat="45.28664" lon="0.35804">
        <ele>123</ele>
        <time>2016-06-24T13:59:00Z</time>
      </trkpt>
      <trkpt lat="45.28667" lon="0.35809">
        <ele>125</ele>
        <time>2016-06-24T13:59:08Z</time>
      </trkpt>
      <trkpt lat="45.28671" lon="0.35812">
        <ele>127</ele>
        <time>2016-06-24T13:59:12Z</time>
      </trkpt>
      <trkpt lat="45.28675" lon="0.35815">
        <ele>128</ele>
        <time>2016-06-24T13:59:17Z</time>
      </trkpt>
      <trkpt lat="45.28679" lon="0.35818">
        <ele>130</ele>
        <time>2016-06-24T13:59:23Z</time>
      </trkpt>
      <trkpt lat="45.28682" lon="0.35822">
        <ele>128</ele>
        <time>2016-06-24T13:59:34Z</time>
      </trkpt>
      <trkpt lat="45.28682" lon="0.35827">
        <ele>127</ele>
        <time>2016-06-24T13:59:40Z</time>
      </trkpt>
      <trkpt lat="45.28685" lon="0.35832">
        <ele>131</ele>
        <time>2016-06-24T13:59:50Z</time>
      </trkpt>
      <trkpt lat="45.28688" lon="0.35834">
        <ele>132</ele>
        <time>2016-06-24T14:00:00Z</time>
      </trkpt>
      <trkpt lat="45.28699" lon="0.35837">
        <ele>133</ele>
        <time>2016-06-24T14:00:05Z</time>
      </trkpt>
      <trkpt lat="45.28704" lon="0.35837">
        <ele>136</ele>
        <time>2016-06-24T14:00:09Z</time>
      </trkpt>
      <trkpt lat="45.28701" lon="0.3584">
        <ele>140</ele>
        <time>2016-06-24T14:00:32Z</time>
      </trkpt>
      <trkpt lat="45.28699" lon="0.35847">
        <ele>139</ele>
        <time>2016-06-24T14:00:37Z</time>
      </trkpt>
      <trkpt lat="45.287" lon="0.35854">
        <ele>137</ele>
        <time>2016-06-24T14:00:41Z</time>
      </trkpt>
      <trkpt lat="45.28699" lon="0.35857">
        <ele>137</ele>
        <time>2016-06-24T14:00:49Z</time>
      </trkpt>
      <trkpt lat="45.28701" lon="0.35862">
        <ele>138</ele>
        <time>2016-06-24T14:00:54Z</time>
      </trkpt>
      <trkpt lat="45.28703" lon="0.35868">
        <ele>139</ele>
        <time>2016-06-24T14:00:58Z</time>
      </trkpt>
      <trkpt lat="45.28706" lon="0.35872">
        <ele>143</ele>
        <time>2016-06-24T14:01:05Z</time>
      </trkpt>
      <trkpt lat="45.28707" lon="0.35879">
        <ele>144</ele>
        <time>2016-06-24T14:01:09Z</time>
      </trkpt>
      <trkpt lat="45.28709" lon="0.35885">
        <ele>145</ele>
        <time>2016-06-24T14:01:14Z</time>
      </trkpt>
      <trkpt lat="45.28711" lon="0.35894">
        <ele>143</ele>
        <time>2016-06-24T14:01:18Z</time>
      </trkpt>
      <trkpt lat="45.28711" lon="0.35899">
        <ele>142</ele>
        <time>2016-06-24T14:01:30Z</time>
      </trkpt>
      <trkpt lat="45.28712" lon="0.35906">
        <ele>140</ele>
        <time>2016-06-24T14:01:34Z</time>
      </trkpt>
      <trkpt lat="45.28714" lon="0.35912">
        <ele>141</ele>
        <time>2016-06-24T14:01:38Z</time>
      </trkpt>
      <trkpt lat="45.28717" lon="0.35916">
        <ele>142</ele>
        <time>2016-06-24T14:01:59Z</time>
      </trkpt>
      <trkpt lat="45.28714" lon="0.3592">
        <ele>144</ele>
        <time>2016-06-24T14:02:04Z</time>
      </trkpt>
      <trkpt lat="45.28712" lon="0.35924">
        <ele>143</ele>
        <time>2016-06-24T14:02:11Z</time>
      </trkpt>
      <trkpt lat="45.28702" lon="0.35929">
        <ele>140</ele>
        <time>2016-06-24T14:02:16Z</time>
      </trkpt>
      <trkpt lat="45.287" lon="0.35934">
        <ele>140</ele>
        <time>2016-06-24T14:02:20Z</time>
      </trkpt>
      <trkpt lat="45.287" lon="0.3594">
        <ele>137</ele>
        <time>2016-06-24T14:02:31Z</time>
      </trkpt>
      <trkpt lat="45.28698" lon="0.35945">
        <ele>137</ele>
        <time>2016-06-24T14:02:38Z</time>
      </trkpt>
      <trkpt lat="45.28699" lon="0.35951">
        <ele>140</ele>
        <time>2016-06-24T14:03:29Z</time>
      </trkpt>
      <trkpt lat="45.28697" lon="0.35956">
        <ele>141</ele>
        <time>2016-06-24T14:03:52Z</time>
      </trkpt>
      <trkpt lat="45.28698" lon="0.35961">
        <ele>140</ele>
        <time>2016-06-24T14:03:57Z</time>
      </trkpt>
      <trkpt lat="45.287" lon="0.35966">
        <ele>141</ele>
        <time>2016-06-24T14:04:01Z</time>
      </trkpt>
      <trkpt lat="45.28703" lon="0.35972">
        <ele>142</ele>
        <time>2016-06-24T14:04:05Z</time>
      </trkpt>
      <trkpt lat="45.28703" lon="0.3598">
        <ele>138</ele>
        <time>2016-06-24T14:04:10Z</time>
      </trkpt>
      <trkpt lat="45.28704" lon="0.35987">
        <ele>139</ele>
        <time>2016-06-24T14:04:14Z</time>
      </trkpt>
      <trkpt lat="45.28709" lon="0.35993">
        <ele>140</ele>
        <time>2016-06-24T14:04:19Z</time>
      </trkpt>
      <trkpt lat="45.28712" lon="0.35999">
        <ele>141</ele>
        <time>2016-06-24T14:04:23Z</time>
      </trkpt>
      <trkpt lat="45.28715" lon="0.36006">
        <ele>141</ele>
        <time>2016-06-24T14:04:27Z</time>
      </trkpt>
      <trkpt lat="45.28718" lon="0.36014">
        <ele>144</ele>
        <time>2016-06-24T14:04:31Z</time>
      </trkpt>
      <trkpt lat="45.28719" lon="0.36022">
        <ele>145</ele>
        <time>2016-06-24T14:04:35Z</time>
      </trkpt>
      <trkpt lat="45.28722" lon="0.36034">
        <ele>150</ele>
        <time>2016-06-24T14:04:40Z</time>
      </trkpt>
      <trkpt lat="45.28725" lon="0.36041">
        <ele>151</ele>
        <time>2016-06-24T14:04:44Z</time>
      </trkpt>
      <trkpt lat="45.28728" lon="0.36045">
        <ele>148</ele>
        <time>2016-06-24T14:04:48Z</time>
      </trkpt>
      <trkpt lat="45.28733" lon="0.36046">
        <ele>147</ele>
        <time>2016-06-24T14:04:53Z</time>
      </trkpt>
      <trkpt lat="45.28736" lon="0.36051">
        <ele>147</ele>
        <time>2016-06-24T14:04:58Z</time>
      </trkpt>
      <trkpt lat="45.28739" lon="0.36055">
        <ele>149</ele>
        <time>2016-06-24T14:05:02Z</time>
      </trkpt>
      <trkpt lat="45.28743" lon="0.3606">
        <ele>147</ele>
        <time>2016-06-24T14:05:06Z</time>
      </trkpt>
      <trkpt lat="45.28746" lon="0.36068">
        <ele>144</ele>
        <time>2016-06-24T14:05:11Z</time>
      </trkpt>
      <trkpt lat="45.2875" lon="0.36074">
        <ele>142</ele>
        <time>2016-06-24T14:05:16Z</time>
      </trkpt>
      <trkpt lat="45.28753" lon="0.36077">
        <ele>142</ele>
        <time>2016-06-24T14:05:20Z</time>
      </trkpt>
      <trkpt lat="45.28755" lon="0.36081">
        <ele>145</ele>
        <time>2016-06-24T14:05:25Z</time>
      </trkpt>
      <trkpt lat="45.28756" lon="0.3609">
        <ele>140</ele>
        <time>2016-06-24T14:05:30Z</time>
      </trkpt>
      <trkpt lat="45.28757" lon="0.36103">
        <ele>137</ele>
        <time>2016-06-24T14:05:35Z</time>
      </trkpt>
      <trkpt lat="45.2876" lon="0.36114">
        <ele>137</ele>
        <time>2016-06-24T14:05:40Z</time>
      </trkpt>
      <trkpt lat="45.2876" lon="0.36122">
        <ele>135</ele>
        <time>2016-06-24T14:05:44Z</time>
      </trkpt>
      <trkpt lat="45.28762" lon="0.36133">
        <ele>132</ele>
        <time>2016-06-24T14:05:49Z</time>
      </trkpt>
      <trkpt lat="45.28765" lon="0.3614">
        <ele>129</ele>
        <time>2016-06-24T14:05:53Z</time>
      </trkpt>
      <trkpt lat="45.28766" lon="0.36148">
        <ele>127</ele>
        <time>2016-06-24T14:05:57Z</time>
      </trkpt>
      <trkpt lat="45.28769" lon="0.36154">
        <ele>126</ele>
        <time>2016-06-24T14:06:01Z</time>
      </trkpt>
      <trkpt lat="45.28772" lon="0.36162">
        <ele>125</ele>
        <time>2016-06-24T14:06:05Z</time>
      </trkpt>
      <trkpt lat="45.28776" lon="0.3617">
        <ele>125</ele>
        <time>2016-06-24T14:06:09Z</time>
      </trkpt>
      <trkpt lat="45.28778" lon="0.36178">
        <ele>125</ele>
        <time>2016-06-24T14:06:13Z</time>
      </trkpt>
      <trkpt lat="45.2878" lon="0.36186">
        <ele>125</ele>
        <time>2016-06-24T14:06:17Z</time>
      </trkpt>
      <trkpt lat="45.28783" lon="0.36194">
        <ele>125</ele>
        <time>2016-06-24T14:06:21Z</time>
      </trkpt>
      <trkpt lat="45.28786" lon="0.36203">
        <ele>124</ele>
        <time>2016-06-24T14:06:26Z</time>
      </trkpt>
      <trkpt lat="45.28789" lon="0.36211">
        <ele>124</ele>
        <time>2016-06-24T14:06:30Z</time>
      </trkpt>
      <trkpt lat="45.28793" lon="0.36217">
        <ele>124</ele>
        <time>2016-06-24T14:06:34Z</time>
      </trkpt>
      <trkpt lat="45.28797" lon="0.36225">
        <ele>122</ele>
        <time>2016-06-24T14:06:39Z</time>
      </trkpt>
      <trkpt lat="45.28804" lon="0.36231">
        <ele>120</ele>
        <time>2016-06-24T14:06:44Z</time>
      </trkpt>
      <trkpt lat="45.28807" lon="0.36236">
        <ele>119</ele>
        <time>2016-06-24T14:06:48Z</time>
      </trkpt>
      <trkpt lat="45.28812" lon="0.36241">
        <ele>118</ele>
        <time>2016-06-24T14:06:52Z</time>
      </trkpt>
      <trkpt lat="45.28817" lon="0.36245">
        <ele>117</ele>
        <time>2016-06-24T14:06:56Z</time>
      </trkpt>
      <trkpt lat="45.28818" lon="0.36251">
        <ele>118</ele>
        <time>2016-06-24T14:07:00Z</time>
      </trkpt>
      <trkpt lat="45.28821" lon="0.36258">
        <ele>122</ele>
        <time>2016-06-24T14:07:04Z</time>
      </trkpt>
      <trkpt lat="45.28824" lon="0.36265">
        <ele>125</ele>
        <time>2016-06-24T14:07:08Z</time>
      </trkpt>
      <trkpt lat="45.28828" lon="0.36269">
        <ele>125</ele>
        <time>2016-06-24T14:07:12Z</time>
      </trkpt>
      <trkpt lat="45.28833" lon="0.36271">
        <ele>123</ele>
        <time>2016-06-24T14:07:16Z</time>
      </trkpt>
      <trkpt lat="45.2884" lon="0.36275">
        <ele>123</ele>
        <time>2016-06-24T14:07:21Z</time>
      </trkpt>
      <trkpt lat="45.28845" lon="0.36278">
        <ele>121</ele>
        <time>2016-06-24T14:07:25Z</time>
      </trkpt>
      <trkpt lat="45.28851" lon="0.3628">
        <ele>120</ele>
        <time>2016-06-24T14:07:29Z</time>
      </trkpt>
      <trkpt lat="45.28855" lon="0.36285">
        <ele>119</ele>
        <time>2016-06-24T14:07:33Z</time>
      </trkpt>
      <trkpt lat="45.28859" lon="0.36293">
        <ele>122</ele>
        <time>2016-06-24T14:07:38Z</time>
      </trkpt>
      <trkpt lat="45.28861" lon="0.36297">
        <ele>126</ele>
        <time>2016-06-24T14:07:42Z</time>
      </trkpt>
      <trkpt lat="45.28864" lon="0.36302">
        <ele>126</ele>
        <time>2016-06-24T14:07:46Z</time>
      </trkpt>
      <trkpt lat="45.28871" lon="0.36307">
        <ele>125</ele>
        <time>2016-06-24T14:07:51Z</time>
      </trkpt>
      <trkpt lat="45.28876" lon="0.36309">
        <ele>126</ele>
        <time>2016-06-24T14:07:55Z</time>
      </trkpt>
      <trkpt lat="45.2888" lon="0.36315">
        <ele>127</ele>
        <time>2016-06-24T14:07:59Z</time>
      </trkpt>
      <trkpt lat="45.28885" lon="0.3632">
        <ele>126</ele>
        <time>2016-06-24T14:08:04Z</time>
      </trkpt>
      <trkpt lat="45.28889" lon="0.36325">
        <ele>128</ele>
        <time>2016-06-24T14:08:08Z</time>
      </trkpt>
      <trkpt lat="45.28893" lon="0.36328">
        <ele>128</ele>
        <time>2016-06-24T14:08:14Z</time>
      </trkpt>
      <trkpt lat="45.28896" lon="0.36332">
        <ele>127</ele>
        <time>2016-06-24T14:08:20Z</time>
      </trkpt>
      <trkpt lat="45.289" lon="0.36338">
        <ele>127</ele>
        <time>2016-06-24T14:08:24Z</time>
      </trkpt>
      <trkpt lat="45.28904" lon="0.36343">
        <ele>128</ele>
        <time>2016-06-24T14:08:28Z</time>
      </trkpt>
      <trkpt lat="45.28907" lon="0.36349">
        <ele>128</ele>
        <time>2016-06-24T14:08:32Z</time>
      </trkpt>
      <trkpt lat="45.28909" lon="0.36355">
        <ele>128</ele>
        <time>2016-06-24T14:08:36Z</time>
      </trkpt>
      <trkpt lat="45.28914" lon="0.36363">
        <ele>128</ele>
        <time>2016-06-24T14:08:41Z</time>
      </trkpt>
      <trkpt lat="45.28915" lon="0.3637">
        <ele>129</ele>
        <time>2016-06-24T14:08:45Z</time>
      </trkpt>
      <trkpt lat="45.28917" lon="0.3638">
        <ele>130</ele>
        <time>2016-06-24T14:08:50Z</time>
      </trkpt>
      <trkpt lat="45.28918" lon="0.36387">
        <ele>131</ele>
        <time>2016-06-24T14:08:54Z</time>
      </trkpt>
      <trkpt lat="45.2892" lon="0.36396">
        <ele>130</ele>
        <time>2016-06-24T14:08:58Z</time>
      </trkpt>
      <trkpt lat="45.2892" lon="0.36403">
        <ele>132</ele>
        <time>2016-06-24T14:09:02Z</time>
      </trkpt>
      <trkpt lat="45.28922" lon="0.36412">
        <ele>133</ele>
        <time>2016-06-24T14:09:07Z</time>
      </trkpt>
      <trkpt lat="45.28921" lon="0.36418">
        <ele>133</ele>
        <time>2016-06-24T14:09:11Z</time>
      </trkpt>
      <trkpt lat="45.28923" lon="0.36425">
        <ele>134</ele>
        <time>2016-06-24T14:09:15Z</time>
      </trkpt>
      <trkpt lat="45.28923" lon="0.36435">
        <ele>136</ele>
        <time>2016-06-24T14:09:20Z</time>
      </trkpt>
      <trkpt lat="45.28923" lon="0.3644">
        <ele>138</ele>
        <time>2016-06-24T14:09:24Z</time>
      </trkpt>
      <trkpt lat="45.28923" lon="0.36448">
        <ele>139</ele>
        <time>2016-06-24T14:09:29Z</time>
      </trkpt>
      <trkpt lat="45.28925" lon="0.36458">
        <ele>136</ele>
        <time>2016-06-24T14:09:34Z</time>
      </trkpt>
      <trkpt lat="45.28923" lon="0.36463">
        <ele>134</ele>
        <time>2016-06-24T14:09:38Z</time>
      </trkpt>
      <trkpt lat="45.28924" lon="0.36473">
        <ele>135</ele>
        <time>2016-06-24T14:09:42Z</time>
      </trkpt>
      <trkpt lat="45.28922" lon="0.36483">
        <ele>132</ele>
        <time>2016-06-24T14:09:46Z</time>
      </trkpt>
      <trkpt lat="45.2892" lon="0.36492">
        <ele>133</ele>
        <time>2016-06-24T14:09:51Z</time>
      </trkpt>
      <trkpt lat="45.28919" lon="0.365">
        <ele>137</ele>
        <time>2016-06-24T14:09:56Z</time>
      </trkpt>
      <trkpt lat="45.28925" lon="0.36506">
        <ele>136</ele>
        <time>2016-06-24T14:10:00Z</time>
      </trkpt>
      <trkpt lat="45.2893" lon="0.36509">
        <ele>135</ele>
        <time>2016-06-24T14:10:04Z</time>
      </trkpt>
      <trkpt lat="45.28926" lon="0.36511">
        <ele>135</ele>
        <time>2016-06-24T14:10:43Z</time>
      </trkpt>
      <trkpt lat="45.28922" lon="0.3651">
        <ele>140</ele>
        <time>2016-06-24T14:12:19Z</time>
      </trkpt>
      <trkpt lat="45.28917" lon="0.36502">
        <ele>141</ele>
        <time>2016-06-24T14:12:24Z</time>
      </trkpt>
      <trkpt lat="45.28914" lon="0.365">
        <ele>141</ele>
        <time>2016-06-24T14:12:33Z</time>
      </trkpt>
      <trkpt lat="45.28909" lon="0.365">
        <ele>139</ele>
        <time>2016-06-24T14:12:47Z</time>
      </trkpt>
      <trkpt lat="45.289" lon="0.36494">
        <ele>137</ele>
        <time>2016-06-24T14:12:52Z</time>
      </trkpt>
      <trkpt lat="45.28895" lon="0.3649">
        <ele>133</ele>
        <time>2016-06-24T14:12:56Z</time>
      </trkpt>
      <trkpt lat="45.28889" lon="0.36489">
        <ele>128</ele>
        <time>2016-06-24T14:13:01Z</time>
      </trkpt>
      <trkpt lat="45.28881" lon="0.36485">
        <ele>128</ele>
        <time>2016-06-24T14:13:06Z</time>
      </trkpt>
      <trkpt lat="45.28876" lon="0.36484">
        <ele>125</ele>
        <time>2016-06-24T14:13:10Z</time>
      </trkpt>
      <trkpt lat="45.28867" lon="0.3648">
        <ele>127</ele>
        <time>2016-06-24T14:13:15Z</time>
      </trkpt>
      <trkpt lat="45.2886" lon="0.36478">
        <ele>126</ele>
        <time>2016-06-24T14:13:19Z</time>
      </trkpt>
      <trkpt lat="45.28852" lon="0.36479">
        <ele>128</ele>
        <time>2016-06-24T14:13:24Z</time>
      </trkpt>
      <trkpt lat="45.28846" lon="0.36473">
        <ele>129</ele>
        <time>2016-06-24T14:13:29Z</time>
      </trkpt>
      <trkpt lat="45.28841" lon="0.3647">
        <ele>131</ele>
        <time>2016-06-24T14:13:33Z</time>
      </trkpt>
      <trkpt lat="45.28836" lon="0.36475">
        <ele>131</ele>
        <time>2016-06-24T14:13:37Z</time>
      </trkpt>
      <trkpt lat="45.28831" lon="0.36481">
        <ele>130</ele>
        <time>2016-06-24T14:13:41Z</time>
      </trkpt>
      <trkpt lat="45.28828" lon="0.36485">
        <ele>124</ele>
        <time>2016-06-24T14:13:52Z</time>
      </trkpt>
      <trkpt lat="45.28822" lon="0.36486">
        <ele>123</ele>
        <time>2016-06-24T14:13:56Z</time>
      </trkpt>
      <trkpt lat="45.28813" lon="0.36488">
        <ele>121</ele>
        <time>2016-06-24T14:14:01Z</time>
      </trkpt>
      <trkpt lat="45.28806" lon="0.36492">
        <ele>122</ele>
        <time>2016-06-24T14:14:05Z</time>
      </trkpt>
      <trkpt lat="45.288" lon="0.36496">
        <ele>121</ele>
        <time>2016-06-24T14:14:09Z</time>
      </trkpt>
      <trkpt lat="45.28797" lon="0.36497">
        <ele>121</ele>
        <time>2016-06-24T14:14:13Z</time>
      </trkpt>
      <trkpt lat="45.28795" lon="0.36501">
        <ele>119</ele>
        <time>2016-06-24T14:14:25Z</time>
      </trkpt>
      <trkpt lat="45.28787" lon="0.365">
        <ele>122</ele>
        <time>2016-06-24T14:14:29Z</time>
      </trkpt>
      <trkpt lat="45.28783" lon="0.365">
        <ele>122</ele>
        <time>2016-06-24T14:14:33Z</time>
      </trkpt>
      <trkpt lat="45.28776" lon="0.36499">
        <ele>122</ele>
        <time>2016-06-24T14:14:37Z</time>
      </trkpt>
      <trkpt lat="45.28771" lon="0.36496">
        <ele>121</ele>
        <time>2016-06-24T14:14:41Z</time>
      </trkpt>
      <trkpt lat="45.28767" lon="0.36494">
        <ele>120</ele>
        <time>2016-06-24T14:14:46Z</time>
      </trkpt>
      <trkpt lat="45.28763" lon="0.36493">
        <ele>119</ele>
        <time>2016-06-24T14:14:55Z</time>
      </trkpt>
      <trkpt lat="45.28759" lon="0.36492">
        <ele>119</ele>
        <time>2016-06-24T14:15:12Z</time>
      </trkpt>
      <trkpt lat="45.28753" lon="0.36503">
        <ele>119</ele>
        <time>2016-06-24T14:15:17Z</time>
      </trkpt>
      <trkpt lat="45.2875" lon="0.3651">
        <ele>121</ele>
        <time>2016-06-24T14:15:21Z</time>
      </trkpt>
      <trkpt lat="45.28748" lon="0.36517">
        <ele>120</ele>
        <time>2016-06-24T14:15:26Z</time>
      </trkpt>
      <trkpt lat="45.28746" lon="0.36523">
        <ele>120</ele>
        <time>2016-06-24T14:15:30Z</time>
      </trkpt>
      <trkpt lat="45.28742" lon="0.3653">
        <ele>117</ele>
        <time>2016-06-24T14:15:34Z</time>
      </trkpt>
      <trkpt lat="45.2874" lon="0.36537">
        <ele>118</ele>
        <time>2016-06-24T14:15:38Z</time>
      </trkpt>
      <trkpt lat="45.28739" lon="0.36544">
        <ele>117</ele>
        <time>2016-06-24T14:15:43Z</time>
      </trkpt>
      <trkpt lat="45.28738" lon="0.36548">
        <ele>118</ele>
        <time>2016-06-24T14:16:00Z</time>
      </trkpt>
      <trkpt lat="45.28736" lon="0.3656">
        <ele>118</ele>
        <time>2016-06-24T14:16:04Z</time>
      </trkpt>
      <trkpt lat="45.28734" lon="0.36572">
        <ele>121</ele>
        <time>2016-06-24T14:16:09Z</time>
      </trkpt>
      <trkpt lat="45.28735" lon="0.36581">
        <ele>120</ele>
        <time>2016-06-24T14:16:13Z</time>
      </trkpt>
      <trkpt lat="45.28731" lon="0.3659">
        <ele>118</ele>
        <time>2016-06-24T14:16:17Z</time>
      </trkpt>
      <trkpt lat="45.28729" lon="0.36596">
        <ele>119</ele>
        <time>2016-06-24T14:16:22Z</time>
      </trkpt>
      <trkpt lat="45.28728" lon="0.36605">
        <ele>120</ele>
        <time>2016-06-24T14:16:27Z</time>
      </trkpt>
      <trkpt lat="45.28726" lon="0.36613">
        <ele>119</ele>
        <time>2016-06-24T14:16:31Z</time>
      </trkpt>
      <trkpt lat="45.28726" lon="0.36621">
        <ele>116</ele>
        <time>2016-06-24T14:16:35Z</time>
      </trkpt>
      <trkpt lat="45.28726" lon="0.36627">
        <ele>118</ele>
        <time>2016-06-24T14:16:40Z</time>
      </trkpt>
      <trkpt lat="45.28729" lon="0.36638">
        <ele>118</ele>
        <time>2016-06-24T14:16:45Z</time>
      </trkpt>
      <trkpt lat="45.2873" lon="0.36646">
        <ele>120</ele>
        <time>2016-06-24T14:16:49Z</time>
      </trkpt>
      <trkpt lat="45.28731" lon="0.36656">
        <ele>119</ele>
        <time>2016-06-24T14:16:53Z</time>
      </trkpt>
      <trkpt lat="45.28732" lon="0.36664">
        <ele>115</ele>
        <time>2016-06-24T14:16:57Z</time>
      </trkpt>
      <trkpt lat="45.28733" lon="0.36669">
        <ele>122</ele>
        <time>2016-06-24T14:17:04Z</time>
      </trkpt>
      <trkpt lat="45.28733" lon="0.36674">
        <ele>125</ele>
        <time>2016-06-24T14:17:13Z</time>
      </trkpt>
      <trkpt lat="45.28736" lon="0.36685">
        <ele>127</ele>
        <time>2016-06-24T14:17:18Z</time>
      </trkpt>
      <trkpt lat="45.28736" lon="0.36695">
        <ele>122</ele>
        <time>2016-06-24T14:17:22Z</time>
      </trkpt>
      <trkpt lat="45.28738" lon="0.36705">
        <ele>117</ele>
        <time>2016-06-24T14:17:27Z</time>
      </trkpt>
      <trkpt lat="45.28739" lon="0.36711">
        <ele>115</ele>
        <time>2016-06-24T14:17:36Z</time>
      </trkpt>
      <trkpt lat="45.28738" lon="0.36715">
        <ele>117</ele>
        <time>2016-06-24T14:17:42Z</time>
      </trkpt>
      <trkpt lat="45.28738" lon="0.36731">
        <ele>114</ele>
        <time>2016-06-24T14:17:46Z</time>
      </trkpt>
      <trkpt lat="45.28736" lon="0.36742">
        <ele>114</ele>
        <time>2016-06-24T14:17:51Z</time>
      </trkpt>
      <trkpt lat="45.28737" lon="0.36748">
        <ele>113</ele>
        <time>2016-06-24T14:17:56Z</time>
      </trkpt>
      <trkpt lat="45.28736" lon="0.36753">
        <ele>113</ele>
        <time>2016-06-24T14:18:02Z</time>
      </trkpt>
      <trkpt lat="45.28737" lon="0.3677">
        <ele>107</ele>
        <time>2016-06-24T14:18:07Z</time>
      </trkpt>
      <trkpt lat="45.28737" lon="0.36781">
        <ele>109</ele>
        <time>2016-06-24T14:18:12Z</time>
      </trkpt>
      <trkpt lat="45.28737" lon="0.36787">
        <ele>111</ele>
        <time>2016-06-24T14:18:16Z</time>
      </trkpt>
      <trkpt lat="45.28735" lon="0.36794">
        <ele>113</ele>
        <time>2016-06-24T14:18:20Z</time>
      </trkpt>
      <trkpt lat="45.28733" lon="0.36803">
        <ele>117</ele>
        <time>2016-06-24T14:18:25Z</time>
      </trkpt>
      <trkpt lat="45.28729" lon="0.36803">
        <ele>120</ele>
        <time>2016-06-24T14:18:29Z</time>
      </trkpt>
      <trkpt lat="45.28726" lon="0.36807">
        <ele>123</ele>
        <time>2016-06-24T14:18:33Z</time>
      </trkpt>
      <trkpt lat="45.28723" lon="0.36812">
        <ele>125</ele>
        <time>2016-06-24T14:18:38Z</time>
      </trkpt>
      <trkpt lat="45.2872" lon="0.36817">
        <ele>128</ele>
        <time>2016-06-24T14:18:44Z</time>
      </trkpt>
      <trkpt lat="45.28715" lon="0.36835">
        <ele>121</ele>
        <time>2016-06-24T14:18:49Z</time>
      </trkpt>
      <trkpt lat="45.28712" lon="0.36848">
        <ele>116</ele>
        <time>2016-06-24T14:18:54Z</time>
      </trkpt>
      <trkpt lat="45.2871" lon="0.36855">
        <ele>115</ele>
        <time>2016-06-24T14:18:58Z</time>
      </trkpt>
      <trkpt lat="45.28708" lon="0.36862">
        <ele>114</ele>
        <time>2016-06-24T14:19:02Z</time>
      </trkpt>
      <trkpt lat="45.28704" lon="0.3687">
        <ele>114</ele>
        <time>2016-06-24T14:19:07Z</time>
      </trkpt>
      <trkpt lat="45.28702" lon="0.36876">
        <ele>119</ele>
        <time>2016-06-24T14:19:15Z</time>
      </trkpt>
      <trkpt lat="45.28699" lon="0.36886">
        <ele>119</ele>
        <time>2016-06-24T14:19:19Z</time>
      </trkpt>
      <trkpt lat="45.28698" lon="0.36896">
        <ele>120</ele>
        <time>2016-06-24T14:19:24Z</time>
      </trkpt>
      <trkpt lat="45.28696" lon="0.369">
        <ele>121</ele>
        <time>2016-06-24T14:19:28Z</time>
      </trkpt>
      <trkpt lat="45.28695" lon="0.36906">
        <ele>124</ele>
        <time>2016-06-24T14:19:35Z</time>
      </trkpt>
      <trkpt lat="45.28693" lon="0.36917">
        <ele>123</ele>
        <time>2016-06-24T14:19:39Z</time>
      </trkpt>
      <trkpt lat="45.28691" lon="0.36934">
        <ele>118</ele>
        <time>2016-06-24T14:19:44Z</time>
      </trkpt>
      <trkpt lat="45.28687" lon="0.36939">
        <ele>119</ele>
        <time>2016-06-24T14:19:48Z</time>
      </trkpt>
      <trkpt lat="45.28685" lon="0.36944">
        <ele>122</ele>
        <time>2016-06-24T14:19:52Z</time>
      </trkpt>
      <trkpt lat="45.28683" lon="0.36952">
        <ele>118</ele>
        <time>2016-06-24T14:19:56Z</time>
      </trkpt>
      <trkpt lat="45.28679" lon="0.36957">
        <ele>118</ele>
        <time>2016-06-24T14:20:00Z</time>
      </trkpt>
      <trkpt lat="45.28677" lon="0.36961">
        <ele>121</ele>
        <time>2016-06-24T14:20:04Z</time>
      </trkpt>
      <trkpt lat="45.28675" lon="0.36973">
        <ele>117</ele>
        <time>2016-06-24T14:20:09Z</time>
      </trkpt>
      <trkpt lat="45.28671" lon="0.36979">
        <ele>118</ele>
        <time>2016-06-24T14:20:14Z</time>
      </trkpt>
      <trkpt lat="45.28668" lon="0.36983">
        <ele>119</ele>
        <time>2016-06-24T14:20:18Z</time>
      </trkpt>
      <trkpt lat="45.28665" lon="0.36988">
        <ele>120</ele>
        <time>2016-06-24T14:20:23Z</time>
      </trkpt>
      <trkpt lat="45.28664" lon="0.36994">
        <ele>122</ele>
        <time>2016-06-24T14:20:27Z</time>
      </trkpt>
      <trkpt lat="45.28661" lon="0.37">
        <ele>123</ele>
        <time>2016-06-24T14:20:32Z</time>
      </trkpt>
      <trkpt lat="45.28659" lon="0.37008">
        <ele>121</ele>
        <time>2016-06-24T14:20:36Z</time>
      </trkpt>
      <trkpt lat="45.28658" lon="0.37015">
        <ele>122</ele>
        <time>2016-06-24T14:20:40Z</time>
      </trkpt>
      <trkpt lat="45.28656" lon="0.3702">
        <ele>122</ele>
        <time>2016-06-24T14:20:44Z</time>
      </trkpt>
      <trkpt lat="45.28657" lon="0.37024">
        <ele>124</ele>
        <time>2016-06-24T14:20:50Z</time>
      </trkpt>
      <trkpt lat="45.28657" lon="0.37045">
        <ele>112</ele>
        <time>2016-06-24T14:20:55Z</time>
      </trkpt>
      <trkpt lat="45.28654" lon="0.37049">
        <ele>113</ele>
        <time>2016-06-24T14:21:01Z</time>
      </trkpt>
      <trkpt lat="45.28653" lon="0.37055">
        <ele>118</ele>
        <time>2016-06-24T14:21:06Z</time>
      </trkpt>
      <trkpt lat="45.28651" lon="0.3706">
        <ele>117</ele>
        <time>2016-06-24T14:21:10Z</time>
      </trkpt>
      <trkpt lat="45.2865" lon="0.37066">
        <ele>115</ele>
        <time>2016-06-24T14:21:15Z</time>
      </trkpt>
      <trkpt lat="45.28648" lon="0.37074">
        <ele>112</ele>
        <time>2016-06-24T14:21:20Z</time>
      </trkpt>
      <trkpt lat="45.28643" lon="0.37081">
        <ele>114</ele>
        <time>2016-06-24T14:21:24Z</time>
      </trkpt>
      <trkpt lat="45.28641" lon="0.37089">
        <ele>114</ele>
        <time>2016-06-24T14:21:28Z</time>
      </trkpt>
      <trkpt lat="45.28638" lon="0.37093">
        <ele>116</ele>
        <time>2016-06-24T14:21:32Z</time>
      </trkpt>
      <trkpt lat="45.28636" lon="0.37099">
        <ele>117</ele>
        <time>2016-06-24T14:21:36Z</time>
      </trkpt>
      <trkpt lat="45.28633" lon="0.37106">
        <ele>119</ele>
        <time>2016-06-24T14:21:41Z</time>
      </trkpt>
      <trkpt lat="45.28632" lon="0.37113">
        <ele>116</ele>
        <time>2016-06-24T14:21:45Z</time>
      </trkpt>
      <trkpt lat="45.2863" lon="0.3712">
        <ele>115</ele>
        <time>2016-06-24T14:21:49Z</time>
      </trkpt>
      <trkpt lat="45.28629" lon="0.37128">
        <ele>117</ele>
        <time>2016-06-24T14:21:53Z</time>
      </trkpt>
      <trkpt lat="45.28626" lon="0.37131">
        <ele>119</ele>
        <time>2016-06-24T14:21:57Z</time>
      </trkpt>
      <trkpt lat="45.28623" lon="0.37136">
        <ele>121</ele>
        <time>2016-06-24T14:22:02Z</time>
      </trkpt>
      <trkpt lat="45.2862" lon="0.37138">
        <ele>120</ele>
        <time>2016-06-24T14:22:08Z</time>
      </trkpt>
      <trkpt lat="45.28618" lon="0.37144">
        <ele>119</ele>
        <time>2016-06-24T14:22:14Z</time>
      </trkpt>
      <trkpt lat="45.28615" lon="0.3714">
        <ele>118</ele>
        <time>2016-06-24T14:22:18Z</time>
      </trkpt>
      <trkpt lat="45.28611" lon="0.37153">
        <ele>112</ele>
        <time>2016-06-24T14:22:22Z</time>
      </trkpt>
      <trkpt lat="45.28615" lon="0.37166">
        <ele>105</ele>
        <time>2016-06-24T14:22:27Z</time>
      </trkpt>
      <trkpt lat="45.28611" lon="0.37168">
        <ele>108</ele>
        <time>2016-06-24T14:22:46Z</time>
      </trkpt>
      <trkpt lat="45.28607" lon="0.37168">
        <ele>109</ele>
        <time>2016-06-24T14:22:59Z</time>
      </trkpt>
      <trkpt lat="45.28601" lon="0.37167">
        <ele>109</ele>
        <time>2016-06-24T14:23:04Z</time>
      </trkpt>
      <trkpt lat="45.28592" lon="0.37164">
        <ele>109</ele>
        <time>2016-06-24T14:23:08Z</time>
      </trkpt>
      <trkpt lat="45.28588" lon="0.37164">
        <ele>110</ele>
        <time>2016-06-24T14:23:13Z</time>
      </trkpt>
      <trkpt lat="45.28583" lon="0.37161">
        <ele>108</ele>
        <time>2016-06-24T14:23:17Z</time>
      </trkpt>
      <trkpt lat="45.28575" lon="0.37159">
        <ele>108</ele>
        <time>2016-06-24T14:23:22Z</time>
      </trkpt>
      <trkpt lat="45.2857" lon="0.37157">
        <ele>109</ele>
        <time>2016-06-24T14:23:33Z</time>
      </trkpt>
      <trkpt lat="45.28568" lon="0.37156">
        <ele>109</ele>
        <time>2016-06-24T14:23:40Z</time>
      </trkpt>
      <trkpt lat="45.28558" lon="0.37152">
        <ele>110</ele>
        <time>2016-06-24T14:23:45Z</time>
      </trkpt>
      <trkpt lat="45.28553" lon="0.37153">
        <ele>107</ele>
        <time>2016-06-24T14:23:49Z</time>
      </trkpt>
      <trkpt lat="45.28549" lon="0.37151">
        <ele>111</ele>
        <time>2016-06-24T14:23:59Z</time>
      </trkpt>
      <trkpt lat="45.28539" lon="0.37145">
        <ele>110</ele>
        <time>2016-06-24T14:24:03Z</time>
      </trkpt>
      <trkpt lat="45.28534" lon="0.37143">
        <ele>109</ele>
        <time>2016-06-24T14:24:07Z</time>
      </trkpt>
      <trkpt lat="45.28526" lon="0.37143">
        <ele>107</ele>
        <time>2016-06-24T14:24:11Z</time>
      </trkpt>
      <trkpt lat="45.2852" lon="0.3714">
        <ele>107</ele>
        <time>2016-06-24T14:24:15Z</time>
      </trkpt>
      <trkpt lat="45.28516" lon="0.37139">
        <ele>111</ele>
        <time>2016-06-24T14:24:19Z</time>
      </trkpt>
      <trkpt lat="45.28512" lon="0.3714">
        <ele>112</ele>
        <time>2016-06-24T14:24:25Z</time>
      </trkpt>
      <trkpt lat="45.28508" lon="0.37139">
        <ele>112</ele>
        <time>2016-06-24T14:24:30Z</time>
      </trkpt>
      <trkpt lat="45.285" lon="0.37138">
        <ele>114</ele>
        <time>2016-06-24T14:24:35Z</time>
      </trkpt>
      <trkpt lat="45.28496" lon="0.37136">
        <ele>117</ele>
        <time>2016-06-24T14:24:39Z</time>
      </trkpt>
      <trkpt lat="45.28493" lon="0.37134">
        <ele>119</ele>
        <time>2016-06-24T14:24:48Z</time>
      </trkpt>
      <trkpt lat="45.28485" lon="0.37132">
        <ele>122</ele>
        <time>2016-06-24T14:24:53Z</time>
      </trkpt>
      <trkpt lat="45.28479" lon="0.37129">
        <ele>122</ele>
        <time>2016-06-24T14:24:57Z</time>
      </trkpt>
      <trkpt lat="45.28471" lon="0.37126">
        <ele>122</ele>
        <time>2016-06-24T14:25:01Z</time>
      </trkpt>
      <trkpt lat="45.28465" lon="0.37119">
        <ele>118</ele>
        <time>2016-06-24T14:25:06Z</time>
      </trkpt>
      <trkpt lat="45.28462" lon="0.37121">
        <ele>118</ele>
        <time>2016-06-24T14:25:11Z</time>
      </trkpt>
      <trkpt lat="45.28456" lon="0.37117">
        <ele>112</ele>
        <time>2016-06-24T14:25:15Z</time>
      </trkpt>
      <trkpt lat="45.2845" lon="0.37116">
        <ele>111</ele>
        <time>2016-06-24T14:25:20Z</time>
      </trkpt>
      <trkpt lat="45.28444" lon="0.37115">
        <ele>111</ele>
        <time>2016-06-24T14:25:25Z</time>
      </trkpt>
      <trkpt lat="45.28439" lon="0.37115">
        <ele>110</ele>
        <time>2016-06-24T14:25:29Z</time>
      </trkpt>
      <trkpt lat="45.28432" lon="0.37115">
        <ele>111</ele>
        <time>2016-06-24T14:25:34Z</time>
      </trkpt>
      <trkpt lat="45.28427" lon="0.37115">
        <ele>113</ele>
        <time>2016-06-24T14:25:39Z</time>
      </trkpt>
      <trkpt lat="45.28423" lon="0.37113">
        <ele>114</ele>
        <time>2016-06-24T14:25:43Z</time>
      </trkpt>
      <trkpt lat="45.28418" lon="0.37114">
        <ele>114</ele>
        <time>2016-06-24T14:25:47Z</time>
      </trkpt>
      <trkpt lat="45.28412" lon="0.37113">
        <ele>114</ele>
        <time>2016-06-24T14:25:51Z</time>
      </trkpt>
      <trkpt lat="45.28405" lon="0.37112">
        <ele>114</ele>
        <time>2016-06-24T14:25:56Z</time>
      </trkpt>
      <trkpt lat="45.284" lon="0.3711">
        <ele>116</ele>
        <time>2016-06-24T14:26:00Z</time>
      </trkpt>
      <trkpt lat="45.28395" lon="0.37108">
        <ele>115</ele>
        <time>2016-06-24T14:26:04Z</time>
      </trkpt>
      <trkpt lat="45.2839" lon="0.37106">
        <ele>115</ele>
        <time>2016-06-24T14:26:08Z</time>
      </trkpt>
      <trkpt lat="45.28386" lon="0.37102">
        <ele>116</ele>
        <time>2016-06-24T14:26:12Z</time>
      </trkpt>
      <trkpt lat="45.28381" lon="0.37099">
        <ele>114</ele>
        <time>2016-06-24T14:26:17Z</time>
      </trkpt>
      <trkpt lat="45.28376" lon="0.37096">
        <ele>115</ele>
        <time>2016-06-24T14:26:22Z</time>
      </trkpt>
      <trkpt lat="45.28372" lon="0.37094">
        <ele>113</ele>
        <time>2016-06-24T14:26:33Z</time>
      </trkpt>
      <trkpt lat="45.28368" lon="0.37092">
        <ele>113</ele>
        <time>2016-06-24T14:26:43Z</time>
      </trkpt>
      <trkpt lat="45.28364" lon="0.3709">
        <ele>114</ele>
        <time>2016-06-24T14:26:48Z</time>
      </trkpt>
      <trkpt lat="45.28361" lon="0.37088">
        <ele>114</ele>
        <time>2016-06-24T14:26:56Z</time>
      </trkpt>
      <trkpt lat="45.28357" lon="0.37087">
        <ele>116</ele>
        <time>2016-06-24T14:27:10Z</time>
      </trkpt>
      <trkpt lat="45.28353" lon="0.37087">
        <ele>116</ele>
        <time>2016-06-24T14:27:52Z</time>
      </trkpt>
      <trkpt lat="45.28353" lon="0.37082">
        <ele>116</ele>
        <time>2016-06-24T14:30:33Z</time>
      </trkpt>
      <trkpt lat="45.28345" lon="0.37077">
        <ele>117</ele>
        <time>2016-06-24T14:30:38Z</time>
      </trkpt>
      <trkpt lat="45.28339" lon="0.37072">
        <ele>116</ele>
        <time>2016-06-24T14:30:43Z</time>
      </trkpt>
      <trkpt lat="45.28336" lon="0.3707">
        <ele>114</ele>
        <time>2016-06-24T14:30:47Z</time>
      </trkpt>
      <trkpt lat="45.2833" lon="0.3707">
        <ele>115</ele>
        <time>2016-06-24T14:30:51Z</time>
      </trkpt>
      <trkpt lat="45.28327" lon="0.37068">
        <ele>114</ele>
        <time>2016-06-24T14:30:59Z</time>
      </trkpt>
      <trkpt lat="45.28322" lon="0.37068">
        <ele>115</ele>
        <time>2016-06-24T14:31:03Z</time>
      </trkpt>
      <trkpt lat="45.28316" lon="0.37067">
        <ele>114</ele>
        <time>2016-06-24T14:31:07Z</time>
      </trkpt>
      <trkpt lat="45.28312" lon="0.37064">
        <ele>114</ele>
        <time>2016-06-24T14:31:11Z</time>
      </trkpt>
      <trkpt lat="45.28307" lon="0.37059">
        <ele>115</ele>
        <time>2016-06-24T14:31:15Z</time>
      </trkpt>
      <trkpt lat="45.28301" lon="0.37056">
        <ele>116</ele>
        <time>2016-06-24T14:31:19Z</time>
      </trkpt>
      <trkpt lat="45.28294" lon="0.37055">
        <ele>119</ele>
        <time>2016-06-24T14:31:24Z</time>
      </trkpt>
      <trkpt lat="45.2829" lon="0.37056">
        <ele>117</ele>
        <time>2016-06-24T14:31:28Z</time>
      </trkpt>
      <trkpt lat="45.28284" lon="0.37057">
        <ele>115</ele>
        <time>2016-06-24T14:31:32Z</time>
      </trkpt>
      <trkpt lat="45.2828" lon="0.37056">
        <ele>116</ele>
        <time>2016-06-24T14:31:37Z</time>
      </trkpt>
      <trkpt lat="45.28273" lon="0.37056">
        <ele>118</ele>
        <time>2016-06-24T14:31:42Z</time>
      </trkpt>
      <trkpt lat="45.28266" lon="0.37058">
        <ele>119</ele>
        <time>2016-06-24T14:31:46Z</time>
      </trkpt>
      <trkpt lat="45.28258" lon="0.3706">
        <ele>119</ele>
        <time>2016-06-24T14:31:51Z</time>
      </trkpt>
      <trkpt lat="45.28252" lon="0.37061">
        <ele>121</ele>
        <time>2016-06-24T14:31:55Z</time>
      </trkpt>
      <trkpt lat="45.28246" lon="0.37063">
        <ele>119</ele>
        <time>2016-06-24T14:31:59Z</time>
      </trkpt>
      <trkpt lat="45.28238" lon="0.37067">
        <ele>117</ele>
        <time>2016-06-24T14:32:04Z</time>
      </trkpt>
      <trkpt lat="45.28233" lon="0.37067">
        <ele>117</ele>
        <time>2016-06-24T14:32:08Z</time>
      </trkpt>
      <trkpt lat="45.28229" lon="0.37068">
        <ele>117</ele>
        <time>2016-06-24T14:32:12Z</time>
      </trkpt>
      <trkpt lat="45.28223" lon="0.37071">
        <ele>116</ele>
        <time>2016-06-24T14:32:16Z</time>
      </trkpt>
      <trkpt lat="45.28218" lon="0.37072">
        <ele>115</ele>
        <time>2016-06-24T14:32:21Z</time>
      </trkpt>
      <trkpt lat="45.28212" lon="0.37077">
        <ele>113</ele>
        <time>2016-06-24T14:32:25Z</time>
      </trkpt>
      <trkpt lat="45.28209" lon="0.3708">
        <ele>113</ele>
        <time>2016-06-24T14:32:29Z</time>
      </trkpt>
      <trkpt lat="45.28207" lon="0.37087">
        <ele>115</ele>
        <time>2016-06-24T14:32:33Z</time>
      </trkpt>
      <trkpt lat="45.2821" lon="0.37097">
        <ele>116</ele>
        <time>2016-06-24T14:32:38Z</time>
      </trkpt>
      <trkpt lat="45.28211" lon="0.37105">
        <ele>116</ele>
        <time>2016-06-24T14:32:42Z</time>
      </trkpt>
      <trkpt lat="45.28213" lon="0.37115">
        <ele>114</ele>
        <time>2016-06-24T14:32:47Z</time>
      </trkpt>
      <trkpt lat="45.2821" lon="0.37123">
        <ele>110</ele>
        <time>2016-06-24T14:32:51Z</time>
      </trkpt>
      <trkpt lat="45.28209" lon="0.3713">
        <ele>111</ele>
        <time>2016-06-24T14:32:55Z</time>
      </trkpt>
      <trkpt lat="45.28209" lon="0.37136">
        <ele>108</ele>
        <time>2016-06-24T14:33:02Z</time>
      </trkpt>
      <trkpt lat="45.2821" lon="0.37143">
        <ele>107</ele>
        <time>2016-06-24T14:33:06Z</time>
      </trkpt>
      <trkpt lat="45.28212" lon="0.37148">
        <ele>107</ele>
        <time>2016-06-24T14:33:10Z</time>
      </trkpt>
      <trkpt lat="45.2821" lon="0.37157">
        <ele>107</ele>
        <time>2016-06-24T14:33:15Z</time>
      </trkpt>
      <trkpt lat="45.28208" lon="0.37166">
        <ele>106</ele>
        <time>2016-06-24T14:33:20Z</time>
      </trkpt>
      <trkpt lat="45.28208" lon="0.37173">
        <ele>104</ele>
        <time>2016-06-24T14:33:24Z</time>
      </trkpt>
      <trkpt lat="45.2821" lon="0.3718">
        <ele>106</ele>
        <time>2016-06-24T14:33:29Z</time>
      </trkpt>
      <trkpt lat="45.28206" lon="0.37183">
        <ele>109</ele>
        <time>2016-06-24T14:33:34Z</time>
      </trkpt>
      <trkpt lat="45.28202" lon="0.37184">
        <ele>110</ele>
        <time>2016-06-24T14:33:39Z</time>
      </trkpt>
      <trkpt lat="45.28199" lon="0.3719">
        <ele>107</ele>
        <time>2016-06-24T14:33:43Z</time>
      </trkpt>
      <trkpt lat="45.28197" lon="0.37196">
        <ele>106</ele>
        <time>2016-06-24T14:33:51Z</time>
      </trkpt>
      <trkpt lat="45.28188" lon="0.37195">
        <ele>101</ele>
        <time>2016-06-24T14:33:56Z</time>
      </trkpt>
      <trkpt lat="45.28184" lon="0.37195">
        <ele>100</ele>
        <time>2016-06-24T14:34:00Z</time>
      </trkpt>
      <trkpt lat="45.28178" lon="0.37197">
        <ele>102</ele>
        <time>2016-06-24T14:34:05Z</time>
      </trkpt>
      <trkpt lat="45.28172" lon="0.37197">
        <ele>101</ele>
        <time>2016-06-24T14:34:09Z</time>
      </trkpt>
      <trkpt lat="45.28165" lon="0.37199">
        <ele>103</ele>
        <time>2016-06-24T14:34:14Z</time>
      </trkpt>
      <trkpt lat="45.28162" lon="0.37201">
        <ele>101</ele>
        <time>2016-06-24T14:34:20Z</time>
      </trkpt>
      <trkpt lat="45.28156" lon="0.37198">
        <ele>103</ele>
        <time>2016-06-24T14:34:24Z</time>
      </trkpt>
      <trkpt lat="45.28152" lon="0.37195">
        <ele>105</ele>
        <time>2016-06-24T14:34:28Z</time>
      </trkpt>
      <trkpt lat="45.28149" lon="0.37191">
        <ele>105</ele>
        <time>2016-06-24T14:34:33Z</time>
      </trkpt>
      <trkpt lat="45.28148" lon="0.37183">
        <ele>105</ele>
        <time>2016-06-24T14:34:38Z</time>
      </trkpt>
      <trkpt lat="45.28144" lon="0.37178">
        <ele>103</ele>
        <time>2016-06-24T14:34:42Z</time>
      </trkpt>
      <trkpt lat="45.28138" lon="0.37181">
        <ele>102</ele>
        <time>2016-06-24T14:34:47Z</time>
      </trkpt>
      <trkpt lat="45.28131" lon="0.37183">
        <ele>102</ele>
        <time>2016-06-24T14:34:52Z</time>
      </trkpt>
      <trkpt lat="45.28125" lon="0.37185">
        <ele>103</ele>
        <time>2016-06-24T14:34:56Z</time>
      </trkpt>
      <trkpt lat="45.28121" lon="0.37182">
        <ele>105</ele>
        <time>2016-06-24T14:35:04Z</time>
      </trkpt>
      <trkpt lat="45.28123" lon="0.37188">
        <ele>96</ele>
        <time>2016-06-24T14:35:21Z</time>
      </trkpt>
      <trkpt lat="45.28125" lon="0.37194">
        <ele>97</ele>
        <time>2016-06-24T14:35:41Z</time>
      </trkpt>
      <trkpt lat="45.28121" lon="0.37193">
        <ele>100</ele>
        <time>2016-06-24T14:35:51Z</time>
      </trkpt>
      <trkpt lat="45.28117" lon="0.37199">
        <ele>99</ele>
        <time>2016-06-24T14:35:56Z</time>
      </trkpt>
      <trkpt lat="45.28113" lon="0.37208">
        <ele>99</ele>
        <time>2016-06-24T14:36:01Z</time>
      </trkpt>
      <trkpt lat="45.2811" lon="0.37216">
        <ele>98</ele>
        <time>2016-06-24T14:36:06Z</time>
      </trkpt>
      <trkpt lat="45.28103" lon="0.3722">
        <ele>101</ele>
        <time>2016-06-24T14:36:10Z</time>
      </trkpt>
      <trkpt lat="45.28098" lon="0.37222">
        <ele>103</ele>
        <time>2016-06-24T14:36:14Z</time>
      </trkpt>
      <trkpt lat="45.28095" lon="0.37231">
        <ele>102</ele>
        <time>2016-06-24T14:36:19Z</time>
      </trkpt>
      <trkpt lat="45.28094" lon="0.37236">
        <ele>99</ele>
        <time>2016-06-24T14:36:23Z</time>
      </trkpt>
      <trkpt lat="45.28093" lon="0.37246">
        <ele>99</ele>
        <time>2016-06-24T14:36:28Z</time>
      </trkpt>
      <trkpt lat="45.28091" lon="0.37251">
        <ele>96</ele>
        <time>2016-06-24T14:36:32Z</time>
      </trkpt>
      <trkpt lat="45.28088" lon="0.37262">
        <ele>99</ele>
        <time>2016-06-24T14:36:37Z</time>
      </trkpt>
      <trkpt lat="45.28086" lon="0.37273">
        <ele>98</ele>
        <time>2016-06-24T14:36:42Z</time>
      </trkpt>
      <trkpt lat="45.28084" lon="0.37277">
        <ele>98</ele>
        <time>2016-06-24T14:36:46Z</time>
      </trkpt>
      <trkpt lat="45.28081" lon="0.37284">
        <ele>99</ele>
        <time>2016-06-24T14:36:50Z</time>
      </trkpt>
      <trkpt lat="45.28078" lon="0.37289">
        <ele>100</ele>
        <time>2016-06-24T14:36:55Z</time>
      </trkpt>
      <trkpt lat="45.28075" lon="0.37297">
        <ele>101</ele>
        <time>2016-06-24T14:37:00Z</time>
      </trkpt>
      <trkpt lat="45.2807" lon="0.37301">
        <ele>101</ele>
        <time>2016-06-24T14:37:05Z</time>
      </trkpt>
      <trkpt lat="45.28067" lon="0.37305">
        <ele>103</ele>
        <time>2016-06-24T14:37:09Z</time>
      </trkpt>
      <trkpt lat="45.28066" lon="0.37315">
        <ele>99</ele>
        <time>2016-06-24T14:37:14Z</time>
      </trkpt>
      <trkpt lat="45.28065" lon="0.3732">
        <ele>97</ele>
        <time>2016-06-24T14:37:21Z</time>
      </trkpt>
      <trkpt lat="45.28062" lon="0.37323">
        <ele>94</ele>
        <time>2016-06-24T14:37:45Z</time>
      </trkpt>
      <trkpt lat="45.28062" lon="0.37331">
        <ele>91</ele>
        <time>2016-06-24T14:37:49Z</time>
      </trkpt>
      <trkpt lat="45.2806" lon="0.37337">
        <ele>93</ele>
        <time>2016-06-24T14:37:54Z</time>
      </trkpt>
      <trkpt lat="45.28057" lon="0.37341">
        <ele>98</ele>
        <time>2016-06-24T14:37:58Z</time>
      </trkpt>
      <trkpt lat="45.28057" lon="0.37352">
        <ele>96</ele>
        <time>2016-06-24T14:38:03Z</time>
      </trkpt>
      <trkpt lat="45.28054" lon="0.37359">
        <ele>97</ele>
        <time>2016-06-24T14:38:07Z</time>
      </trkpt>
      <trkpt lat="45.28051" lon="0.37364">
        <ele>97</ele>
        <time>2016-06-24T14:38:11Z</time>
      </trkpt>
      <trkpt lat="45.28049" lon="0.3737">
        <ele>96</ele>
        <time>2016-06-24T14:38:15Z</time>
      </trkpt>
      <trkpt lat="45.28049" lon="0.37377">
        <ele>99</ele>
        <time>2016-06-24T14:38:19Z</time>
      </trkpt>
      <trkpt lat="45.28048" lon="0.37386">
        <ele>97</ele>
        <time>2016-06-24T14:38:23Z</time>
      </trkpt>
      <trkpt lat="45.28047" lon="0.37393">
        <ele>97</ele>
        <time>2016-06-24T14:38:27Z</time>
      </trkpt>
      <trkpt lat="45.28048" lon="0.37401">
        <ele>97</ele>
        <time>2016-06-24T14:38:31Z</time>
      </trkpt>
      <trkpt lat="45.28047" lon="0.37412">
        <ele>92</ele>
        <time>2016-06-24T14:38:35Z</time>
      </trkpt>
      <trkpt lat="45.28045" lon="0.37421">
        <ele>90</ele>
        <time>2016-06-24T14:38:40Z</time>
      </trkpt>
      <trkpt lat="45.28043" lon="0.37423">
        <ele>85</ele>
        <time>2016-06-24T14:39:19Z</time>
      </trkpt>
      <trkpt lat="45.28043" lon="0.3743">
        <ele>81</ele>
        <time>2016-06-24T14:39:24Z</time>
      </trkpt>
      <trkpt lat="45.28042" lon="0.37433">
        <ele>83</ele>
        <time>2016-06-24T14:39:33Z</time>
      </trkpt>
      <trkpt lat="45.28035" lon="0.37439">
        <ele>84</ele>
        <time>2016-06-24T14:39:37Z</time>
      </trkpt>
      <trkpt lat="45.28031" lon="0.37447">
        <ele>85</ele>
        <time>2016-06-24T14:39:42Z</time>
      </trkpt>
      <trkpt lat="45.28029" lon="0.37455">
        <ele>86</ele>
        <time>2016-06-24T14:39:46Z</time>
      </trkpt>
      <trkpt lat="45.28026" lon="0.37459">
        <ele>87</ele>
        <time>2016-06-24T14:39:50Z</time>
      </trkpt>
      <trkpt lat="45.28024" lon="0.37464">
        <ele>89</ele>
        <time>2016-06-24T14:39:54Z</time>
      </trkpt>
      <trkpt lat="45.2802" lon="0.37466">
        <ele>90</ele>
        <time>2016-06-24T14:40:08Z</time>
      </trkpt>
      <trkpt lat="45.28015" lon="0.37463">
        <ele>93</ele>
        <time>2016-06-24T14:40:12Z</time>
      </trkpt>
      <trkpt lat="45.28008" lon="0.37463">
        <ele>94</ele>
        <time>2016-06-24T14:40:16Z</time>
      </trkpt>
      <trkpt lat="45.28" lon="0.37465">
        <ele>97</ele>
        <time>2016-06-24T14:40:21Z</time>
      </trkpt>
      <trkpt lat="45.27996" lon="0.37467">
        <ele>98</ele>
        <time>2016-06-24T14:40:25Z</time>
      </trkpt>
      <trkpt lat="45.27993" lon="0.37471">
        <ele>94</ele>
        <time>2016-06-24T14:40:31Z</time>
      </trkpt>
      <trkpt lat="45.27987" lon="0.37476">
        <ele>95</ele>
        <time>2016-06-24T14:40:36Z</time>
      </trkpt>
      <trkpt lat="45.27983" lon="0.37475">
        <ele>96</ele>
        <time>2016-06-24T14:40:40Z</time>
      </trkpt>
      <trkpt lat="45.27975" lon="0.37485">
        <ele>93</ele>
        <time>2016-06-24T14:40:45Z</time>
      </trkpt>
      <trkpt lat="45.27971" lon="0.37487">
        <ele>96</ele>
        <time>2016-06-24T14:40:49Z</time>
      </trkpt>
      <trkpt lat="45.27968" lon="0.37489">
        <ele>96</ele>
        <time>2016-06-24T14:40:57Z</time>
      </trkpt>
      <trkpt lat="45.27959" lon="0.37496">
        <ele>98</ele>
        <time>2016-06-24T14:41:01Z</time>
      </trkpt>
      <trkpt lat="45.2795" lon="0.37498">
        <ele>99</ele>
        <time>2016-06-24T14:41:06Z</time>
      </trkpt>
      <trkpt lat="45.27944" lon="0.37501">
        <ele>100</ele>
        <time>2016-06-24T14:41:10Z</time>
      </trkpt>
      <trkpt lat="45.27941" lon="0.37506">
        <ele>99</ele>
        <time>2016-06-24T14:41:14Z</time>
      </trkpt>
      <trkpt lat="45.27938" lon="0.37509">
        <ele>98</ele>
        <time>2016-06-24T14:41:20Z</time>
      </trkpt>
      <trkpt lat="45.27934" lon="0.37518">
        <ele>96</ele>
        <time>2016-06-24T14:41:25Z</time>
      </trkpt>
      <trkpt lat="45.27928" lon="0.37522">
        <ele>98</ele>
        <time>2016-06-24T14:41:30Z</time>
      </trkpt>
      <trkpt lat="45.27924" lon="0.37529">
        <ele>97</ele>
        <time>2016-06-24T14:41:35Z</time>
      </trkpt>
      <trkpt lat="45.2792" lon="0.37533">
        <ele>100</ele>
        <time>2016-06-24T14:41:41Z</time>
      </trkpt>
      <trkpt lat="45.27918" lon="0.37537">
        <ele>103</ele>
        <time>2016-06-24T14:41:46Z</time>
      </trkpt>
      <trkpt lat="45.27914" lon="0.37542">
        <ele>105</ele>
        <time>2016-06-24T14:41:50Z</time>
      </trkpt>
      <trkpt lat="45.27912" lon="0.37548">
        <ele>104</ele>
        <time>2016-06-24T14:41:54Z</time>
      </trkpt>
      <trkpt lat="45.27909" lon="0.37551">
        <ele>105</ele>
        <time>2016-06-24T14:41:58Z</time>
      </trkpt>
      <trkpt lat="45.27906" lon="0.37555">
        <ele>105</ele>
        <time>2016-06-24T14:42:02Z</time>
      </trkpt>
      <trkpt lat="45.27902" lon="0.37558">
        <ele>105</ele>
        <time>2016-06-24T14:42:07Z</time>
      </trkpt>
      <trkpt lat="45.27897" lon="0.3756">
        <ele>107</ele>
        <time>2016-06-24T14:42:11Z</time>
      </trkpt>
      <trkpt lat="45.27892" lon="0.37561">
        <ele>110</ele>
        <time>2016-06-24T14:42:15Z</time>
      </trkpt>
      <trkpt lat="45.2789" lon="0.37566">
        <ele>111</ele>
        <time>2016-06-24T14:42:22Z</time>
      </trkpt>
      <trkpt lat="45.27886" lon="0.37572">
        <ele>112</ele>
        <time>2016-06-24T14:42:27Z</time>
      </trkpt>
      <trkpt lat="45.27881" lon="0.37576">
        <ele>114</ele>
        <time>2016-06-24T14:42:32Z</time>
      </trkpt>
      <trkpt lat="45.27877" lon="0.37578">
        <ele>116</ele>
        <time>2016-06-24T14:42:36Z</time>
      </trkpt>
      <trkpt lat="45.27876" lon="0.37584">
        <ele>113</ele>
        <time>2016-06-24T14:42:41Z</time>
      </trkpt>
      <trkpt lat="45.27874" lon="0.37589">
        <ele>111</ele>
        <time>2016-06-24T14:42:47Z</time>
      </trkpt>
      <trkpt lat="45.27871" lon="0.37596">
        <ele>106</ele>
        <time>2016-06-24T14:42:51Z</time>
      </trkpt>
      <trkpt lat="45.27868" lon="0.376">
        <ele>105</ele>
        <time>2016-06-24T14:43:03Z</time>
      </trkpt>
      <trkpt lat="45.27864" lon="0.37602">
        <ele>106</ele>
        <time>2016-06-24T14:43:09Z</time>
      </trkpt>
      <trkpt lat="45.27861" lon="0.37602">
        <ele>108</ele>
        <time>2016-06-24T14:43:16Z</time>
      </trkpt>
      <trkpt lat="45.27857" lon="0.37601">
        <ele>110</ele>
        <time>2016-06-24T14:43:22Z</time>
      </trkpt>
      <trkpt lat="45.27853" lon="0.37602">
        <ele>114</ele>
        <time>2016-06-24T14:43:30Z</time>
      </trkpt>
      <trkpt lat="45.27846" lon="0.37603">
        <ele>114</ele>
        <time>2016-06-24T14:43:34Z</time>
      </trkpt>
      <trkpt lat="45.27838" lon="0.37602">
        <ele>111</ele>
        <time>2016-06-24T14:43:39Z</time>
      </trkpt>
      <trkpt lat="45.27832" lon="0.376">
        <ele>111</ele>
        <time>2016-06-24T14:43:43Z</time>
      </trkpt>
      <trkpt lat="45.27828" lon="0.37593">
        <ele>112</ele>
        <time>2016-06-24T14:43:48Z</time>
      </trkpt>
      <trkpt lat="45.27824" lon="0.37592">
        <ele>112</ele>
        <time>2016-06-24T14:43:52Z</time>
      </trkpt>
      <trkpt lat="45.2782" lon="0.37587">
        <ele>114</ele>
        <time>2016-06-24T14:43:57Z</time>
      </trkpt>
      <trkpt lat="45.27815" lon="0.37588">
        <ele>115</ele>
        <time>2016-06-24T14:44:01Z</time>
      </trkpt>
      <trkpt lat="45.27811" lon="0.37589">
        <ele>117</ele>
        <time>2016-06-24T14:44:07Z</time>
      </trkpt>
      <trkpt lat="45.27807" lon="0.37586">
        <ele>116</ele>
        <time>2016-06-24T14:44:12Z</time>
      </trkpt>
      <trkpt lat="45.27804" lon="0.37588">
        <ele>114</ele>
        <time>2016-06-24T14:44:17Z</time>
      </trkpt>
      <trkpt lat="45.27794" lon="0.37587">
        <ele>117</ele>
        <time>2016-06-24T14:44:22Z</time>
      </trkpt>
      <trkpt lat="45.27787" lon="0.37586">
        <ele>118</ele>
        <time>2016-06-24T14:44:26Z</time>
      </trkpt>
      <trkpt lat="45.27782" lon="0.3759">
        <ele>118</ele>
        <time>2016-06-24T14:44:30Z</time>
      </trkpt>
      <trkpt lat="45.27778" lon="0.37594">
        <ele>119</ele>
        <time>2016-06-24T14:44:34Z</time>
      </trkpt>
      <trkpt lat="45.27775" lon="0.37599">
        <ele>118</ele>
        <time>2016-06-24T14:44:38Z</time>
      </trkpt>
      <trkpt lat="45.27773" lon="0.37608">
        <ele>120</ele>
        <time>2016-06-24T14:44:43Z</time>
      </trkpt>
      <trkpt lat="45.27769" lon="0.37612">
        <ele>123</ele>
        <time>2016-06-24T14:44:48Z</time>
      </trkpt>
      <trkpt lat="45.27766" lon="0.37615">
        <ele>125</ele>
        <time>2016-06-24T14:44:53Z</time>
      </trkpt>
      <trkpt lat="45.27765" lon="0.37622">
        <ele>126</ele>
        <time>2016-06-24T14:44:57Z</time>
      </trkpt>
      <trkpt lat="45.27764" lon="0.37626">
        <ele>128</ele>
        <time>2016-06-24T14:45:03Z</time>
      </trkpt>
      <trkpt lat="45.27761" lon="0.37636">
        <ele>128</ele>
        <time>2016-06-24T14:45:08Z</time>
      </trkpt>
      <trkpt lat="45.27765" lon="0.3765">
        <ele>117</ele>
        <time>2016-06-24T14:45:12Z</time>
      </trkpt>
      <trkpt lat="45.27762" lon="0.37653">
        <ele>121</ele>
        <time>2016-06-24T14:45:18Z</time>
      </trkpt>
      <trkpt lat="45.27759" lon="0.37657">
        <ele>123</ele>
        <time>2016-06-24T14:45:22Z</time>
      </trkpt>
      <trkpt lat="45.27757" lon="0.37661">
        <ele>124</ele>
        <time>2016-06-24T14:45:26Z</time>
      </trkpt>
      <trkpt lat="45.27755" lon="0.37671">
        <ele>122</ele>
        <time>2016-06-24T14:45:31Z</time>
      </trkpt>
      <trkpt lat="45.27752" lon="0.37676">
        <ele>124</ele>
        <time>2016-06-24T14:45:35Z</time>
      </trkpt>
      <trkpt lat="45.27748" lon="0.37682">
        <ele>123</ele>
        <time>2016-06-24T14:45:40Z</time>
      </trkpt>
      <trkpt lat="45.27746" lon="0.3769">
        <ele>120</ele>
        <time>2016-06-24T14:45:44Z</time>
      </trkpt>
      <trkpt lat="45.27743" lon="0.37695">
        <ele>119</ele>
        <time>2016-06-24T14:45:49Z</time>
      </trkpt>
      <trkpt lat="45.2774" lon="0.377">
        <ele>121</ele>
        <time>2016-06-24T14:45:54Z</time>
      </trkpt>
      <trkpt lat="45.27738" lon="0.37705">
        <ele>118</ele>
        <time>2016-06-24T14:45:58Z</time>
      </trkpt>
      <trkpt lat="45.27734" lon="0.37709">
        <ele>120</ele>
        <time>2016-06-24T14:46:02Z</time>
      </trkpt>
      <trkpt lat="45.27732" lon="0.37711">
        <ele>120</ele>
        <time>2016-06-24T14:46:07Z</time>
      </trkpt>
      <trkpt lat="45.27727" lon="0.37713">
        <ele>123</ele>
        <time>2016-06-24T14:46:11Z</time>
      </trkpt>
      <trkpt lat="45.27722" lon="0.37718">
        <ele>122</ele>
        <time>2016-06-24T14:46:15Z</time>
      </trkpt>
      <trkpt lat="45.27719" lon="0.37722">
        <ele>125</ele>
        <time>2016-06-24T14:46:19Z</time>
      </trkpt>
      <trkpt lat="45.27715" lon="0.37727">
        <ele>125</ele>
        <time>2016-06-24T14:46:24Z</time>
      </trkpt>
      <trkpt lat="45.27712" lon="0.37729">
        <ele>126</ele>
        <time>2016-06-24T14:46:28Z</time>
      </trkpt>
      <trkpt lat="45.27709" lon="0.37733">
        <ele>125</ele>
        <time>2016-06-24T14:46:33Z</time>
      </trkpt>
      <trkpt lat="45.27706" lon="0.37738">
        <ele>126</ele>
        <time>2016-06-24T14:46:37Z</time>
      </trkpt>
      <trkpt lat="45.27701" lon="0.37739">
        <ele>125</ele>
        <time>2016-06-24T14:46:41Z</time>
      </trkpt>
      <trkpt lat="45.27696" lon="0.37738">
        <ele>127</ele>
        <time>2016-06-24T14:46:45Z</time>
      </trkpt>
      <trkpt lat="45.27692" lon="0.37739">
        <ele>126</ele>
        <time>2016-06-24T14:46:51Z</time>
      </trkpt>
      <trkpt lat="45.27687" lon="0.37738">
        <ele>126</ele>
        <time>2016-06-24T14:46:56Z</time>
      </trkpt>
      <trkpt lat="45.27682" lon="0.37738">
        <ele>127</ele>
        <time>2016-06-24T14:47:00Z</time>
      </trkpt>
      <trkpt lat="45.27678" lon="0.37739">
        <ele>125</ele>
        <time>2016-06-24T14:47:05Z</time>
      </trkpt>
      <trkpt lat="45.27674" lon="0.37738">
        <ele>127</ele>
        <time>2016-06-24T14:47:11Z</time>
      </trkpt>
      <trkpt lat="45.27669" lon="0.37735">
        <ele>128</ele>
        <time>2016-06-24T14:47:15Z</time>
      </trkpt>
      <trkpt lat="45.27666" lon="0.37736">
        <ele>129</ele>
        <time>2016-06-24T14:47:19Z</time>
      </trkpt>
      <trkpt lat="45.27662" lon="0.37736">
        <ele>129</ele>
        <time>2016-06-24T14:47:23Z</time>
      </trkpt>
      <trkpt lat="45.27658" lon="0.37737">
        <ele>128</ele>
        <time>2016-06-24T14:47:29Z</time>
      </trkpt>
      <trkpt lat="45.27655" lon="0.37736">
        <ele>128</ele>
        <time>2016-06-24T14:47:34Z</time>
      </trkpt>
      <trkpt lat="45.27649" lon="0.37738">
        <ele>128</ele>
        <time>2016-06-24T14:47:38Z</time>
      </trkpt>
      <trkpt lat="45.27643" lon="0.37745">
        <ele>129</ele>
        <time>2016-06-24T14:47:43Z</time>
      </trkpt>
      <trkpt lat="45.27641" lon="0.37754">
        <ele>130</ele>
        <time>2016-06-24T14:47:47Z</time>
      </trkpt>
      <trkpt lat="45.27638" lon="0.37763">
        <ele>127</ele>
        <time>2016-06-24T14:47:52Z</time>
      </trkpt>
      <trkpt lat="45.27636" lon="0.37769">
        <ele>130</ele>
        <time>2016-06-24T14:47:57Z</time>
      </trkpt>
      <trkpt lat="45.27635" lon="0.37777">
        <ele>131</ele>
        <time>2016-06-24T14:48:01Z</time>
      </trkpt>
      <trkpt lat="45.27632" lon="0.37781">
        <ele>133</ele>
        <time>2016-06-24T14:48:05Z</time>
      </trkpt>
      <trkpt lat="45.27631" lon="0.37787">
        <ele>134</ele>
        <time>2016-06-24T14:48:10Z</time>
      </trkpt>
      <trkpt lat="45.27629" lon="0.37793">
        <ele>136</ele>
        <time>2016-06-24T14:48:15Z</time>
      </trkpt>
      <trkpt lat="45.27627" lon="0.37798">
        <ele>138</ele>
        <time>2016-06-24T14:48:19Z</time>
      </trkpt>
      <trkpt lat="45.27625" lon="0.37804">
        <ele>139</ele>
        <time>2016-06-24T14:48:24Z</time>
      </trkpt>
      <trkpt lat="45.27624" lon="0.37809">
        <ele>139</ele>
        <time>2016-06-24T14:48:28Z</time>
      </trkpt>
      <trkpt lat="45.27623" lon="0.37819">
        <ele>139</ele>
        <time>2016-06-24T14:48:33Z</time>
      </trkpt>
      <trkpt lat="45.27622" lon="0.37825">
        <ele>141</ele>
        <time>2016-06-24T14:48:37Z</time>
      </trkpt>
      <trkpt lat="45.27621" lon="0.37835">
        <ele>139</ele>
        <time>2016-06-24T14:48:42Z</time>
      </trkpt>
      <trkpt lat="45.27621" lon="0.37842">
        <ele>137</ele>
        <time>2016-06-24T14:48:46Z</time>
      </trkpt>
      <trkpt lat="45.2762" lon="0.37847">
        <ele>136</ele>
        <time>2016-06-24T14:48:51Z</time>
      </trkpt>
      <trkpt lat="45.27619" lon="0.37855">
        <ele>138</ele>
        <time>2016-06-24T14:48:55Z</time>
      </trkpt>
      <trkpt lat="45.27618" lon="0.37863">
        <ele>138</ele>
        <time>2016-06-24T14:48:59Z</time>
      </trkpt>
      <trkpt lat="45.27617" lon="0.37869">
        <ele>138</ele>
        <time>2016-06-24T14:49:03Z</time>
      </trkpt>
      <trkpt lat="45.27615" lon="0.37876">
        <ele>139</ele>
        <time>2016-06-24T14:49:07Z</time>
      </trkpt>
      <trkpt lat="45.27614" lon="0.37885">
        <ele>138</ele>
        <time>2016-06-24T14:49:12Z</time>
      </trkpt>
      <trkpt lat="45.27614" lon="0.37893">
        <ele>136</ele>
        <time>2016-06-24T14:49:16Z</time>
      </trkpt>
      <trkpt lat="45.27612" lon="0.37903">
        <ele>134</ele>
        <time>2016-06-24T14:49:21Z</time>
      </trkpt>
      <trkpt lat="45.2761" lon="0.37912">
        <ele>134</ele>
        <time>2016-06-24T14:49:26Z</time>
      </trkpt>
      <trkpt lat="45.27606" lon="0.37915">
        <ele>134</ele>
        <time>2016-06-24T14:49:31Z</time>
      </trkpt>
      <trkpt lat="45.27602" lon="0.37915">
        <ele>134</ele>
        <time>2016-06-24T14:49:35Z</time>
      </trkpt>
      <trkpt lat="45.27598" lon="0.37914">
        <ele>131</ele>
        <time>2016-06-24T14:49:40Z</time>
      </trkpt>
      <trkpt lat="45.27593" lon="0.37915">
        <ele>130</ele>
        <time>2016-06-24T14:49:44Z</time>
      </trkpt>
      <trkpt lat="45.27589" lon="0.37915">
        <ele>131</ele>
        <time>2016-06-24T14:49:48Z</time>
      </trkpt>
      <trkpt lat="45.27582" lon="0.37913">
        <ele>130</ele>
        <time>2016-06-24T14:49:53Z</time>
      </trkpt>
      <trkpt lat="45.27577" lon="0.37912">
        <ele>131</ele>
        <time>2016-06-24T14:49:57Z</time>
      </trkpt>
      <trkpt lat="45.27572" lon="0.37908">
        <ele>131</ele>
        <time>2016-06-24T14:50:01Z</time>
      </trkpt>
      <trkpt lat="45.27567" lon="0.37906">
        <ele>132</ele>
        <time>2016-06-24T14:50:05Z</time>
      </trkpt>
      <trkpt lat="45.27561" lon="0.37905">
        <ele>132</ele>
        <time>2016-06-24T14:50:10Z</time>
      </trkpt>
      <trkpt lat="45.27554" lon="0.379">
        <ele>133</ele>
        <time>2016-06-24T14:50:15Z</time>
      </trkpt>
      <trkpt lat="45.2755" lon="0.37898">
        <ele>134</ele>
        <time>2016-06-24T14:50:19Z</time>
      </trkpt>
      <trkpt lat="45.27545" lon="0.37897">
        <ele>134</ele>
        <time>2016-06-24T14:50:24Z</time>
      </trkpt>
      <trkpt lat="45.27539" lon="0.37895">
        <ele>134</ele>
        <time>2016-06-24T14:50:28Z</time>
      </trkpt>
      <trkpt lat="45.27534" lon="0.37896">
        <ele>133</ele>
        <time>2016-06-24T14:50:33Z</time>
      </trkpt>
      <trkpt lat="45.2753" lon="0.37894">
        <ele>132</ele>
        <time>2016-06-24T14:50:37Z</time>
      </trkpt>
      <trkpt lat="45.27525" lon="0.37894">
        <ele>132</ele>
        <time>2016-06-24T14:50:41Z</time>
      </trkpt>
      <trkpt lat="45.27519" lon="0.37893">
        <ele>133</ele>
        <time>2016-06-24T14:50:46Z</time>
      </trkpt>
      <trkpt lat="45.27514" lon="0.37892">
        <ele>133</ele>
        <time>2016-06-24T14:50:50Z</time>
      </trkpt>
      <trkpt lat="45.27507" lon="0.37891">
        <ele>133</ele>
        <time>2016-06-24T14:50:55Z</time>
      </trkpt>
      <trkpt lat="45.27502" lon="0.37891">
        <ele>132</ele>
        <time>2016-06-24T14:51:00Z</time>
      </trkpt>
      <trkpt lat="45.27497" lon="0.37889">
        <ele>132</ele>
        <time>2016-06-24T14:51:04Z</time>
      </trkpt>
      <trkpt lat="45.27492" lon="0.37889">
        <ele>133</ele>
        <time>2016-06-24T14:51:08Z</time>
      </trkpt>
      <trkpt lat="45.27485" lon="0.37889">
        <ele>132</ele>
        <time>2016-06-24T14:51:12Z</time>
      </trkpt>
      <trkpt lat="45.2748" lon="0.37889">
        <ele>131</ele>
        <time>2016-06-24T14:51:17Z</time>
      </trkpt>
      <trkpt lat="45.27474" lon="0.3789">
        <ele>130</ele>
        <time>2016-06-24T14:51:21Z</time>
      </trkpt>
      <trkpt lat="45.27469" lon="0.37889">
        <ele>131</ele>
        <time>2016-06-24T14:51:25Z</time>
      </trkpt>
      <trkpt lat="45.27463" lon="0.37886">
        <ele>133</ele>
        <time>2016-06-24T14:51:30Z</time>
      </trkpt>
      <trkpt lat="45.27457" lon="0.37885">
        <ele>133</ele>
        <time>2016-06-24T14:51:34Z</time>
      </trkpt>
      <trkpt lat="45.27451" lon="0.37885">
        <ele>132</ele>
        <time>2016-06-24T14:51:39Z</time>
      </trkpt>
      <trkpt lat="45.27447" lon="0.37882">
        <ele>132</ele>
        <time>2016-06-24T14:51:43Z</time>
      </trkpt>
      <trkpt lat="45.27442" lon="0.37881">
        <ele>133</ele>
        <time>2016-06-24T14:51:47Z</time>
      </trkpt>
      <trkpt lat="45.27435" lon="0.37881">
        <ele>133</ele>
        <time>2016-06-24T14:51:52Z</time>
      </trkpt>
      <trkpt lat="45.27431" lon="0.37881">
        <ele>133</ele>
        <time>2016-06-24T14:51:56Z</time>
      </trkpt>
      <trkpt lat="45.27426" lon="0.3788">
        <ele>133</ele>
        <time>2016-06-24T14:52:00Z</time>
      </trkpt>
      <trkpt lat="45.2742" lon="0.37881">
        <ele>133</ele>
        <time>2016-06-24T14:52:05Z</time>
      </trkpt>
      <trkpt lat="45.27415" lon="0.37882">
        <ele>133</ele>
        <time>2016-06-24T14:52:09Z</time>
      </trkpt>
      <trkpt lat="45.27409" lon="0.37882">
        <ele>132</ele>
        <time>2016-06-24T14:52:14Z</time>
      </trkpt>
      <trkpt lat="45.27404" lon="0.37881">
        <ele>134</ele>
        <time>2016-06-24T14:52:18Z</time>
      </trkpt>
      <trkpt lat="45.27398" lon="0.37881">
        <ele>133</ele>
        <time>2016-06-24T14:52:23Z</time>
      </trkpt>
      <trkpt lat="45.27394" lon="0.37881">
        <ele>133</ele>
        <time>2016-06-24T14:52:27Z</time>
      </trkpt>
      <trkpt lat="45.2739" lon="0.37882">
        <ele>132</ele>
        <time>2016-06-24T14:52:31Z</time>
      </trkpt>
      <trkpt lat="45.27386" lon="0.3788">
        <ele>132</ele>
        <time>2016-06-24T14:52:35Z</time>
      </trkpt>
      <trkpt lat="45.27382" lon="0.37877">
        <ele>135</ele>
        <time>2016-06-24T14:52:39Z</time>
      </trkpt>
      <trkpt lat="45.27377" lon="0.37878">
        <ele>136</ele>
        <time>2016-06-24T14:52:43Z</time>
      </trkpt>
      <trkpt lat="45.2737" lon="0.37877">
        <ele>134</ele>
        <time>2016-06-24T14:52:47Z</time>
      </trkpt>
      <trkpt lat="45.27364" lon="0.37877">
        <ele>134</ele>
        <time>2016-06-24T14:52:52Z</time>
      </trkpt>
      <trkpt lat="45.2736" lon="0.37876">
        <ele>134</ele>
        <time>2016-06-24T14:52:56Z</time>
      </trkpt>
      <trkpt lat="45.27355" lon="0.37874">
        <ele>133</ele>
        <time>2016-06-24T14:53:00Z</time>
      </trkpt>
      <trkpt lat="45.27351" lon="0.37873">
        <ele>135</ele>
        <time>2016-06-24T14:53:04Z</time>
      </trkpt>
      <trkpt lat="45.27345" lon="0.37872">
        <ele>136</ele>
        <time>2016-06-24T14:53:09Z</time>
      </trkpt>
      <trkpt lat="45.2734" lon="0.3787">
        <ele>135</ele>
        <time>2016-06-24T14:53:13Z</time>
      </trkpt>
      <trkpt lat="45.27333" lon="0.3787">
        <ele>132</ele>
        <time>2016-06-24T14:53:17Z</time>
      </trkpt>
      <trkpt lat="45.27326" lon="0.37867">
        <ele>132</ele>
        <time>2016-06-24T14:53:22Z</time>
      </trkpt>
      <trkpt lat="45.27319" lon="0.37867">
        <ele>132</ele>
        <time>2016-06-24T14:53:27Z</time>
      </trkpt>
      <trkpt lat="45.27313" lon="0.37867">
        <ele>133</ele>
        <time>2016-06-24T14:53:32Z</time>
      </trkpt>
      <trkpt lat="45.27308" lon="0.3787">
        <ele>128</ele>
        <time>2016-06-24T14:53:36Z</time>
      </trkpt>
      <trkpt lat="45.27303" lon="0.37872">
        <ele>129</ele>
        <time>2016-06-24T14:53:40Z</time>
      </trkpt>
      <trkpt lat="45.27297" lon="0.37869">
        <ele>131</ele>
        <time>2016-06-24T14:53:45Z</time>
      </trkpt>
      <trkpt lat="45.27293" lon="0.3787">
        <ele>131</ele>
        <time>2016-06-24T14:53:52Z</time>
      </trkpt>
      <trkpt lat="45.27283" lon="0.37871">
        <ele>131</ele>
        <time>2016-06-24T14:53:57Z</time>
      </trkpt>
      <trkpt lat="45.27279" lon="0.37874">
        <ele>132</ele>
        <time>2016-06-24T14:54:01Z</time>
      </trkpt>
      <trkpt lat="45.27273" lon="0.37876">
        <ele>128</ele>
        <time>2016-06-24T14:54:05Z</time>
      </trkpt>
      <trkpt lat="45.27269" lon="0.37875">
        <ele>128</ele>
        <time>2016-06-24T14:54:09Z</time>
      </trkpt>
      <trkpt lat="45.27263" lon="0.37871">
        <ele>130</ele>
        <time>2016-06-24T14:54:14Z</time>
      </trkpt>
      <trkpt lat="45.27261" lon="0.37866">
        <ele>130</ele>
        <time>2016-06-24T14:54:19Z</time>
      </trkpt>
      <trkpt lat="45.27258" lon="0.37859">
        <ele>130</ele>
        <time>2016-06-24T14:54:24Z</time>
      </trkpt>
      <trkpt lat="45.27255" lon="0.37854">
        <ele>130</ele>
        <time>2016-06-24T14:54:28Z</time>
      </trkpt>
      <trkpt lat="45.27251" lon="0.37845">
        <ele>128</ele>
        <time>2016-06-24T14:54:33Z</time>
      </trkpt>
      <trkpt lat="45.27248" lon="0.37837">
        <ele>129</ele>
        <time>2016-06-24T14:54:38Z</time>
      </trkpt>
      <trkpt lat="45.27247" lon="0.37832">
        <ele>127</ele>
        <time>2016-06-24T14:54:42Z</time>
      </trkpt>
      <trkpt lat="45.27244" lon="0.37827">
        <ele>129</ele>
        <time>2016-06-24T14:54:47Z</time>
      </trkpt>
      <trkpt lat="45.27241" lon="0.37822">
        <ele>129</ele>
        <time>2016-06-24T14:54:51Z</time>
      </trkpt>
      <trkpt lat="45.27241" lon="0.37816">
        <ele>128</ele>
        <time>2016-06-24T14:54:55Z</time>
      </trkpt>
      <trkpt lat="45.27239" lon="0.37808">
        <ele>129</ele>
        <time>2016-06-24T14:54:59Z</time>
      </trkpt>
      <trkpt lat="45.27238" lon="0.378">
        <ele>127</ele>
        <time>2016-06-24T14:55:03Z</time>
      </trkpt>
      <trkpt lat="45.27233" lon="0.3779">
        <ele>128</ele>
        <time>2016-06-24T14:55:08Z</time>
      </trkpt>
      <trkpt lat="45.27231" lon="0.37782">
        <ele>127</ele>
        <time>2016-06-24T14:55:12Z</time>
      </trkpt>
      <trkpt lat="45.27225" lon="0.37772">
        <ele>128</ele>
        <time>2016-06-24T14:55:17Z</time>
      </trkpt>
      <trkpt lat="45.27223" lon="0.37766">
        <ele>127</ele>
        <time>2016-06-24T14:55:21Z</time>
      </trkpt>
      <trkpt lat="45.2722" lon="0.37759">
        <ele>126</ele>
        <time>2016-06-24T14:55:25Z</time>
      </trkpt>
      <trkpt lat="45.27216" lon="0.37751">
        <ele>126</ele>
        <time>2016-06-24T14:55:30Z</time>
      </trkpt>
      <trkpt lat="45.27212" lon="0.37742">
        <ele>126</ele>
        <time>2016-06-24T14:55:35Z</time>
      </trkpt>
      <trkpt lat="45.2721" lon="0.37735">
        <ele>127</ele>
        <time>2016-06-24T14:55:39Z</time>
      </trkpt>
      <trkpt lat="45.27207" lon="0.37727">
        <ele>128</ele>
        <time>2016-06-24T14:55:44Z</time>
      </trkpt>
      <trkpt lat="45.27206" lon="0.37721">
        <ele>128</ele>
        <time>2016-06-24T14:55:48Z</time>
      </trkpt>
      <trkpt lat="45.27203" lon="0.37715">
        <ele>129</ele>
        <time>2016-06-24T14:55:52Z</time>
      </trkpt>
      <trkpt lat="45.27199" lon="0.37709">
        <ele>130</ele>
        <time>2016-06-24T14:55:56Z</time>
      </trkpt>
      <trkpt lat="45.27196" lon="0.37703">
        <ele>130</ele>
        <time>2016-06-24T14:56:00Z</time>
      </trkpt>
      <trkpt lat="45.27194" lon="0.37696">
        <ele>128</ele>
        <time>2016-06-24T14:56:04Z</time>
      </trkpt>
      <trkpt lat="45.2719" lon="0.37689">
        <ele>128</ele>
        <time>2016-06-24T14:56:09Z</time>
      </trkpt>
      <trkpt lat="45.27186" lon="0.37685">
        <ele>127</ele>
        <time>2016-06-24T14:56:13Z</time>
      </trkpt>
      <trkpt lat="45.27181" lon="0.37681">
        <ele>127</ele>
        <time>2016-06-24T14:56:17Z</time>
      </trkpt>
      <trkpt lat="45.27176" lon="0.37678">
        <ele>127</ele>
        <time>2016-06-24T14:56:21Z</time>
      </trkpt>
      <trkpt lat="45.27171" lon="0.37674">
        <ele>128</ele>
        <time>2016-06-24T14:56:25Z</time>
      </trkpt>
      <trkpt lat="45.27163" lon="0.37671">
        <ele>126</ele>
        <time>2016-06-24T14:56:30Z</time>
      </trkpt>
      <trkpt lat="45.27157" lon="0.37669">
        <ele>126</ele>
        <time>2016-06-24T14:56:35Z</time>
      </trkpt>
      <trkpt lat="45.27153" lon="0.37666">
        <ele>126</ele>
        <time>2016-06-24T14:56:39Z</time>
      </trkpt>
      <trkpt lat="45.27154" lon="0.3766">
        <ele>127</ele>
        <time>2016-06-24T14:56:46Z</time>
      </trkpt>
      <trkpt lat="45.27155" lon="0.37653">
        <ele>127</ele>
        <time>2016-06-24T14:56:50Z</time>
      </trkpt>
      <trkpt lat="45.27153" lon="0.37645">
        <ele>125</ele>
        <time>2016-06-24T14:56:55Z</time>
      </trkpt>
      <trkpt lat="45.27152" lon="0.37642">
        <ele>124</ele>
        <time>2016-06-24T14:57:05Z</time>
      </trkpt>
      <trkpt lat="45.27154" lon="0.37633">
        <ele>123</ele>
        <time>2016-06-24T14:57:09Z</time>
      </trkpt>
      <trkpt lat="45.27155" lon="0.37628">
        <ele>123</ele>
        <time>2016-06-24T14:57:14Z</time>
      </trkpt>
      <trkpt lat="45.27157" lon="0.37614">
        <ele>120</ele>
        <time>2016-06-24T14:57:19Z</time>
      </trkpt>
      <trkpt lat="45.27159" lon="0.37609">
        <ele>121</ele>
        <time>2016-06-24T14:57:25Z</time>
      </trkpt>
      <trkpt lat="45.27161" lon="0.376">
        <ele>123</ele>
        <time>2016-06-24T14:57:30Z</time>
      </trkpt>
      <trkpt lat="45.2716" lon="0.37592">
        <ele>125</ele>
        <time>2016-06-24T14:57:35Z</time>
      </trkpt>
      <trkpt lat="45.27161" lon="0.37584">
        <ele>125</ele>
        <time>2016-06-24T14:57:40Z</time>
      </trkpt>
      <trkpt lat="45.27158" lon="0.37579">
        <ele>125</ele>
        <time>2016-06-24T14:57:47Z</time>
      </trkpt>
      <trkpt lat="45.27157" lon="0.37573">
        <ele>126</ele>
        <time>2016-06-24T14:57:54Z</time>
      </trkpt>
      <trkpt lat="45.27153" lon="0.37564">
        <ele>126</ele>
        <time>2016-06-24T14:57:58Z</time>
      </trkpt>
      <trkpt lat="45.27151" lon="0.37556">
        <ele>126</ele>
        <time>2016-06-24T14:58:03Z</time>
      </trkpt>
      <trkpt lat="45.27149" lon="0.37546">
        <ele>126</ele>
        <time>2016-06-24T14:58:07Z</time>
      </trkpt>
      <trkpt lat="45.27146" lon="0.37535">
        <ele>122</ele>
        <time>2016-06-24T14:58:12Z</time>
      </trkpt>
      <trkpt lat="45.27147" lon="0.3753">
        <ele>124</ele>
        <time>2016-06-24T14:58:17Z</time>
      </trkpt>
      <trkpt lat="45.27147" lon="0.37523">
        <ele>124</ele>
        <time>2016-06-24T14:58:21Z</time>
      </trkpt>
      <trkpt lat="45.27147" lon="0.37514">
        <ele>124</ele>
        <time>2016-06-24T14:58:26Z</time>
      </trkpt>
      <trkpt lat="45.27147" lon="0.37506">
        <ele>122</ele>
        <time>2016-06-24T14:58:30Z</time>
      </trkpt>
      <trkpt lat="45.27147" lon="0.37496">
        <ele>123</ele>
        <time>2016-06-24T14:58:35Z</time>
      </trkpt>
      <trkpt lat="45.27147" lon="0.37488">
        <ele>123</ele>
        <time>2016-06-24T14:58:40Z</time>
      </trkpt>
      <trkpt lat="45.27141" lon="0.37481">
        <ele>119</ele>
        <time>2016-06-24T14:58:44Z</time>
      </trkpt>
      <trkpt lat="45.27142" lon="0.3747">
        <ele>117</ele>
        <time>2016-06-24T14:58:49Z</time>
      </trkpt>
      <trkpt lat="45.27143" lon="0.37461">
        <ele>116</ele>
        <time>2016-06-24T14:58:54Z</time>
      </trkpt>
      <trkpt lat="45.27144" lon="0.37455">
        <ele>116</ele>
        <time>2016-06-24T14:58:58Z</time>
      </trkpt>
      <trkpt lat="45.27143" lon="0.37447">
        <ele>113</ele>
        <time>2016-06-24T14:59:03Z</time>
      </trkpt>
      <trkpt lat="45.27143" lon="0.37443">
        <ele>113</ele>
        <time>2016-06-24T14:59:07Z</time>
      </trkpt>
      <trkpt lat="45.27142" lon="0.37433">
        <ele>111</ele>
        <time>2016-06-24T14:59:12Z</time>
      </trkpt>
      <trkpt lat="45.2714" lon="0.37425">
        <ele>109</ele>
        <time>2016-06-24T14:59:16Z</time>
      </trkpt>
      <trkpt lat="45.27139" lon="0.37417">
        <ele>109</ele>
        <time>2016-06-24T14:59:20Z</time>
      </trkpt>
      <trkpt lat="45.27144" lon="0.37413">
        <ele>111</ele>
        <time>2016-06-24T14:59:25Z</time>
      </trkpt>
      <trkpt lat="45.27141" lon="0.3741">
        <ele>106</ele>
        <time>2016-06-24T14:59:32Z</time>
      </trkpt>
      <trkpt lat="45.27145" lon="0.37411">
        <ele>106</ele>
        <time>2016-06-24T14:59:43Z</time>
      </trkpt>
      <trkpt lat="45.27149" lon="0.37412">
        <ele>107</ele>
        <time>2016-06-24T14:59:49Z</time>
      </trkpt>
      <trkpt lat="45.27153" lon="0.37413">
        <ele>108</ele>
        <time>2016-06-24T14:59:55Z</time>
      </trkpt>
      <trkpt lat="45.27161" lon="0.37412">
        <ele>109</ele>
        <time>2016-06-24T15:00:00Z</time>
      </trkpt>
      <trkpt lat="45.27168" lon="0.37408">
        <ele>107</ele>
        <time>2016-06-24T15:00:04Z</time>
      </trkpt>
      <trkpt lat="45.27172" lon="0.37401">
        <ele>106</ele>
        <time>2016-06-24T15:00:09Z</time>
      </trkpt>
      <trkpt lat="45.2717" lon="0.37394">
        <ele>104</ele>
        <time>2016-06-24T15:00:13Z</time>
      </trkpt>
      <trkpt lat="45.27172" lon="0.37387">
        <ele>105</ele>
        <time>2016-06-24T15:00:17Z</time>
      </trkpt>
      <trkpt lat="45.27166" lon="0.37379">
        <ele>101</ele>
        <time>2016-06-24T15:00:21Z</time>
      </trkpt>
      <trkpt lat="45.27164" lon="0.37371">
        <ele>100</ele>
        <time>2016-06-24T15:00:26Z</time>
      </trkpt>
      <trkpt lat="45.27161" lon="0.37367">
        <ele>100</ele>
        <time>2016-06-24T15:00:31Z</time>
      </trkpt>
      <trkpt lat="45.27156" lon="0.37362">
        <ele>100</ele>
        <time>2016-06-24T15:00:36Z</time>
      </trkpt>
      <trkpt lat="45.27152" lon="0.37358">
        <ele>98</ele>
        <time>2016-06-24T15:00:40Z</time>
      </trkpt>
      <trkpt lat="45.27146" lon="0.37355">
        <ele>96</ele>
        <time>2016-06-24T15:00:45Z</time>
      </trkpt>
      <trkpt lat="45.27142" lon="0.37349">
        <ele>96</ele>
        <time>2016-06-24T15:00:49Z</time>
      </trkpt>
      <trkpt lat="45.27135" lon="0.37344">
        <ele>96</ele>
        <time>2016-06-24T15:00:54Z</time>
      </trkpt>
      <trkpt lat="45.2713" lon="0.37341">
        <ele>95</ele>
        <time>2016-06-24T15:00:58Z</time>
      </trkpt>
      <trkpt lat="45.27129" lon="0.37336">
        <ele>92</ele>
        <time>2016-06-24T15:01:03Z</time>
      </trkpt>
      <trkpt lat="45.27125" lon="0.37327">
        <ele>92</ele>
        <time>2016-06-24T15:01:08Z</time>
      </trkpt>
      <trkpt lat="45.2712" lon="0.37323">
        <ele>93</ele>
        <time>2016-06-24T15:01:12Z</time>
      </trkpt>
      <trkpt lat="45.27115" lon="0.37323">
        <ele>90</ele>
        <time>2016-06-24T15:01:16Z</time>
      </trkpt>
      <trkpt lat="45.27111" lon="0.37316">
        <ele>92</ele>
        <time>2016-06-24T15:01:21Z</time>
      </trkpt>
      <trkpt lat="45.27108" lon="0.37313">
        <ele>94</ele>
        <time>2016-06-24T15:01:28Z</time>
      </trkpt>
      <trkpt lat="45.27105" lon="0.37311">
        <ele>93</ele>
        <time>2016-06-24T15:01:32Z</time>
      </trkpt>
      <trkpt lat="45.27096" lon="0.37312">
        <ele>93</ele>
        <time>2016-06-24T15:01:37Z</time>
      </trkpt>
      <trkpt lat="45.27091" lon="0.3731">
        <ele>91</ele>
        <time>2016-06-24T15:01:42Z</time>
      </trkpt>
      <trkpt lat="45.27087" lon="0.37307">
        <ele>87</ele>
        <time>2016-06-24T15:01:47Z</time>
      </trkpt>
      <trkpt lat="45.27082" lon="0.37302">
        <ele>86</ele>
        <time>2016-06-24T15:01:51Z</time>
      </trkpt>
      <trkpt lat="45.27076" lon="0.373">
        <ele>86</ele>
        <time>2016-06-24T15:01:56Z</time>
      </trkpt>
      <trkpt lat="45.27074" lon="0.37297">
        <ele>84</ele>
        <time>2016-06-24T15:02:08Z</time>
      </trkpt>
      <trkpt lat="45.27073" lon="0.37288">
        <ele>83</ele>
        <time>2016-06-24T15:02:12Z</time>
      </trkpt>
      <trkpt lat="45.27072" lon="0.37277">
        <ele>82</ele>
        <time>2016-06-24T15:02:17Z</time>
      </trkpt>
      <trkpt lat="45.27069" lon="0.37269">
        <ele>84</ele>
        <time>2016-06-24T15:02:21Z</time>
      </trkpt>
      <trkpt lat="45.27067" lon="0.37263">
        <ele>82</ele>
        <time>2016-06-24T15:02:25Z</time>
      </trkpt>
      <trkpt lat="45.27061" lon="0.37255">
        <ele>83</ele>
        <time>2016-06-24T15:02:30Z</time>
      </trkpt>
      <trkpt lat="45.27056" lon="0.3725">
        <ele>83</ele>
        <time>2016-06-24T15:02:34Z</time>
      </trkpt>
      <trkpt lat="45.27052" lon="0.37244">
        <ele>82</ele>
        <time>2016-06-24T15:02:38Z</time>
      </trkpt>
      <trkpt lat="45.27047" lon="0.37237">
        <ele>82</ele>
        <time>2016-06-24T15:02:43Z</time>
      </trkpt>
      <trkpt lat="45.27042" lon="0.37231">
        <ele>82</ele>
        <time>2016-06-24T15:02:48Z</time>
      </trkpt>
      <trkpt lat="45.27039" lon="0.37227">
        <ele>82</ele>
        <time>2016-06-24T15:02:52Z</time>
      </trkpt>
      <trkpt lat="45.27037" lon="0.37221">
        <ele>82</ele>
        <time>2016-06-24T15:02:56Z</time>
      </trkpt>
      <trkpt lat="45.27029" lon="0.37221">
        <ele>82</ele>
        <time>2016-06-24T15:03:00Z</time>
      </trkpt>
      <trkpt lat="45.27026" lon="0.37214">
        <ele>83</ele>
        <time>2016-06-24T15:03:05Z</time>
      </trkpt>
      <trkpt lat="45.27022" lon="0.37208">
        <ele>84</ele>
        <time>2016-06-24T15:03:10Z</time>
      </trkpt>
      <trkpt lat="45.27021" lon="0.37201">
        <ele>82</ele>
        <time>2016-06-24T15:03:14Z</time>
      </trkpt>
      <trkpt lat="45.27021" lon="0.37195">
        <ele>82</ele>
        <time>2016-06-24T15:03:18Z</time>
      </trkpt>
      <trkpt lat="45.27021" lon="0.37189">
        <ele>84</ele>
        <time>2016-06-24T15:03:23Z</time>
      </trkpt>
      <trkpt lat="45.27021" lon="0.37184">
        <ele>86</ele>
        <time>2016-06-24T15:03:30Z</time>
      </trkpt>
      <trkpt lat="45.2702" lon="0.37178">
        <ele>84</ele>
        <time>2016-06-24T15:03:36Z</time>
      </trkpt>
      <trkpt lat="45.27022" lon="0.37172">
        <ele>85</ele>
        <time>2016-06-24T15:03:42Z</time>
      </trkpt>
      <trkpt lat="45.27021" lon="0.37165">
        <ele>83</ele>
        <time>2016-06-24T15:03:46Z</time>
      </trkpt>
      <trkpt lat="45.27017" lon="0.37156">
        <ele>82</ele>
        <time>2016-06-24T15:03:51Z</time>
      </trkpt>
      <trkpt lat="45.27017" lon="0.37149">
        <ele>82</ele>
        <time>2016-06-24T15:03:55Z</time>
      </trkpt>
      <trkpt lat="45.27017" lon="0.37143">
        <ele>83</ele>
        <time>2016-06-24T15:04:03Z</time>
      </trkpt>
      <trkpt lat="45.27015" lon="0.37137">
        <ele>80</ele>
        <time>2016-06-24T15:04:47Z</time>
      </trkpt>
      <trkpt lat="45.27012" lon="0.37134">
        <ele>79</ele>
        <time>2016-06-24T15:05:01Z</time>
      </trkpt>
      <trkpt lat="45.27011" lon="0.37124">
        <ele>81</ele>
        <time>2016-06-24T15:05:06Z</time>
      </trkpt>
      <trkpt lat="45.27009" lon="0.37116">
        <ele>81</ele>
        <time>2016-06-24T15:05:10Z</time>
      </trkpt>
      <trkpt lat="45.27006" lon="0.37108">
        <ele>80</ele>
        <time>2016-06-24T15:05:14Z</time>
      </trkpt>
      <trkpt lat="45.27" lon="0.37103">
        <ele>83</ele>
        <time>2016-06-24T15:05:19Z</time>
      </trkpt>
      <trkpt lat="45.26996" lon="0.37097">
        <ele>84</ele>
        <time>2016-06-24T15:05:24Z</time>
      </trkpt>
      <trkpt lat="45.26993" lon="0.37094">
        <ele>86</ele>
        <time>2016-06-24T15:05:28Z</time>
      </trkpt>
      <trkpt lat="45.26989" lon="0.37089">
        <ele>83</ele>
        <time>2016-06-24T15:05:32Z</time>
      </trkpt>
      <trkpt lat="45.26985" lon="0.37088">
        <ele>84</ele>
        <time>2016-06-24T15:05:37Z</time>
      </trkpt>
      <trkpt lat="45.26981" lon="0.37082">
        <ele>84</ele>
        <time>2016-06-24T15:05:41Z</time>
      </trkpt>
      <trkpt lat="45.26972" lon="0.37079">
        <ele>85</ele>
        <time>2016-06-24T15:05:45Z</time>
      </trkpt>
      <trkpt lat="45.26966" lon="0.37073">
        <ele>84</ele>
        <time>2016-06-24T15:05:50Z</time>
      </trkpt>
      <trkpt lat="45.26961" lon="0.37068">
        <ele>85</ele>
        <time>2016-06-24T15:05:54Z</time>
      </trkpt>
      <trkpt lat="45.26956" lon="0.37066">
        <ele>84</ele>
        <time>2016-06-24T15:05:59Z</time>
      </trkpt>
      <trkpt lat="45.26954" lon="0.37062">
        <ele>84</ele>
        <time>2016-06-24T15:06:08Z</time>
      </trkpt>
      <trkpt lat="45.26948" lon="0.3705">
        <ele>85</ele>
        <time>2016-06-24T15:06:13Z</time>
      </trkpt>
      <trkpt lat="45.26941" lon="0.37043">
        <ele>86</ele>
        <time>2016-06-24T15:06:18Z</time>
      </trkpt>
      <trkpt lat="45.26937" lon="0.3704">
        <ele>87</ele>
        <time>2016-06-24T15:06:24Z</time>
      </trkpt>
      <trkpt lat="45.26933" lon="0.37034">
        <ele>86</ele>
        <time>2016-06-24T15:06:29Z</time>
      </trkpt>
      <trkpt lat="45.26927" lon="0.37031">
        <ele>86</ele>
        <time>2016-06-24T15:06:34Z</time>
      </trkpt>
      <trkpt lat="45.26922" lon="0.37026">
        <ele>85</ele>
        <time>2016-06-24T15:06:38Z</time>
      </trkpt>
      <trkpt lat="45.26915" lon="0.3702">
        <ele>83</ele>
        <time>2016-06-24T15:06:42Z</time>
      </trkpt>
      <trkpt lat="45.26912" lon="0.37015">
        <ele>83</ele>
        <time>2016-06-24T15:06:57Z</time>
      </trkpt>
      <trkpt lat="45.26903" lon="0.37008">
        <ele>85</ele>
        <time>2016-06-24T15:07:02Z</time>
      </trkpt>
      <trkpt lat="45.26894" lon="0.37002">
        <ele>85</ele>
        <time>2016-06-24T15:07:06Z</time>
      </trkpt>
      <trkpt lat="45.26888" lon="0.36994">
        <ele>84</ele>
        <time>2016-06-24T15:07:11Z</time>
      </trkpt>
      <trkpt lat="45.26885" lon="0.3699">
        <ele>81</ele>
        <time>2016-06-24T15:07:15Z</time>
      </trkpt>
      <trkpt lat="45.26881" lon="0.36986">
        <ele>83</ele>
        <time>2016-06-24T15:07:19Z</time>
      </trkpt>
      <trkpt lat="45.26878" lon="0.36983">
        <ele>85</ele>
        <time>2016-06-24T15:07:23Z</time>
      </trkpt>
      <trkpt lat="45.26876" lon="0.3698">
        <ele>84</ele>
        <time>2016-06-24T15:07:29Z</time>
      </trkpt>
      <trkpt lat="45.2687" lon="0.36978">
        <ele>87</ele>
        <time>2016-06-24T15:07:33Z</time>
      </trkpt>
      <trkpt lat="45.26863" lon="0.36974">
        <ele>88</ele>
        <time>2016-06-24T15:07:37Z</time>
      </trkpt>
      <trkpt lat="45.26862" lon="0.36969">
        <ele>89</ele>
        <time>2016-06-24T15:07:42Z</time>
      </trkpt>
      <trkpt lat="45.26858" lon="0.36964">
        <ele>88</ele>
        <time>2016-06-24T15:07:46Z</time>
      </trkpt>
      <trkpt lat="45.26854" lon="0.36962">
        <ele>88</ele>
        <time>2016-06-24T15:07:51Z</time>
      </trkpt>
      <trkpt lat="45.26848" lon="0.36958">
        <ele>89</ele>
        <time>2016-06-24T15:07:56Z</time>
      </trkpt>
      <trkpt lat="45.26844" lon="0.36955">
        <ele>90</ele>
        <time>2016-06-24T15:08:00Z</time>
      </trkpt>
      <trkpt lat="45.26841" lon="0.36949">
        <ele>89</ele>
        <time>2016-06-24T15:08:04Z</time>
      </trkpt>
      <trkpt lat="45.26836" lon="0.36942">
        <ele>89</ele>
        <time>2016-06-24T15:08:09Z</time>
      </trkpt>
      <trkpt lat="45.26833" lon="0.36939">
        <ele>89</ele>
        <time>2016-06-24T15:08:13Z</time>
      </trkpt>
      <trkpt lat="45.26828" lon="0.36937">
        <ele>89</ele>
        <time>2016-06-24T15:08:17Z</time>
      </trkpt>
      <trkpt lat="45.26823" lon="0.36931">
        <ele>89</ele>
        <time>2016-06-24T15:08:22Z</time>
      </trkpt>
      <trkpt lat="45.26817" lon="0.36928">
        <ele>90</ele>
        <time>2016-06-24T15:08:26Z</time>
      </trkpt>
      <trkpt lat="45.26811" lon="0.36924">
        <ele>91</ele>
        <time>2016-06-24T15:08:30Z</time>
      </trkpt>
      <trkpt lat="45.26809" lon="0.36917">
        <ele>89</ele>
        <time>2016-06-24T15:08:35Z</time>
      </trkpt>
      <trkpt lat="45.26807" lon="0.36914">
        <ele>91</ele>
        <time>2016-06-24T15:08:39Z</time>
      </trkpt>
      <trkpt lat="45.26803" lon="0.36908">
        <ele>93</ele>
        <time>2016-06-24T15:08:43Z</time>
      </trkpt>
      <trkpt lat="45.26799" lon="0.36903">
        <ele>92</ele>
        <time>2016-06-24T15:08:48Z</time>
      </trkpt>
      <trkpt lat="45.26793" lon="0.36899">
        <ele>92</ele>
        <time>2016-06-24T15:08:52Z</time>
      </trkpt>
      <trkpt lat="45.2679" lon="0.36894">
        <ele>92</ele>
        <time>2016-06-24T15:08:56Z</time>
      </trkpt>
      <trkpt lat="45.26786" lon="0.36888">
        <ele>90</ele>
        <time>2016-06-24T15:09:01Z</time>
      </trkpt>
      <trkpt lat="45.26785" lon="0.36882">
        <ele>90</ele>
        <time>2016-06-24T15:09:05Z</time>
      </trkpt>
      <trkpt lat="45.26782" lon="0.36878">
        <ele>92</ele>
        <time>2016-06-24T15:09:09Z</time>
      </trkpt>
      <trkpt lat="45.2678" lon="0.36874">
        <ele>91</ele>
        <time>2016-06-24T15:09:13Z</time>
      </trkpt>
      <trkpt lat="45.26776" lon="0.36869">
        <ele>92</ele>
        <time>2016-06-24T15:09:17Z</time>
      </trkpt>
      <trkpt lat="45.26773" lon="0.36865">
        <ele>92</ele>
        <time>2016-06-24T15:09:21Z</time>
      </trkpt>
      <trkpt lat="45.2677" lon="0.3686">
        <ele>91</ele>
        <time>2016-06-24T15:09:28Z</time>
      </trkpt>
      <trkpt lat="45.26764" lon="0.36854">
        <ele>91</ele>
        <time>2016-06-24T15:09:32Z</time>
      </trkpt>
      <trkpt lat="45.26758" lon="0.3685">
        <ele>91</ele>
        <time>2016-06-24T15:09:36Z</time>
      </trkpt>
      <trkpt lat="45.26751" lon="0.36848">
        <ele>93</ele>
        <time>2016-06-24T15:09:40Z</time>
      </trkpt>
      <trkpt lat="45.26741" lon="0.36844">
        <ele>95</ele>
        <time>2016-06-24T15:09:45Z</time>
      </trkpt>
      <trkpt lat="45.26737" lon="0.36841">
        <ele>95</ele>
        <time>2016-06-24T15:09:49Z</time>
      </trkpt>
      <trkpt lat="45.26733" lon="0.36838">
        <ele>93</ele>
        <time>2016-06-24T15:09:53Z</time>
      </trkpt>
      <trkpt lat="45.2673" lon="0.36836">
        <ele>93</ele>
        <time>2016-06-24T15:09:57Z</time>
      </trkpt>
      <trkpt lat="45.26725" lon="0.36833">
        <ele>94</ele>
        <time>2016-06-24T15:10:01Z</time>
      </trkpt>
      <trkpt lat="45.26719" lon="0.36831">
        <ele>95</ele>
        <time>2016-06-24T15:10:06Z</time>
      </trkpt>
      <trkpt lat="45.26716" lon="0.36829">
        <ele>97</ele>
        <time>2016-06-24T15:10:11Z</time>
      </trkpt>
      <trkpt lat="45.26709" lon="0.36828">
        <ele>98</ele>
        <time>2016-06-24T15:10:16Z</time>
      </trkpt>
      <trkpt lat="45.26705" lon="0.36824">
        <ele>99</ele>
        <time>2016-06-24T15:10:21Z</time>
      </trkpt>
      <trkpt lat="45.267" lon="0.3682">
        <ele>99</ele>
        <time>2016-06-24T15:10:26Z</time>
      </trkpt>
      <trkpt lat="45.26696" lon="0.36817">
        <ele>99</ele>
        <time>2016-06-24T15:10:31Z</time>
      </trkpt>
      <trkpt lat="45.26691" lon="0.36812">
        <ele>99</ele>
        <time>2016-06-24T15:10:36Z</time>
      </trkpt>
      <trkpt lat="45.26686" lon="0.36811">
        <ele>97</ele>
        <time>2016-06-24T15:10:40Z</time>
      </trkpt>
      <trkpt lat="45.26679" lon="0.36806">
        <ele>99</ele>
        <time>2016-06-24T15:10:45Z</time>
      </trkpt>
      <trkpt lat="45.26674" lon="0.36804">
        <ele>101</ele>
        <time>2016-06-24T15:10:49Z</time>
      </trkpt>
      <trkpt lat="45.26669" lon="0.36802">
        <ele>103</ele>
        <time>2016-06-24T15:10:54Z</time>
      </trkpt>
      <trkpt lat="45.26666" lon="0.36796">
        <ele>101</ele>
        <time>2016-06-24T15:10:58Z</time>
      </trkpt>
      <trkpt lat="45.26656" lon="0.36795">
        <ele>99</ele>
        <time>2016-06-24T15:11:02Z</time>
      </trkpt>
      <trkpt lat="45.26649" lon="0.36788">
        <ele>100</ele>
        <time>2016-06-24T15:11:07Z</time>
      </trkpt>
      <trkpt lat="45.26646" lon="0.36787">
        <ele>99</ele>
        <time>2016-06-24T15:11:11Z</time>
      </trkpt>
      <trkpt lat="45.26642" lon="0.36782">
        <ele>100</ele>
        <time>2016-06-24T15:11:15Z</time>
      </trkpt>
      <trkpt lat="45.26638" lon="0.36778">
        <ele>100</ele>
        <time>2016-06-24T15:11:20Z</time>
      </trkpt>
      <trkpt lat="45.26631" lon="0.36775">
        <ele>99</ele>
        <time>2016-06-24T15:11:25Z</time>
      </trkpt>
      <trkpt lat="45.26627" lon="0.36771">
        <ele>99</ele>
        <time>2016-06-24T15:11:29Z</time>
      </trkpt>
      <trkpt lat="45.26621" lon="0.36769">
        <ele>99</ele>
        <time>2016-06-24T15:11:33Z</time>
      </trkpt>
      <trkpt lat="45.26615" lon="0.36766">
        <ele>99</ele>
        <time>2016-06-24T15:11:37Z</time>
      </trkpt>
      <trkpt lat="45.26611" lon="0.36763">
        <ele>99</ele>
        <time>2016-06-24T15:11:41Z</time>
      </trkpt>
      <trkpt lat="45.26603" lon="0.36757">
        <ele>100</ele>
        <time>2016-06-24T15:11:46Z</time>
      </trkpt>
      <trkpt lat="45.266" lon="0.36751">
        <ele>100</ele>
        <time>2016-06-24T15:11:50Z</time>
      </trkpt>
      <trkpt lat="45.26595" lon="0.36748">
        <ele>101</ele>
        <time>2016-06-24T15:11:54Z</time>
      </trkpt>
      <trkpt lat="45.26591" lon="0.36742">
        <ele>102</ele>
        <time>2016-06-24T15:11:59Z</time>
      </trkpt>
      <trkpt lat="45.26586" lon="0.36743">
        <ele>102</ele>
        <time>2016-06-24T15:12:03Z</time>
      </trkpt>
      <trkpt lat="45.26581" lon="0.36739">
        <ele>103</ele>
        <time>2016-06-24T15:12:07Z</time>
      </trkpt>
      <trkpt lat="45.26576" lon="0.36735">
        <ele>102</ele>
        <time>2016-06-24T15:12:11Z</time>
      </trkpt>
      <trkpt lat="45.26571" lon="0.36732">
        <ele>102</ele>
        <time>2016-06-24T15:12:16Z</time>
      </trkpt>
      <trkpt lat="45.26564" lon="0.36726">
        <ele>98</ele>
        <time>2016-06-24T15:12:21Z</time>
      </trkpt>
      <trkpt lat="45.26558" lon="0.36723">
        <ele>99</ele>
        <time>2016-06-24T15:12:25Z</time>
      </trkpt>
      <trkpt lat="45.26553" lon="0.36722">
        <ele>97</ele>
        <time>2016-06-24T15:12:29Z</time>
      </trkpt>
      <trkpt lat="45.26548" lon="0.36721">
        <ele>98</ele>
        <time>2016-06-24T15:12:34Z</time>
      </trkpt>
      <trkpt lat="45.26543" lon="0.36718">
        <ele>100</ele>
        <time>2016-06-24T15:12:39Z</time>
      </trkpt>
      <trkpt lat="45.26537" lon="0.36717">
        <ele>101</ele>
        <time>2016-06-24T15:12:43Z</time>
      </trkpt>
      <trkpt lat="45.26531" lon="0.36714">
        <ele>103</ele>
        <time>2016-06-24T15:12:48Z</time>
      </trkpt>
      <trkpt lat="45.26525" lon="0.36717">
        <ele>100</ele>
        <time>2016-06-24T15:12:52Z</time>
      </trkpt>
      <trkpt lat="45.26519" lon="0.36716">
        <ele>97</ele>
        <time>2016-06-24T15:12:57Z</time>
      </trkpt>
      <trkpt lat="45.26515" lon="0.36716">
        <ele>96</ele>
        <time>2016-06-24T15:13:01Z</time>
      </trkpt>
      <trkpt lat="45.26509" lon="0.36715">
        <ele>93</ele>
        <time>2016-06-24T15:13:06Z</time>
      </trkpt>
      <trkpt lat="45.26505" lon="0.36714">
        <ele>93</ele>
        <time>2016-06-24T15:13:10Z</time>
      </trkpt>
      <trkpt lat="45.26501" lon="0.36708">
        <ele>95</ele>
        <time>2016-06-24T15:13:14Z</time>
      </trkpt>
      <trkpt lat="45.26496" lon="0.36706">
        <ele>98</ele>
        <time>2016-06-24T15:13:19Z</time>
      </trkpt>
      <trkpt lat="45.26491" lon="0.36703">
        <ele>97</ele>
        <time>2016-06-24T15:13:23Z</time>
      </trkpt>
      <trkpt lat="45.26486" lon="0.36697">
        <ele>99</ele>
        <time>2016-06-24T15:13:28Z</time>
      </trkpt>
      <trkpt lat="45.26481" lon="0.36692">
        <ele>100</ele>
        <time>2016-06-24T15:13:32Z</time>
      </trkpt>
      <trkpt lat="45.26476" lon="0.36689">
        <ele>100</ele>
        <time>2016-06-24T15:13:36Z</time>
      </trkpt>
      <trkpt lat="45.26473" lon="0.36682">
        <ele>100</ele>
        <time>2016-06-24T15:13:41Z</time>
      </trkpt>
      <trkpt lat="45.26471" lon="0.36676">
        <ele>99</ele>
        <time>2016-06-24T15:13:45Z</time>
      </trkpt>
      <trkpt lat="45.26469" lon="0.36669">
        <ele>99</ele>
        <time>2016-06-24T15:13:49Z</time>
      </trkpt>
      <trkpt lat="45.26467" lon="0.36663">
        <ele>97</ele>
        <time>2016-06-24T15:13:53Z</time>
      </trkpt>
      <trkpt lat="45.26463" lon="0.36658">
        <ele>99</ele>
        <time>2016-06-24T15:13:57Z</time>
      </trkpt>
      <trkpt lat="45.26459" lon="0.36653">
        <ele>99</ele>
        <time>2016-06-24T15:14:01Z</time>
      </trkpt>
      <trkpt lat="45.26456" lon="0.36649">
        <ele>99</ele>
        <time>2016-06-24T15:14:11Z</time>
      </trkpt>
      <trkpt lat="45.26453" lon="0.36643">
        <ele>98</ele>
        <time>2016-06-24T15:14:16Z</time>
      </trkpt>
      <trkpt lat="45.26446" lon="0.36632">
        <ele>98</ele>
        <time>2016-06-24T15:14:21Z</time>
      </trkpt>
      <trkpt lat="45.26443" lon="0.36624">
        <ele>95</ele>
        <time>2016-06-24T15:14:25Z</time>
      </trkpt>
      <trkpt lat="45.26439" lon="0.36614">
        <ele>95</ele>
        <time>2016-06-24T15:14:30Z</time>
      </trkpt>
      <trkpt lat="45.26436" lon="0.36606">
        <ele>96</ele>
        <time>2016-06-24T15:14:34Z</time>
      </trkpt>
      <trkpt lat="45.26433" lon="0.36597">
        <ele>96</ele>
        <time>2016-06-24T15:14:39Z</time>
      </trkpt>
      <trkpt lat="45.26431" lon="0.36588">
        <ele>97</ele>
        <time>2016-06-24T15:14:44Z</time>
      </trkpt>
      <trkpt lat="45.2643" lon="0.3658">
        <ele>97</ele>
        <time>2016-06-24T15:14:48Z</time>
      </trkpt>
      <trkpt lat="45.2643" lon="0.36571">
        <ele>98</ele>
        <time>2016-06-24T15:14:53Z</time>
      </trkpt>
      <trkpt lat="45.2643" lon="0.36562">
        <ele>98</ele>
        <time>2016-06-24T15:14:58Z</time>
      </trkpt>
      <trkpt lat="45.26429" lon="0.36554">
        <ele>98</ele>
        <time>2016-06-24T15:15:02Z</time>
      </trkpt>
      <trkpt lat="45.26427" lon="0.36544">
        <ele>97</ele>
        <time>2016-06-24T15:15:06Z</time>
      </trkpt>
      <trkpt lat="45.26425" lon="0.36537">
        <ele>97</ele>
        <time>2016-06-24T15:15:11Z</time>
      </trkpt>
      <trkpt lat="45.26426" lon="0.3653">
        <ele>97</ele>
        <time>2016-06-24T15:15:15Z</time>
      </trkpt>
      <trkpt lat="45.26425" lon="0.36523">
        <ele>97</ele>
        <time>2016-06-24T15:15:19Z</time>
      </trkpt>
      <trkpt lat="45.26425" lon="0.36514">
        <ele>98</ele>
        <time>2016-06-24T15:15:24Z</time>
      </trkpt>
      <trkpt lat="45.26424" lon="0.36507">
        <ele>97</ele>
        <time>2016-06-24T15:15:28Z</time>
      </trkpt>
      <trkpt lat="45.26423" lon="0.36501">
        <ele>98</ele>
        <time>2016-06-24T15:15:32Z</time>
      </trkpt>
      <trkpt lat="45.26422" lon="0.36495">
        <ele>97</ele>
        <time>2016-06-24T15:15:36Z</time>
      </trkpt>
      <trkpt lat="45.26422" lon="0.36486">
        <ele>96</ele>
        <time>2016-06-24T15:15:41Z</time>
      </trkpt>
      <trkpt lat="45.2642" lon="0.36479">
        <ele>97</ele>
        <time>2016-06-24T15:15:46Z</time>
      </trkpt>
      <trkpt lat="45.2642" lon="0.36474">
        <ele>96</ele>
        <time>2016-06-24T15:15:50Z</time>
      </trkpt>
      <trkpt lat="45.26417" lon="0.36469">
        <ele>97</ele>
        <time>2016-06-24T15:15:54Z</time>
      </trkpt>
      <trkpt lat="45.26417" lon="0.3646">
        <ele>94</ele>
        <time>2016-06-24T15:15:59Z</time>
      </trkpt>
      <trkpt lat="45.26418" lon="0.36453">
        <ele>93</ele>
        <time>2016-06-24T15:16:03Z</time>
      </trkpt>
      <trkpt lat="45.26415" lon="0.36445">
        <ele>92</ele>
        <time>2016-06-24T15:16:07Z</time>
      </trkpt>
      <trkpt lat="45.26414" lon="0.36436">
        <ele>93</ele>
        <time>2016-06-24T15:16:12Z</time>
      </trkpt>
      <trkpt lat="45.26413" lon="0.36428">
        <ele>92</ele>
        <time>2016-06-24T15:16:16Z</time>
      </trkpt>
      <trkpt lat="45.26416" lon="0.3642">
        <ele>92</ele>
        <time>2016-06-24T15:16:20Z</time>
      </trkpt>
      <trkpt lat="45.26416" lon="0.36414">
        <ele>91</ele>
        <time>2016-06-24T15:16:24Z</time>
      </trkpt>
      <trkpt lat="45.26413" lon="0.36408">
        <ele>92</ele>
        <time>2016-06-24T15:16:29Z</time>
      </trkpt>
      <trkpt lat="45.26413" lon="0.36401">
        <ele>92</ele>
        <time>2016-06-24T15:16:33Z</time>
      </trkpt>
      <trkpt lat="45.26411" lon="0.36394">
        <ele>92</ele>
        <time>2016-06-24T15:16:37Z</time>
      </trkpt>
      <trkpt lat="45.2641" lon="0.36388">
        <ele>91</ele>
        <time>2016-06-24T15:16:41Z</time>
      </trkpt>
      <trkpt lat="45.26408" lon="0.36382">
        <ele>93</ele>
        <time>2016-06-24T15:16:45Z</time>
      </trkpt>
      <trkpt lat="45.26407" lon="0.36375">
        <ele>93</ele>
        <time>2016-06-24T15:16:50Z</time>
      </trkpt>
      <trkpt lat="45.26404" lon="0.36366">
        <ele>93</ele>
        <time>2016-06-24T15:16:55Z</time>
      </trkpt>
      <trkpt lat="45.26403" lon="0.3636">
        <ele>91</ele>
        <time>2016-06-24T15:17:00Z</time>
      </trkpt>
      <trkpt lat="45.26399" lon="0.3635">
        <ele>91</ele>
        <time>2016-06-24T15:17:05Z</time>
      </trkpt>
      <trkpt lat="45.26399" lon="0.36342">
        <ele>93</ele>
        <time>2016-06-24T15:17:09Z</time>
      </trkpt>
      <trkpt lat="45.264" lon="0.36337">
        <ele>88</ele>
        <time>2016-06-24T15:17:13Z</time>
      </trkpt>
      <trkpt lat="45.26398" lon="0.3633">
        <ele>88</ele>
        <time>2016-06-24T15:17:18Z</time>
      </trkpt>
      <trkpt lat="45.26395" lon="0.36323">
        <ele>87</ele>
        <time>2016-06-24T15:17:22Z</time>
      </trkpt>
      <trkpt lat="45.26393" lon="0.36315">
        <ele>87</ele>
        <time>2016-06-24T15:17:27Z</time>
      </trkpt>
      <trkpt lat="45.2639" lon="0.36313">
        <ele>86</ele>
        <time>2016-06-24T15:17:31Z</time>
      </trkpt>
      <trkpt lat="45.26386" lon="0.36307">
        <ele>87</ele>
        <time>2016-06-24T15:17:36Z</time>
      </trkpt>
      <trkpt lat="45.26383" lon="0.36305">
        <ele>88</ele>
        <time>2016-06-24T15:17:42Z</time>
      </trkpt>
      <trkpt lat="45.26377" lon="0.36299">
        <ele>88</ele>
        <time>2016-06-24T15:17:46Z</time>
      </trkpt>
      <trkpt lat="45.26373" lon="0.3629">
        <ele>86</ele>
        <time>2016-06-24T15:17:51Z</time>
      </trkpt>
      <trkpt lat="45.26367" lon="0.36284">
        <ele>85</ele>
        <time>2016-06-24T15:17:56Z</time>
      </trkpt>
      <trkpt lat="45.26362" lon="0.36278">
        <ele>85</ele>
        <time>2016-06-24T15:18:00Z</time>
      </trkpt>
      <trkpt lat="45.26358" lon="0.36271">
        <ele>85</ele>
        <time>2016-06-24T15:18:05Z</time>
      </trkpt>
      <trkpt lat="45.26355" lon="0.36268">
        <ele>87</ele>
        <time>2016-06-24T15:18:09Z</time>
      </trkpt>
      <trkpt lat="45.26352" lon="0.36264">
        <ele>92</ele>
        <time>2016-06-24T15:18:14Z</time>
      </trkpt>
      <trkpt lat="45.26346" lon="0.36258">
        <ele>91</ele>
        <time>2016-06-24T15:18:19Z</time>
      </trkpt>
      <trkpt lat="45.26342" lon="0.36255">
        <ele>92</ele>
        <time>2016-06-24T15:18:23Z</time>
      </trkpt>
      <trkpt lat="45.26335" lon="0.36251">
        <ele>93</ele>
        <time>2016-06-24T15:18:28Z</time>
      </trkpt>
      <trkpt lat="45.26333" lon="0.36249">
        <ele>97</ele>
        <time>2016-06-24T15:18:34Z</time>
      </trkpt>
      <trkpt lat="45.26326" lon="0.36272">
        <ele>101</ele>
        <time>2016-06-24T15:18:38Z</time>
      </trkpt>
      <trkpt lat="45.26316" lon="0.36266">
        <ele>98</ele>
        <time>2016-06-24T15:18:42Z</time>
      </trkpt>
      <trkpt lat="45.26312" lon="0.3627">
        <ele>96</ele>
        <time>2016-06-24T15:18:46Z</time>
      </trkpt>
      <trkpt lat="45.26309" lon="0.36274">
        <ele>101</ele>
        <time>2016-06-24T15:18:51Z</time>
      </trkpt>
      <trkpt lat="45.26312" lon="0.3627">
        <ele>98</ele>
        <time>2016-06-24T15:19:00Z</time>
      </trkpt>
      <trkpt lat="45.26307" lon="0.36261">
        <ele>94</ele>
        <time>2016-06-24T15:19:04Z</time>
      </trkpt>
      <trkpt lat="45.26301" lon="0.36249">
        <ele>88</ele>
        <time>2016-06-24T15:19:09Z</time>
      </trkpt>
      <trkpt lat="45.26291" lon="0.36243">
        <ele>85</ele>
        <time>2016-06-24T15:19:13Z</time>
      </trkpt>
      <trkpt lat="45.26292" lon="0.36237">
        <ele>80</ele>
        <time>2016-06-24T15:19:19Z</time>
      </trkpt>
      <trkpt lat="45.26289" lon="0.3623">
        <ele>80</ele>
        <time>2016-06-24T15:19:24Z</time>
      </trkpt>
      <trkpt lat="45.26289" lon="0.36224">
        <ele>80</ele>
        <time>2016-06-24T15:19:28Z</time>
      </trkpt>
      <trkpt lat="45.26288" lon="0.36218">
        <ele>79</ele>
        <time>2016-06-24T15:19:32Z</time>
      </trkpt>
      <trkpt lat="45.26288" lon="0.36213">
        <ele>78</ele>
        <time>2016-06-24T15:19:36Z</time>
      </trkpt>
      <trkpt lat="45.26288" lon="0.36207">
        <ele>78</ele>
        <time>2016-06-24T15:19:41Z</time>
      </trkpt>
      <trkpt lat="45.2628" lon="0.36198">
        <ele>77</ele>
        <time>2016-06-24T15:19:46Z</time>
      </trkpt>
      <trkpt lat="45.26273" lon="0.36193">
        <ele>77</ele>
        <time>2016-06-24T15:19:50Z</time>
      </trkpt>
      <trkpt lat="45.2627" lon="0.36186">
        <ele>75</ele>
        <time>2016-06-24T15:19:54Z</time>
      </trkpt>
      <trkpt lat="45.26268" lon="0.3618">
        <ele>74</ele>
        <time>2016-06-24T15:19:58Z</time>
      </trkpt>
      <trkpt lat="45.26267" lon="0.36173">
        <ele>74</ele>
        <time>2016-06-24T15:20:03Z</time>
      </trkpt>
      <trkpt lat="45.26264" lon="0.36168">
        <ele>75</ele>
        <time>2016-06-24T15:20:07Z</time>
      </trkpt>
      <trkpt lat="45.26261" lon="0.36163">
        <ele>75</ele>
        <time>2016-06-24T15:20:11Z</time>
      </trkpt>
      <trkpt lat="45.26257" lon="0.36155">
        <ele>75</ele>
        <time>2016-06-24T15:20:16Z</time>
      </trkpt>
      <trkpt lat="45.26251" lon="0.3615">
        <ele>76</ele>
        <time>2016-06-24T15:20:21Z</time>
      </trkpt>
      <trkpt lat="45.26247" lon="0.36147">
        <ele>76</ele>
        <time>2016-06-24T15:20:25Z</time>
      </trkpt>
      <trkpt lat="45.26243" lon="0.36141">
        <ele>75</ele>
        <time>2016-06-24T15:20:29Z</time>
      </trkpt>
      <trkpt lat="45.26239" lon="0.36134">
        <ele>73</ele>
        <time>2016-06-24T15:20:33Z</time>
      </trkpt>
      <trkpt lat="45.26236" lon="0.36129">
        <ele>72</ele>
        <time>2016-06-24T15:20:37Z</time>
      </trkpt>
      <trkpt lat="45.26232" lon="0.36127">
        <ele>73</ele>
        <time>2016-06-24T15:20:42Z</time>
      </trkpt>
      <trkpt lat="45.26231" lon="0.36119">
        <ele>73</ele>
        <time>2016-06-24T15:20:46Z</time>
      </trkpt>
      <trkpt lat="45.2623" lon="0.3611">
        <ele>72</ele>
        <time>2016-06-24T15:20:51Z</time>
      </trkpt>
      <trkpt lat="45.26226" lon="0.36104">
        <ele>73</ele>
        <time>2016-06-24T15:20:55Z</time>
      </trkpt>
      <trkpt lat="45.26225" lon="0.36097">
        <ele>72</ele>
        <time>2016-06-24T15:20:59Z</time>
      </trkpt>
      <trkpt lat="45.26223" lon="0.36089">
        <ele>72</ele>
        <time>2016-06-24T15:21:04Z</time>
      </trkpt>
      <trkpt lat="45.26223" lon="0.36083">
        <ele>73</ele>
        <time>2016-06-24T15:21:08Z</time>
      </trkpt>
      <trkpt lat="45.26223" lon="0.36075">
        <ele>71</ele>
        <time>2016-06-24T15:21:12Z</time>
      </trkpt>
      <trkpt lat="45.26222" lon="0.36069">
        <ele>70</ele>
        <time>2016-06-24T15:21:16Z</time>
      </trkpt>
      <trkpt lat="45.2622" lon="0.36062">
        <ele>71</ele>
        <time>2016-06-24T15:21:21Z</time>
      </trkpt>
      <trkpt lat="45.26218" lon="0.36057">
        <ele>71</ele>
        <time>2016-06-24T15:21:25Z</time>
      </trkpt>
      <trkpt lat="45.26218" lon="0.36052">
        <ele>73</ele>
        <time>2016-06-24T15:21:29Z</time>
      </trkpt>
      <trkpt lat="45.26215" lon="0.36044">
        <ele>72</ele>
        <time>2016-06-24T15:21:33Z</time>
      </trkpt>
      <trkpt lat="45.26207" lon="0.36036">
        <ele>69</ele>
        <time>2016-06-24T15:21:37Z</time>
      </trkpt>
      <trkpt lat="45.26208" lon="0.36029">
        <ele>69</ele>
        <time>2016-06-24T15:21:41Z</time>
      </trkpt>
      <trkpt lat="45.26204" lon="0.3602">
        <ele>67</ele>
        <time>2016-06-24T15:21:46Z</time>
      </trkpt>
      <trkpt lat="45.26196" lon="0.36017">
        <ele>67</ele>
        <time>2016-06-24T15:21:51Z</time>
      </trkpt>
      <trkpt lat="45.26188" lon="0.36014">
        <ele>65</ele>
        <time>2016-06-24T15:21:56Z</time>
      </trkpt>
      <trkpt lat="45.26185" lon="0.36011">
        <ele>66</ele>
        <time>2016-06-24T15:22:00Z</time>
      </trkpt>
      <trkpt lat="45.26183" lon="0.36005">
        <ele>70</ele>
        <time>2016-06-24T15:22:05Z</time>
      </trkpt>
      <trkpt lat="45.26178" lon="0.36002">
        <ele>68</ele>
        <time>2016-06-24T15:22:09Z</time>
      </trkpt>
      <trkpt lat="45.26175" lon="0.35996">
        <ele>67</ele>
        <time>2016-06-24T15:22:14Z</time>
      </trkpt>
      <trkpt lat="45.26174" lon="0.35991">
        <ele>69</ele>
        <time>2016-06-24T15:22:18Z</time>
      </trkpt>
      <trkpt lat="45.26172" lon="0.35986">
        <ele>69</ele>
        <time>2016-06-24T15:22:22Z</time>
      </trkpt>
      <trkpt lat="45.26169" lon="0.35979">
        <ele>69</ele>
        <time>2016-06-24T15:22:26Z</time>
      </trkpt>
      <trkpt lat="45.26164" lon="0.35973">
        <ele>70</ele>
        <time>2016-06-24T15:22:31Z</time>
      </trkpt>
      <trkpt lat="45.2616" lon="0.35966">
        <ele>70</ele>
        <time>2016-06-24T15:22:35Z</time>
      </trkpt>
      <trkpt lat="45.26155" lon="0.35958">
        <ele>68</ele>
        <time>2016-06-24T15:22:40Z</time>
      </trkpt>
      <trkpt lat="45.26152" lon="0.35953">
        <ele>70</ele>
        <time>2016-06-24T15:22:44Z</time>
      </trkpt>
      <trkpt lat="45.2615" lon="0.35946">
        <ele>70</ele>
        <time>2016-06-24T15:22:49Z</time>
      </trkpt>
      <trkpt lat="45.26146" lon="0.35937">
        <ele>69</ele>
        <time>2016-06-24T15:22:54Z</time>
      </trkpt>
      <trkpt lat="45.26144" lon="0.35931">
        <ele>70</ele>
        <time>2016-06-24T15:22:58Z</time>
      </trkpt>
      <trkpt lat="45.26139" lon="0.35926">
        <ele>70</ele>
        <time>2016-06-24T15:23:02Z</time>
      </trkpt>
      <trkpt lat="45.26133" lon="0.35918">
        <ele>71</ele>
        <time>2016-06-24T15:23:07Z</time>
      </trkpt>
      <trkpt lat="45.26129" lon="0.35915">
        <ele>71</ele>
        <time>2016-06-24T15:23:11Z</time>
      </trkpt>
      <trkpt lat="45.26124" lon="0.3591">
        <ele>71</ele>
        <time>2016-06-24T15:23:15Z</time>
      </trkpt>
      <trkpt lat="45.2612" lon="0.35905">
        <ele>72</ele>
        <time>2016-06-24T15:23:19Z</time>
      </trkpt>
      <trkpt lat="45.26115" lon="0.359">
        <ele>72</ele>
        <time>2016-06-24T15:23:23Z</time>
      </trkpt>
      <trkpt lat="45.2611" lon="0.35896">
        <ele>72</ele>
        <time>2016-06-24T15:23:27Z</time>
      </trkpt>
      <trkpt lat="45.26108" lon="0.35889">
        <ele>74</ele>
        <time>2016-06-24T15:23:32Z</time>
      </trkpt>
      <trkpt lat="45.26098" lon="0.35887">
        <ele>73</ele>
        <time>2016-06-24T15:23:37Z</time>
      </trkpt>
      <trkpt lat="45.2609" lon="0.35887">
        <ele>68</ele>
        <time>2016-06-24T15:23:41Z</time>
      </trkpt>
      <trkpt lat="45.26087" lon="0.35892">
        <ele>66</ele>
        <time>2016-06-24T15:23:45Z</time>
      </trkpt>
      <trkpt lat="45.26083" lon="0.35896">
        <ele>66</ele>
        <time>2016-06-24T15:23:50Z</time>
      </trkpt>
      <trkpt lat="45.26084" lon="0.35902">
        <ele>65</ele>
        <time>2016-06-24T15:23:55Z</time>
      </trkpt>
      <trkpt lat="45.2609" lon="0.35907">
        <ele>64</ele>
        <time>2016-06-24T15:24:00Z</time>
      </trkpt>
      <trkpt lat="45.26093" lon="0.3591">
        <ele>62</ele>
        <time>2016-06-24T15:24:12Z</time>
      </trkpt>
      <trkpt lat="45.26095" lon="0.35913">
        <ele>64</ele>
        <time>2016-06-24T15:24:40Z</time>
      </trkpt>
      <trkpt lat="45.26095" lon="0.35913">
        <ele>64</ele>
        <time>2016-06-24T15:24:40Z</time>
      </trkpt>
    </trkseg>
  </trk>
</gpx>